GFSSGP_250_spd_000.txt.gz
Wind_Speed
28 28 27 30 34 32 28 31 35 34 33 32 32 33 32 30 28 27 23 23 21 20 22 21 19 23 24 27 23 31 28 36 38 42 48 50 58 54 58 54 44 39 38 35 36 37 35 31 21
28 25 23 24 26 29 24 25 31 32 30 32 33 32 25 21 23 21 20 18 21 21 24 26 27 29 28 30 34 36 39 41 45 45 49 51 56 58 48 42 38 36 31 36 33 34 34 27 15
24 25 24 23 22 22 22 20 21 24 27 28 24 24 22 18 17 18 20 18 19 21 25 30 31 29 31 34 32 33 36 42 46 50 49 50 56 49 41 38 34 27 32 31 33 32 30 22 12
26 22 21 22 24 20 19 18 17 15 17 14 12 14 14 15 14 18 17 18 19 22 23 26 27 32 34 36 33 38 43 44 45 49 51 54 43 36 34 31 26 24 28 31 30 31 27 21 14
21 22 19 20 19 19 17 16 14 13 14 15 18 18 18 18 17 18 21 21 20 20 24 26 30 32 32 36 40 40 39 43 47 48 40 35 32 30 29 29 21 21 25 27 28 26 23 20 14
20 18 19 20 18 16 16 13 14 17 20 22 19 21 22 21 22 22 23 27 28 29 29 32 35 36 39 38 39 41 44 45 39 33 30 28 27 28 29 25 18 20 19 24 25 24 23 21 16
20 22 21 22 20 20 21 22 22 23 22 21 19 16 20 22 22 23 24 25 26 27 30 33 34 36 36 37 43 42 36 30 27 27 27 27 27 29 29 21 17 18 18 20 22 25 21 21 17
16 15 14 21 25 26 26 26 27 26 23 22 19 18 18 20 22 22 23 26 27 28 32 34 32 32 34 32 26 25 24 23 24 26 27 26 26 26 25 19 16 17 19 16 22 22 23 21 19
14 17 19 20 20 17 16 13 14 17 19 17 21 17 18 19 21 25 29 25 20 20 21 21 20 19 18 17 18 21 21 23 22 21 20 23 25 24 20 15 15 16 16 14 18 20 20 19 19
18 13 21 20 13 9 8 11 9 7 8 11 18 17 14 15 16 14 10 9 9 10 12 13 14 16 17 18 18 18 19 21 23 21 21 22 21 22 20 17 17 16 16 15 16 21 21 19 21
12 14 12 11 10 3 4 7 7 5 7 7 3 2 2 3 2 1 2 5 7 9 12 14 15 17 17 16 14 15 17 19 20 21 22 23 24 25 21 20 18 19 19 19 20 29 27 23 21
6 10 12 8 7 3 3 3 4 4 7 8 6 8 7 6 5 5 6 7 10 11 12 13 14 15 15 15 16 16 16 19 21 21 23 23 19 20 21 21 20 21 22 25 28 30 32 28 25
18 8 6 7 4 2 6 3 2 2 2 3 6 8 8 9 7 6 4 2 5 6 7 8 9 11 11 11 13 14 17 18 19 20 19 20 20 16 19 22 22 23 25 27 31 32 31 30 30
24 18 15 6 2 7 9 9 6 6 7 10 5 4 4 2 3 3 5 5 6 6 7 9 10 11 14 14 14 17 17 19 20 19 22 23 19 20 21 21 28 28 28 30 31 29 29 30 32
21 20 20 15 10 7 3 5 7 4 2 8 11 10 9 10 10 12 13 13 14 14 14 14 14 15 14 15 16 15 17 18 21 20 20 21 23 24 22 21 27 28 31 34 36 39 38 36 30
18 16 20 19 15 13 12 11 12 11 12 14 17 21 19 16 16 17 16 16 15 13 13 14 13 12 14 14 15 15 16 19 20 20 21 22 23 24 25 25 29 31 32 35 40 42 49 46 42
11 12 14 16 15 16 12 14 15 17 18 18 17 14 13 13 13 13 13 12 12 13 14 14 14 13 14 15 14 16 17 18 20 21 21 21 23 25 28 31 33 34 34 36 39 39 43 49 59
4 6 6 7 7 9 9 9 9 10 12 10 10 10 11 12 13 14 14 14 14 14 14 14 13 14 15 15 15 15 15 17 18 20 21 21 22 25 28 32 34 35 36 36 39 41 42 46 49
3 1 2 3 4 3 3 5 6 4 6 6 9 11 11 13 13 12 12 13 13 12 11 10 12 14 14 14 15 17 19 19 19 22 23 23 23 25 31 34 36 38 37 37 40 46 43 44 48
11 8 6 5 3 3 1 2 2 2 3 3 4 5 6 7 8 7 8 9 10 10 10 11 12 13 15 16 18 19 21 23 23 22 24 26 26 28 31 36 37 41 43 42 44 47 50 48 52
20 16 13 9 10 6 4 2 2 4 4 4 3 1 2 3 5 6 10 10 9 10 11 11 12 15 18 20 22 25 26 26 28 30 30 30 30 30 32 36 39 42 47 47 46 48 48 53 53
30 24 18 18 14 10 10 6 4 5 5 7 7 10 10 12 12 10 9 12 12 12 12 14 16 19 21 23 25 27 29 31 32 33 36 34 34 33 35 37 39 42 46 49 48 49 49 50 53
39 31 22 21 21 18 15 11 8 8 10 10 11 10 15 15 15 14 14 13 14 15 16 18 21 24 26 25 27 29 31 33 35 36 37 36 36 33 36 37 41 44 44 51 50 50 51 51 53
42 35 27 24 26 27 21 19 16 11 12 13 14 14 15 17 17 15 13 15 18 21 24 26 27 26 28 28 29 31 36 37 37 38 39 39 38 35 38 42 44 48 45 53 49 51 53 49 52
41 33 32 30 25 34 26 25 23 19 18 18 19 18 16 18 18 19 21 22 24 27 29 32 33 33 34 34 34 36 36 37 40 42 42 42 40 38 41 44 45 46 47 53 52 52 52 50 52
49 42 36 36 36 38 30 32 28 26 28 29 28 27 25 26 25 26 27 29 30 33 34 35 37 37 37 38 39 40 42 42 42 42 43 44 43 43 44 47 46 45 50 54 53 54 54 52 52
51 47 46 43 42 41 36 36 31 32 34 34 33 34 32 33 33 34 36 37 36 38 40 40 40 41 40 40 43 44 45 45 46 45 45 46 47 48 47 47 50 54 54 55 55 54 54 52 55
56 55 54 46 43 41 40 38 41 35 39 37 39 37 37 39 39 40 40 41 42 43 44 45 44 45 46 46 48 50 48 49 47 50 50 50 51 52 52 53 57 57 57 56 57 54 55 56 58
64 61 57 52 49 43 42 39 42 44 43 40 42 42 41 42 43 44 44 44 45 46 47 48 48 50 51 51 53 53 52 51 51 54 55 56 58 61 56 56 57 60 57 62 62 59 60 57 62
74 67 64 62 53 49 46 43 48 46 47 46 44 44 45 46 47 46 49 49 49 50 51 50 51 52 53 54 54 53 54 56 55 58 60 58 69 61 56 57 58 59 62 62 65 64 61 62 69

GFSSGP_250_spd_003.txt.gz
Wind_Speed
33 33 34 35 37 32 31 33 32 31 27 27 27 28 29 29 30 33 30 24 21 19 18 21 24 19 23 25 26 25 32 34 41 42 41 50 53 53 55 41 37 32 32 35 38 38 34 29 22
29 30 32 35 35 35 35 33 30 30 30 31 31 31 31 33 32 28 23 21 17 17 20 20 21 26 26 30 29 31 35 39 40 46 43 50 51 50 44 37 31 30 29 31 33 33 33 28 21
26 28 29 32 33 32 35 35 31 28 29 30 31 33 29 24 22 20 19 20 18 17 19 22 23 26 28 33 32 34 38 37 41 44 44 49 45 37 34 32 32 22 26 28 29 31 32 27 18
24 23 24 26 24 23 25 25 26 23 21 23 23 21 16 12 12 14 17 20 21 22 22 21 19 22 27 27 31 33 38 40 41 44 44 39 35 30 29 30 25 19 21 26 28 27 31 28 19
24 23 20 17 17 16 16 17 18 16 16 14 12 11 12 14 15 14 16 19 20 20 19 18 23 24 28 34 36 39 39 40 44 38 31 29 27 27 28 27 19 17 19 20 24 24 28 26 20
18 21 21 18 16 12 12 11 14 13 13 12 16 16 17 17 18 19 18 21 21 22 25 25 24 26 29 32 34 36 36 36 27 25 25 25 25 25 26 23 14 15 19 17 20 22 24 26 23
15 16 16 17 18 15 14 12 13 13 13 16 20 20 18 19 20 21 22 22 21 20 21 24 25 27 28 27 28 27 21 20 20 22 22 21 22 22 21 17 14 15 17 17 20 22 21 20 25
16 17 17 15 16 18 15 16 17 19 21 23 23 20 18 16 17 19 21 21 19 21 25 21 20 21 21 19 18 19 19 20 21 21 21 21 19 18 19 14 13 14 15 15 16 17 21 17 19
13 15 17 20 19 21 19 18 20 16 16 17 17 15 17 15 17 19 19 19 20 20 16 13 12 13 14 16 18 19 18 18 20 19 17 18 20 22 20 20 15 13 13 13 15 17 20 20 16
15 14 14 15 17 18 19 18 16 15 12 9 7 10 13 15 14 11 12 9 7 7 6 8 9 13 16 17 16 15 17 17 15 16 16 18 17 18 19 21 19 17 17 19 20 20 23 23 20
15 15 14 20 19 20 17 11 8 6 2 2 2 4 5 3 4 5 4 3 3 5 6 8 11 11 13 14 13 13 13 15 16 18 19 19 21 22 24 22 21 21 21 22 24 25 25 24 24
11 18 10 11 13 13 11 7 5 5 6 7 6 1 5 4 6 5 5 4 3 2 3 6 9 10 10 10 11 14 17 19 20 20 22 22 23 26 29 27 27 27 28 28 24 25 23 18 19
15 9 10 9 10 13 13 7 9 6 2 4 8 8 8 7 7 6 5 1 3 8 9 9 10 12 15 15 16 19 20 20 18 21 23 21 26 25 25 29 26 26 28 28 35 38 41 40 32
22 11 7 9 10 10 13 10 8 8 7 10 12 8 5 3 2 3 7 10 12 15 15 16 15 15 18 17 18 17 18 18 18 19 20 22 23 24 24 26 25 26 26 30 32 40 39 41 47
20 19 13 13 11 7 9 12 11 11 10 8 10 12 13 11 11 12 15 18 18 17 15 14 14 16 16 16 17 18 18 19 19 19 21 21 24 22 23 24 26 26 27 29 33 34 41 42 42
15 16 16 18 16 13 12 10 8 7 8 12 15 19 21 21 19 17 17 15 13 14 15 15 14 15 15 16 17 16 17 19 20 20 20 18 17 19 22 25 25 28 30 29 30 33 38 43 46
7 12 11 12 18 19 18 16 14 15 18 18 15 17 17 16 15 14 12 13 14 15 15 15 15 15 15 13 13 14 16 14 16 19 18 17 16 17 21 24 27 29 34 36 34 35 38 42 43
1 5 6 6 11 14 12 13 16 15 11 12 12 13 15 17 17 15 14 13 13 13 12 10 10 8 10 11 13 14 14 15 16 18 19 20 20 21 22 25 28 31 35 37 39 38 37 39 42
7 3 4 1 5 8 7 7 8 7 7 11 16 15 15 13 12 12 11 10 9 8 7 7 8 9 10 10 11 14 17 20 20 19 19 22 23 25 24 24 29 32 37 37 40 42 39 39 39
14 10 7 5 2 1 4 5 5 7 10 10 9 7 5 6 6 6 6 7 6 5 4 4 6 8 11 13 14 16 17 19 21 23 23 24 25 26 29 28 29 31 37 37 37 44 43 42 41
22 19 14 11 10 9 8 7 7 7 11 10 9 6 3 3 3 5 5 5 6 6 6 6 7 10 14 17 19 19 20 22 25 28 29 29 28 27 28 30 30 33 38 40 39 42 48 46 44
31 28 22 18 17 13 14 13 11 9 13 12 11 12 10 10 10 6 6 6 9 8 8 9 12 16 19 21 22 24 26 27 29 31 33 33 33 31 30 31 32 36 39 39 38 43 47 48 48
44 36 30 25 22 20 19 16 13 14 14 12 11 13 14 12 11 10 11 9 10 9 12 13 16 20 22 24 26 28 30 31 32 33 35 36 35 32 32 33 35 38 40 42 38 43 47 49 48
50 39 34 31 27 24 27 23 21 18 19 15 14 14 16 15 14 11 11 12 15 17 19 20 21 24 27 29 30 33 33 33 35 35 37 37 35 34 33 34 36 39 41 43 45 46 46 49 48
46 46 35 32 30 29 29 29 27 24 24 21 19 18 17 18 17 16 18 21 22 24 25 27 27 29 31 33 34 36 36 36 38 41 40 39 37 37 38 37 38 42 48 49 50 47 45 44 49
52 51 44 37 34 38 36 35 28 28 28 28 27 24 23 24 24 24 25 26 29 30 31 32 32 33 34 36 37 38 41 42 42 39 40 42 42 42 42 41 44 52 53 45 47 44 42 46 44
57 53 49 46 40 39 39 40 32 33 33 32 31 30 29 29 29 30 30 32 34 36 36 36 36 38 37 39 40 42 44 44 43 43 43 44 43 42 46 50 53 50 47 44 42 39 44 46 46
65 61 59 50 44 42 44 44 42 38 39 37 35 36 34 34 34 35 34 36 38 40 40 39 41 42 41 41 42 43 44 46 47 47 47 48 49 48 50 51 50 47 46 43 44 44 48 47 47
72 69 63 55 49 46 46 44 50 46 46 43 43 41 40 40 40 40 39 41 42 42 44 44 43 43 43 43 44 45 47 49 50 51 51 53 57 50 52 47 41 44 45 48 53 54 51 49 56
80 76 70 64 54 52 53 52 55 55 49 47 47 45 45 45 44 42 43 45 45 45 46 46 46 46 44 44 47 48 51 51 54 53 55 55 52 44 58 53 52 53 48 60 61 58 56 56 66

GFSSGP_250_spd_006.txt.gz
Wind_Speed
33 33 27 34 34 34 32 31 30 25 24 24 24 23 24 26 26 28 29 30 26 23 21 20 17 19 22 26 26 30 32 35 39 40 42 45 49 39 42 37 31 22 24 29 31 34 29 24 21
29 31 32 29 35 35 34 33 31 30 30 28 26 27 28 29 30 30 30 27 24 20 17 19 21 21 23 26 30 30 35 36 36 41 43 43 40 37 32 29 27 18 20 27 30 33 33 29 21
27 31 33 33 31 35 36 34 33 32 32 32 31 31 30 30 30 26 25 23 23 18 18 18 18 21 24 27 26 26 32 37 38 39 40 40 30 27 25 26 17 13 16 22 27 30 36 30 22
25 28 30 31 35 36 36 36 33 35 36 34 31 29 24 17 15 17 19 20 19 22 20 20 22 22 23 26 29 32 36 36 36 37 31 26 24 24 23 19 12 13 17 15 24 26 31 33 25
26 25 26 28 28 30 32 34 32 31 25 24 24 20 18 13 12 14 15 16 19 19 21 18 19 24 27 29 30 32 31 28 27 24 24 23 22 21 21 15 11 13 15 16 17 21 23 26 29
25 26 27 27 26 24 23 22 20 20 20 18 21 17 15 16 17 16 17 16 19 20 20 21 23 24 25 24 25 24 24 21 22 22 21 22 20 18 16 15 14 14 13 15 16 17 17 20 26
17 19 22 23 22 19 17 16 12 13 13 12 12 13 16 18 17 19 18 19 18 21 20 18 19 21 19 20 19 17 19 20 18 19 16 15 16 16 16 13 13 13 15 15 14 16 15 16 21
15 18 19 17 15 14 15 13 11 10 14 16 16 19 18 19 16 15 16 18 19 20 20 18 19 17 12 13 15 16 17 17 17 13 13 17 17 19 20 19 15 14 14 15 15 17 17 17 18
15 15 16 17 16 16 15 14 13 15 15 15 14 16 19 19 17 16 17 16 17 15 15 13 8 7 10 12 11 12 13 14 13 12 15 19 22 21 21 21 19 18 17 19 21 21 23 21 18
16 18 19 17 17 16 16 15 15 18 18 16 12 6 6 7 13 13 10 7 5 5 3 3 5 6 7 8 11 11 12 11 16 20 22 23 26 26 27 27 26 25 25 27 26 24 21 20 18
17 17 17 14 12 12 13 14 16 14 11 12 5 2 1 2 3 3 3 2 2 2 2 2 2 4 9 11 12 13 14 19 20 22 24 23 24 25 24 24 23 26 30 33 31 30 37 34 24
11 18 15 10 13 14 14 19 15 8 10 7 7 5 2 3 2 3 2 3 2 2 2 4 8 10 14 17 18 19 18 19 20 20 18 19 20 23 23 24 23 24 23 28 31 33 33 30 34
7 10 13 8 10 13 14 16 14 10 10 9 5 5 7 6 4 3 2 2 3 8 12 17 19 18 19 18 19 18 17 17 17 17 18 18 20 21 21 23 23 23 24 27 29 32 34 34 38
10 2 6 11 13 18 16 17 15 12 9 7 7 10 10 5 5 6 7 9 14 19 18 17 18 19 18 17 18 18 19 18 17 16 16 17 19 20 19 20 23 25 24 27 29 31 34 35 35
16 9 3 6 13 15 17 14 11 8 7 9 6 6 8 11 12 12 17 18 17 15 15 17 17 18 17 16 16 16 16 16 17 16 14 14 15 18 19 21 19 21 24 25 27 32 34 36 32
11 12 9 6 7 12 16 15 11 8 4 3 4 8 15 18 20 19 16 13 14 15 15 16 17 16 15 14 12 12 12 13 13 13 15 15 15 16 17 16 19 23 27 28 30 31 36 35 37
3 7 9 12 10 12 14 14 14 11 11 14 16 20 18 18 17 15 15 14 13 14 14 15 14 12 11 11 10 12 13 14 15 16 15 16 15 17 19 20 21 25 27 30 30 28 35 38 37
3 3 7 7 8 14 18 21 22 21 19 16 15 13 18 20 18 17 15 14 13 12 10 9 9 7 7 8 10 12 12 12 13 15 16 17 20 21 22 22 21 23 26 29 33 31 34 36 37
10 8 7 8 3 5 11 18 19 16 15 15 16 18 16 17 15 13 12 11 9 7 6 4 5 6 7 8 9 11 14 15 17 18 20 21 22 23 24 25 24 23 26 29 32 36 32 38 36
18 15 13 11 10 8 10 13 12 11 14 17 15 11 10 7 7 7 6 6 6 4 2 2 2 2 5 9 13 15 16 18 19 22 23 24 25 25 25 26 27 27 27 30 32 36 34 40 39
26 23 19 15 14 15 13 14 13 13 14 15 15 12 9 8 5 1 2 4 3 2 2 3 3 5 8 12 14 16 19 21 23 24 26 27 27 26 26 27 27 28 28 29 31 34 35 39 36
35 31 26 20 20 19 16 15 15 16 19 20 18 17 13 11 11 8 7 6 6 6 6 6 8 9 12 15 15 18 21 24 26 27 28 31 29 28 28 27 27 27 28 30 31 38 37 36 34
45 39 32 29 27 20 21 19 17 17 16 22 21 21 21 17 16 14 11 10 10 9 10 10 12 15 18 19 20 21 24 26 28 30 30 30 30 30 30 31 30 30 30 33 38 43 34 35 37
50 43 38 34 33 25 27 25 21 23 19 20 22 23 24 22 18 15 14 12 12 12 15 17 18 20 22 24 25 26 28 29 31 32 32 32 34 34 35 35 34 36 36 41 43 37 37 35 35
57 45 39 35 35 29 33 30 30 27 23 23 21 23 23 22 20 16 16 16 16 18 21 23 25 26 29 29 30 31 31 30 32 34 35 37 40 40 39 38 40 41 42 45 38 36 42 39 39
62 55 45 42 38 38 42 35 39 33 30 30 28 26 27 25 24 22 20 20 21 24 27 28 29 30 31 33 34 34 33 33 34 35 38 40 42 44 42 42 42 37 36 39 39 44 48 47 40
65 62 52 51 47 44 44 46 44 35 34 37 37 33 32 30 29 29 28 27 29 30 32 33 34 35 34 35 35 34 34 35 37 39 40 42 44 44 45 41 39 37 39 38 43 49 50 40 42
72 66 67 56 51 45 47 46 47 42 41 41 38 37 36 34 33 33 32 31 32 33 35 36 38 39 38 37 36 35 36 37 40 43 45 46 47 48 40 40 39 34 42 47 45 47 47 47 58
78 76 70 62 58 51 49 49 54 45 46 46 44 41 40 39 38 37 35 35 38 39 40 41 41 41 40 39 38 36 38 41 44 47 48 49 49 45 42 41 45 45 47 50 51 51 52 56 60
89 85 80 73 59 54 51 53 61 51 48 50 49 47 46 45 44 43 41 40 44 44 44 43 41 42 43 43 40 40 42 44 48 50 53 49 47 46 44 41 43 46 53 49 48 57 57 60 65

GFSSGP_250_spd_009.txt.gz
Wind_Speed
28 27 30 31 31 34 34 33 27 21 21 22 20 19 20 19 16 23 23 25 29 30 26 23 24 22 22 24 29 35 32 36 36 38 43 42 38 36 27 23 18 11 19 24 30 30 25 22 19
27 26 25 31 35 34 28 29 26 26 26 24 25 23 24 22 24 27 27 30 30 27 24 22 20 21 24 26 27 31 33 34 36 41 41 34 34 27 21 18 13 9 15 18 24 30 30 20 14
27 26 34 35 30 33 34 32 32 30 30 29 28 29 30 31 31 30 28 28 27 26 23 18 18 23 24 25 27 28 31 34 38 34 28 26 26 22 18 14 8 10 11 16 18 25 29 23 14
27 29 34 33 31 31 32 34 35 34 32 32 31 33 35 29 24 22 22 21 21 21 22 23 22 26 27 24 28 30 30 31 27 22 25 23 20 18 14 8 10 11 11 10 14 20 24 27 18
27 26 29 32 34 36 35 34 35 34 35 35 33 32 25 26 22 17 14 17 17 18 19 23 24 24 26 27 27 26 24 19 21 22 20 17 16 14 12 11 9 11 10 9 12 14 17 23 20
26 26 27 27 32 32 31 34 34 36 34 31 26 24 23 22 20 19 18 19 19 20 21 23 24 25 23 23 21 18 16 17 17 16 12 15 15 13 11 8 9 10 12 12 11 14 13 17 18
26 25 26 27 29 26 28 29 28 27 25 23 20 20 22 18 20 19 19 20 18 19 20 21 22 20 21 17 11 13 13 13 13 12 13 14 13 14 14 16 15 14 13 14 16 15 14 13 13
25 25 25 24 22 21 22 24 20 14 14 17 18 19 20 20 18 16 16 17 19 22 21 19 19 17 11 9 9 10 9 11 12 11 12 14 17 20 21 21 22 23 24 24 24 23 18 14 13
21 21 22 20 19 20 18 19 19 20 18 16 16 16 17 19 19 19 18 18 19 16 17 13 10 8 7 6 6 5 10 12 14 16 19 22 23 24 26 28 29 29 28 27 29 35 37 32 18
19 20 21 20 22 21 20 17 17 16 15 17 18 14 12 9 8 12 14 10 6 5 5 5 6 7 4 3 7 12 14 15 19 19 20 20 23 23 25 23 23 25 29 32 30 27 30 33 40
19 23 22 26 23 18 17 13 14 15 15 15 14 12 8 5 3 1 1 2 3 4 6 6 6 3 7 12 14 15 17 18 18 16 17 20 21 20 22 24 25 28 30 29 35 33 31 31 29
7 21 22 18 16 14 13 12 13 15 16 10 11 8 5 3 4 3 5 5 6 5 4 4 7 13 17 17 17 16 16 15 15 15 16 16 19 21 23 24 24 26 31 28 30 35 35 29 30
11 10 16 15 15 15 17 15 16 16 15 11 11 5 5 8 8 6 4 3 3 4 9 15 17 17 16 16 17 16 16 16 16 16 16 17 17 20 20 20 21 26 28 32 27 33 32 33 32
13 3 9 14 14 16 17 17 18 16 14 13 14 10 8 7 9 6 6 6 8 14 14 17 16 16 17 16 17 17 18 18 15 12 11 11 14 15 16 15 17 21 26 30 29 32 34 33 33
10 6 1 9 14 16 17 16 19 18 15 11 10 6 2 7 10 12 13 16 16 14 14 14 16 16 15 15 14 13 12 12 11 11 10 12 14 17 15 15 16 18 22 25 30 29 31 36 34
7 9 9 3 6 13 15 15 13 12 8 8 7 5 8 12 14 18 18 13 12 13 13 13 14 13 12 12 11 11 10 10 11 12 13 15 16 18 19 19 20 20 22 22 25 27 31 34 34
3 3 8 8 2 5 14 15 17 11 12 14 11 13 17 20 20 17 14 13 14 14 13 13 12 9 8 8 8 10 11 13 16 16 17 18 19 20 21 21 20 21 23 24 24 25 28 29 34
7 3 1 6 7 3 7 11 14 18 19 20 20 18 18 16 14 15 15 15 15 14 12 8 7 5 4 6 7 10 13 15 15 17 20 21 22 23 24 24 23 22 23 24 24 25 26 28 32
15 10 8 5 6 5 9 19 21 18 18 20 20 21 18 16 16 14 15 14 13 11 9 7 5 3 3 5 8 10 12 15 18 20 21 22 22 22 23 24 25 24 22 23 22 23 26 31 29
22 17 14 12 10 11 12 14 13 14 17 18 21 21 20 17 14 12 10 10 9 8 7 6 4 3 1 6 10 13 13 15 18 21 22 22 23 22 24 24 24 23 23 23 23 26 31 36 27
30 26 22 19 15 14 14 16 15 14 18 21 21 20 17 13 11 9 9 9 9 8 7 6 6 5 5 8 13 14 15 17 19 21 22 23 23 23 23 25 26 26 25 26 26 30 33 35 30
37 34 29 26 21 20 20 19 17 17 19 21 20 18 15 12 12 9 8 9 8 8 8 8 7 7 8 12 14 16 19 22 23 23 24 23 24 25 27 27 27 28 29 27 29 32 35 26 32
44 44 38 33 29 28 22 21 24 23 22 23 22 22 20 18 14 15 13 12 12 11 10 9 9 10 13 15 16 19 22 25 27 26 25 25 26 27 29 30 32 31 32 31 31 28 30 24 30
52 51 43 38 36 33 27 27 27 25 26 22 28 27 26 24 21 21 20 17 16 15 14 15 14 15 17 18 20 22 25 27 27 26 27 30 31 33 34 35 34 36 36 36 31 29 30 30 34
60 54 48 42 37 36 36 33 32 31 28 26 25 28 28 27 26 25 23 23 20 19 19 19 19 21 21 23 24 26 28 28 28 29 31 34 35 38 40 41 40 38 31 32 31 35 35 38 38
67 63 53 50 44 45 43 38 38 38 34 29 30 28 27 27 26 27 27 27 25 23 24 24 24 26 27 28 28 30 30 29 30 31 33 37 38 41 43 42 40 33 38 38 32 33 40 43 43
69 71 57 60 54 49 45 48 51 44 36 34 36 34 32 31 28 29 29 28 27 28 29 30 30 30 30 32 33 32 30 31 32 33 35 39 42 44 43 45 42 39 39 37 37 42 44 49 51
78 71 73 62 57 52 54 53 50 50 42 40 42 39 38 37 35 34 34 33 33 34 34 35 34 34 34 35 34 33 33 33 34 36 37 42 45 47 48 47 42 40 42 43 44 50 51 53 53
84 78 78 72 69 60 57 53 54 54 46 44 46 46 43 42 41 40 40 38 38 38 38 37 37 37 37 37 35 36 36 36 38 40 41 46 51 53 54 47 44 42 41 45 46 47 50 54 55
90 87 87 84 72 63 63 57 62 62 53 49 52 51 50 48 46 44 44 42 41 43 42 41 40 39 40 40 40 41 39 40 42 42 44 49 53 57 54 48 44 46 46 46 48 51 52 53 57

GFSSGP_250_spd_012.txt.gz
Wind_Speed
23 19 13 14 21 17 34 31 33 27 27 23 21 17 17 17 19 19 19 23 24 27 30 28 28 28 30 29 30 32 37 38 41 42 42 41 28 25 26 20 11 6 14 15 23 22 16 15 15
26 22 17 6 35 41 25 26 31 32 32 28 21 20 23 21 21 24 25 26 30 30 29 27 25 22 21 25 27 32 33 36 37 39 35 26 27 25 20 13 8 6 9 12 18 25 18 10 8
21 20 25 40 37 22 28 20 24 31 29 26 26 25 24 26 27 26 26 27 26 25 26 25 24 21 21 25 29 32 31 32 31 29 25 26 23 17 13 8 7 6 6 10 13 20 19 13 7
16 31 33 33 52 37 32 32 31 32 30 30 30 30 31 32 34 29 26 24 22 20 19 19 20 21 25 30 27 30 30 29 24 23 23 19 15 14 13 11 9 9 7 9 12 14 17 15 9
16 30 37 44 27 28 33 31 30 32 32 30 32 31 32 32 27 27 23 21 20 19 19 19 21 23 25 28 32 29 25 20 21 19 15 15 13 12 11 10 11 8 11 10 11 12 13 14 11
25 41 31 34 32 36 36 33 32 33 30 32 34 31 28 28 25 23 23 22 23 22 21 23 23 25 28 28 23 22 16 17 15 12 13 13 11 13 14 14 12 12 11 12 13 13 9 8 7
16 32 34 32 32 33 33 30 32 31 31 28 28 28 26 23 24 23 22 22 22 21 19 20 25 25 24 20 18 15 14 11 10 10 12 16 21 23 24 24 24 26 24 24 30 34 28 12 4
22 14 27 30 29 31 28 26 26 26 22 19 21 20 21 22 23 24 22 21 19 19 19 18 19 18 18 14 13 12 7 8 10 13 18 21 23 24 24 27 25 29 26 26 25 29 26 31 25
29 30 28 30 30 29 25 22 19 17 16 15 18 21 22 22 24 23 23 20 19 18 15 14 13 12 11 11 7 6 12 13 18 17 19 22 22 21 23 30 36 30 32 39 35 31 28 34 33
23 27 29 28 29 28 24 22 19 19 19 20 19 20 19 18 18 15 13 14 9 8 6 7 8 9 7 1 8 12 14 16 15 18 20 22 22 22 27 27 36 32 28 28 34 34 29 26 32
20 21 29 26 26 23 22 22 19 19 19 16 15 16 15 17 12 8 6 4 3 4 6 7 7 3 5 11 13 15 14 14 14 17 19 21 18 22 13 22 20 32 13 30 27 32 30 32 28
2 24 25 23 24 23 24 18 17 17 13 12 15 12 10 6 5 6 4 5 5 6 6 3 1 9 13 14 13 13 12 15 17 17 18 18 18 19 18 16 19 19 16 18 22 27 34 33 31
10 1 18 20 16 17 17 16 14 15 13 15 13 12 6 7 8 10 9 6 4 1 1 8 14 13 14 14 14 15 15 15 16 14 14 12 15 15 12 15 20 20 20 19 24 28 29 33 29
12 10 1 8 11 16 16 16 16 17 16 14 15 15 12 12 9 10 9 6 6 8 14 15 15 15 14 16 17 17 15 14 13 10 11 14 14 15 13 14 17 20 21 21 24 27 29 32 32
11 12 8 6 13 15 14 14 15 15 17 16 15 19 15 9 7 7 8 10 13 15 15 13 15 14 14 12 12 11 12 12 11 11 13 15 17 17 18 17 17 19 22 25 27 25 26 29 27
6 5 8 6 8 12 14 13 12 17 16 17 15 15 8 8 11 11 13 16 15 15 13 13 13 13 11 10 10 10 11 12 13 14 15 16 17 19 19 19 20 22 23 23 24 23 24 30 28
8 4 5 6 3 4 9 13 11 9 10 14 15 13 12 14 17 18 15 14 13 13 13 13 11 7 7 8 9 10 10 12 13 16 17 18 19 19 20 20 21 21 22 22 22 21 20 28 29
14 9 3 3 4 3 7 15 9 13 11 17 17 17 18 20 17 15 15 15 15 15 14 11 7 5 5 7 8 9 10 12 14 16 17 17 18 19 20 21 20 20 20 21 22 21 23 25 29
20 15 11 6 2 4 10 15 4 7 18 17 17 21 21 17 16 15 15 15 15 13 10 7 6 4 4 5 7 9 10 13 15 17 17 19 20 20 19 19 20 20 21 21 20 21 23 24 26
26 22 18 13 11 9 11 12 11 15 15 15 16 17 17 18 18 17 16 14 12 10 9 8 7 5 1 3 7 9 10 14 17 19 20 20 18 18 19 22 23 24 24 23 24 24 26 28 25
32 29 24 19 17 14 16 16 16 11 11 14 15 18 18 18 17 16 16 15 13 11 9 7 6 5 5 6 9 13 12 15 17 20 20 21 20 22 24 24 24 25 25 26 27 28 28 25 22
35 37 32 27 21 22 20 22 18 15 15 16 20 19 17 12 12 10 13 14 13 12 10 9 8 7 7 9 11 12 15 18 20 20 22 22 23 25 27 29 30 30 30 31 29 29 25 24 27
41 45 39 36 29 30 25 24 25 22 21 21 23 23 22 18 16 15 15 13 13 13 12 11 9 9 11 12 14 15 16 20 22 21 22 24 26 29 30 33 35 35 33 34 28 30 31 28 28
53 48 48 40 38 32 31 29 27 26 28 26 26 27 27 26 24 21 18 16 15 15 14 13 13 12 14 15 16 18 20 22 23 23 24 27 29 32 35 38 40 42 41 35 31 33 34 29 32
60 56 51 47 39 35 37 33 31 31 30 27 24 26 33 31 30 28 24 22 20 18 18 18 17 16 19 19 18 21 23 23 24 25 27 28 32 35 37 40 44 45 46 42 39 37 34 37 38
67 65 59 51 47 45 44 37 38 36 34 33 33 38 32 33 34 31 30 27 24 22 20 21 21 22 23 23 23 23 25 26 26 27 29 31 34 37 40 41 45 49 48 44 41 41 38 40 41
69 72 62 62 58 54 46 47 45 46 40 40 36 34 34 33 31 33 32 28 27 26 25 26 26 27 28 28 27 26 27 28 29 29 31 33 37 40 43 46 46 48 46 42 40 42 44 45 43
78 74 75 69 64 57 56 54 48 50 50 45 42 37 42 39 36 35 35 32 31 29 29 29 30 31 31 31 32 30 31 33 32 32 33 35 38 42 45 48 52 51 50 46 39 40 44 45 45
74 81 77 77 73 68 61 54 54 55 55 51 48 45 47 47 39 40 39 37 36 35 34 34 34 34 33 34 35 34 34 36 36 36 37 38 42 45 50 52 54 52 50 49 43 44 47 49 48
58 72 83 83 77 73 68 59 61 61 63 58 53 51 52 55 47 45 43 41 38 40 39 37 37 38 37 37 38 38 39 40 40 41 42 43 46 48 51 56 57 55 54 52 50 49 48 53 54

GFSSGP_250_spd_015.txt.gz
Wind_Speed
20 14 10 10 22 23 22 26 27 26 25 24 22 18 13 13 18 19 20 23 22 25 27 28 29 31 32 33 27 28 28 31 36 36 37 35 30 27 24 17 9 6 11 14 21 15 11 13 12
22 13 3 12 16 18 19 22 20 31 30 25 25 19 19 20 21 23 25 28 24 25 29 31 32 31 30 24 23 29 29 34 31 32 33 28 25 18 14 11 8 5 10 15 15 15 8 6 7
23 17 16 29 20 15 25 33 29 24 23 22 23 28 26 24 25 27 30 28 25 25 26 24 24 22 21 22 25 28 31 34 31 30 26 21 17 14 13 12 9 7 7 8 14 13 11 6 3
25 25 26 33 21 25 23 23 22 24 24 28 27 25 28 29 29 31 31 26 21 20 20 20 20 20 19 20 24 27 32 28 26 23 17 17 14 14 12 11 8 8 11 11 12 12 12 8 4
31 27 14 18 49 45 42 44 47 35 27 26 27 28 27 28 29 28 25 25 23 23 25 21 22 23 23 25 27 28 23 22 19 14 13 15 15 16 16 14 13 13 19 20 16 9 8 5 4
31 30 39 31 32 43 33 26 28 31 34 28 28 28 29 28 24 23 24 24 26 26 21 21 20 20 23 26 22 20 19 17 10 9 15 20 23 25 28 25 23 24 24 25 23 26 18 4 1
27 22 43 43 34 27 37 36 30 28 32 28 26 26 25 24 23 22 23 25 25 22 20 20 23 19 19 15 17 15 13 7 10 16 18 23 25 26 23 25 25 26 30 26 29 30 31 26 3
42 35 24 39 41 34 33 30 28 26 27 26 22 21 19 21 21 23 24 27 25 21 20 22 16 13 12 12 13 8 4 12 18 17 21 21 26 29 27 24 22 26 30 32 31 28 26 30 33
39 32 29 22 23 37 31 31 30 25 23 21 22 15 16 20 22 22 24 24 21 19 19 15 8 8 10 11 4 8 14 16 19 19 20 22 23 23 27 25 23 25 27 31 30 28 28 26 26
34 38 37 36 29 30 33 29 30 23 21 22 18 20 18 21 21 18 19 18 14 13 7 4 7 8 7 5 9 13 12 14 16 19 21 18 17 15 21 17 24 19 21 32 32 31 29 29 22
16 29 34 37 34 26 29 27 27 24 20 19 18 17 13 16 12 16 13 8 7 3 4 6 5 4 7 11 12 13 11 14 18 18 18 18 16 11 14 16 19 21 22 24 28 27 31 28 24
9 10 19 29 31 25 21 23 23 20 19 16 17 12 11 5 8 9 7 8 5 3 3 2 5 10 12 12 11 12 15 17 18 14 12 14 13 9 10 15 19 17 20 21 23 23 26 29 28
11 8 10 23 23 19 25 22 19 19 18 17 13 10 12 11 11 9 9 7 4 1 4 8 14 14 12 13 14 15 14 14 12 11 12 14 13 13 15 16 16 17 18 19 20 20 25 24 27
12 11 7 2 16 21 20 19 19 20 19 14 11 14 19 16 11 11 7 4 5 9 13 15 14 14 15 17 14 13 12 12 11 13 13 15 15 14 14 14 15 17 17 16 17 18 21 22 18
13 14 13 9 7 8 11 14 16 15 15 13 13 16 19 17 13 7 5 9 13 15 16 15 14 15 13 11 11 13 13 13 13 13 13 13 14 15 16 16 17 16 18 18 19 18 18 23 18
10 12 13 12 9 6 8 12 13 9 10 13 13 16 19 21 18 11 12 15 15 16 16 15 15 12 11 10 12 12 12 11 10 12 13 13 13 14 14 16 16 18 18 17 18 16 18 19 21
13 12 11 11 10 5 10 12 11 10 11 14 16 17 20 19 14 17 19 18 17 16 16 14 12 10 10 10 10 9 9 10 13 13 14 14 17 16 15 15 16 17 18 19 18 17 15 17 20
16 16 13 10 8 3 12 13 14 11 9 13 11 15 16 13 18 19 18 18 17 17 16 14 10 8 7 8 8 7 7 10 11 14 16 17 17 17 18 18 18 19 20 21 20 20 19 20 22
22 22 18 13 8 5 4 10 8 7 10 11 13 13 14 18 18 15 17 16 17 17 15 11 9 7 6 5 5 5 6 9 11 15 16 17 16 16 18 21 24 25 26 24 25 25 25 22 21
25 26 23 19 13 6 9 11 7 5 12 15 17 18 17 19 16 16 18 17 16 13 10 9 7 6 4 1 4 7 7 10 13 16 15 14 17 19 22 24 26 29 29 28 28 28 27 26 24
31 32 29 24 21 12 12 13 11 12 10 9 14 19 17 14 16 16 17 18 17 14 12 10 8 7 5 5 5 7 9 12 15 15 15 16 19 20 25 27 29 31 33 34 34 26 24 25 25
37 39 36 31 25 21 15 15 16 15 13 14 12 14 16 16 17 17 16 15 14 13 12 11 10 7 8 8 7 10 12 13 15 16 17 17 19 24 27 28 32 36 39 40 39 33 28 27 25
49 43 42 37 30 27 19 20 22 16 21 17 17 21 20 18 15 13 11 13 14 13 12 12 11 11 11 10 9 11 13 15 16 17 19 20 22 24 28 31 34 37 41 43 42 38 31 29 30
56 50 47 44 35 28 27 23 25 25 28 24 22 24 25 22 19 17 15 12 12 12 12 12 12 14 14 12 13 15 16 17 19 19 21 22 25 26 29 32 35 38 42 44 45 42 37 29 29
58 56 53 48 39 31 35 28 29 29 27 27 25 28 27 24 24 25 25 18 15 14 15 15 14 16 17 17 16 19 20 20 21 21 22 25 28 30 31 34 35 39 41 43 43 43 41 36 31
62 61 56 53 48 47 45 35 37 33 33 31 29 31 32 33 31 31 31 27 24 22 20 20 18 17 18 22 23 23 24 23 24 25 23 25 27 33 34 36 36 39 42 45 44 42 42 39 37
54 58 62 65 61 56 47 44 45 43 40 38 36 35 34 38 35 33 35 36 32 28 26 25 22 22 22 25 26 27 28 27 26 26 26 29 29 33 37 38 39 41 43 46 47 43 42 39 37
30 46 62 62 63 58 54 52 46 48 44 44 43 40 42 39 36 37 34 36 34 31 28 28 27 26 25 29 30 30 30 31 29 29 29 31 34 35 39 41 43 46 46 48 49 47 43 43 43
34 31 40 67 68 66 62 52 55 55 52 50 50 49 46 46 42 41 39 37 33 31 30 31 31 31 31 33 33 33 34 34 33 33 33 35 38 40 41 44 46 48 50 50 52 51 49 47 46
36 36 35 51 58 71 71 57 64 63 66 59 58 56 55 50 46 47 42 41 37 37 36 35 35 36 37 37 37 37 37 37 36 37 38 39 41 43 46 46 48 50 52 53 54 54 54 54 54

GFSSGP_250_spd_018.txt.gz
Wind_Speed
16 13 13 25 24 27 19 24 17 20 23 24 24 19 18 15 13 15 16 18 23 27 28 27 31 36 34 33 30 26 25 31 35 35 32 32 25 18 14 9 5 7 14 17 18 3 5 9 13
20 15 9 15 22 26 21 26 31 27 28 32 33 27 24 22 18 19 21 22 28 30 28 27 30 34 28 21 20 22 25 29 31 33 30 23 19 14 12 10 5 6 11 13 15 11 2 0 5
23 19 11 20 15 21 23 25 25 22 21 26 30 25 22 23 24 25 25 28 30 30 25 23 26 23 22 18 18 25 29 28 27 27 21 16 12 12 12 10 7 10 12 11 11 9 8 3 3
28 25 9 13 17 16 23 24 29 29 21 22 20 25 28 26 25 26 26 27 27 23 20 21 24 22 23 25 22 23 27 22 22 18 12 11 13 16 16 17 16 19 18 14 9 5 4 2 1
34 29 21 22 5 16 32 23 20 26 29 33 32 25 25 25 24 27 24 24 22 21 21 23 21 21 21 19 21 21 19 18 15 9 13 17 20 22 22 24 22 24 26 22 22 13 3 2 2
35 36 25 22 15 16 24 37 37 39 38 31 30 29 25 24 24 22 22 19 22 21 23 23 22 23 20 16 14 13 15 13 8 14 18 21 22 24 22 22 23 27 26 23 24 27 22 3 5
37 37 34 31 31 27 23 22 31 39 38 36 33 30 28 25 22 21 18 19 21 24 25 23 20 21 11 11 12 12 10 11 12 16 20 23 21 19 18 23 23 26 27 25 25 23 23 21 5
38 40 44 44 42 40 36 38 30 37 35 31 28 26 23 22 19 18 20 21 22 22 21 19 19 9 9 12 9 8 15 14 18 18 22 22 23 16 16 20 20 29 28 27 23 21 19 23 21
36 39 36 38 35 39 42 38 32 33 29 27 24 21 18 16 16 18 20 22 20 20 16 14 6 7 9 9 10 15 15 17 17 16 14 12 14 14 19 20 18 19 26 25 26 25 21 15 23
35 36 40 39 39 37 35 33 33 33 32 28 25 17 16 16 18 18 19 16 15 10 5 3 4 4 7 12 13 12 15 16 18 16 11 11 12 15 14 19 20 18 19 23 24 24 21 19 20
21 33 41 40 45 48 45 35 35 30 27 27 25 17 11 16 15 14 12 9 5 3 1 1 2 7 11 13 11 8 13 15 16 15 12 11 10 10 16 17 18 19 18 19 20 22 22 24 22
4 5 10 20 30 39 36 27 31 26 25 24 15 14 13 10 7 7 5 6 4 4 2 4 7 12 13 12 11 13 15 14 10 9 10 10 9 11 11 15 16 18 17 16 15 18 18 20 17
8 8 9 12 14 19 14 19 16 18 18 21 16 15 12 7 8 8 8 8 6 4 6 10 14 12 13 13 14 14 12 10 8 9 10 12 12 12 13 15 16 15 16 15 14 13 17 13 15
8 7 10 12 11 11 17 17 19 19 16 19 17 14 13 8 10 11 11 5 4 7 14 16 13 13 17 15 14 12 10 10 10 9 9 10 13 16 15 17 18 17 16 18 16 15 15 13 10
12 9 7 12 13 10 9 15 19 19 18 14 17 17 10 9 12 14 11 7 11 16 16 16 15 16 12 12 13 13 11 10 10 10 12 15 16 17 17 16 16 20 22 23 21 18 17 17 14
14 14 10 6 9 9 11 14 16 16 18 16 12 11 9 8 12 16 10 15 18 18 18 16 16 13 13 12 11 12 9 8 8 12 15 16 18 16 16 18 21 23 25 24 22 22 23 22 22
15 15 14 10 6 13 9 15 15 15 14 14 11 15 11 11 12 14 17 21 20 20 19 18 16 13 13 10 9 8 7 8 10 13 13 16 16 17 20 22 23 24 23 24 23 23 23 25 24
19 18 17 13 8 14 11 8 12 14 9 13 15 15 14 12 15 20 23 23 20 20 19 17 14 13 11 9 7 6 6 6 9 12 13 14 16 17 19 22 24 27 29 30 30 26 24 22 22
24 23 23 14 13 6 3 7 11 10 13 11 12 11 14 18 19 22 22 23 21 20 19 16 12 12 10 7 5 4 2 7 9 11 14 13 13 17 20 21 24 27 29 31 33 32 23 22 22
31 28 28 21 16 11 3 10 6 7 11 11 10 11 16 22 24 21 21 21 21 21 18 13 11 10 7 5 2 2 4 7 10 13 13 12 14 16 19 22 25 28 31 34 35 35 32 24 23
38 35 31 28 18 14 12 8 11 6 7 9 12 16 19 18 14 15 21 24 23 21 16 13 10 10 8 5 4 4 6 9 11 13 13 13 16 18 21 23 27 31 33 36 36 36 34 31 23
45 45 37 31 24 22 15 12 10 13 10 12 15 17 17 17 16 15 15 19 20 15 12 10 11 10 10 9 8 8 9 11 13 14 14 13 15 19 22 26 29 31 33 37 39 39 37 35 30
56 50 44 40 31 27 20 15 12 16 17 15 18 17 16 15 16 17 17 18 17 15 13 11 11 11 12 12 10 10 12 15 15 16 14 14 17 20 23 25 28 31 32 35 37 38 36 33 33
63 54 52 48 38 25 27 21 17 22 23 21 16 18 18 20 22 22 18 13 12 13 13 13 13 13 13 14 13 14 15 17 19 18 16 16 17 21 24 27 29 32 33 35 36 37 37 35 34
61 60 56 52 44 33 40 30 30 28 26 23 24 21 23 25 27 26 22 18 14 11 12 14 15 13 15 15 17 18 20 21 21 22 20 19 21 23 25 28 31 33 34 35 35 35 36 34 34
49 58 59 55 53 50 48 35 40 36 32 30 29 26 25 29 33 30 27 23 20 19 18 16 16 17 14 17 19 22 24 25 23 22 22 22 23 25 28 30 32 34 36 37 38 37 36 36 34
37 41 62 61 58 55 51 43 43 41 37 36 32 30 31 35 37 35 33 33 29 27 24 24 25 22 19 19 23 23 26 27 25 24 25 26 26 27 29 32 35 37 38 41 40 39 41 40 39
31 40 46 57 60 57 55 54 47 48 47 44 38 37 40 40 40 43 43 38 31 33 30 30 32 30 26 24 26 29 28 29 28 27 28 29 30 32 33 35 37 39 41 44 45 44 45 45 43
40 38 37 42 53 62 60 50 56 55 55 52 50 48 46 46 43 44 43 37 35 36 31 33 36 33 31 29 30 31 32 32 31 31 32 31 32 35 37 38 40 42 43 44 48 49 51 51 51
34 43 35 35 31 47 60 58 67 66 63 58 54 53 51 48 45 43 42 43 44 36 33 34 37 35 35 36 34 35 35 36 36 34 37 38 37 37 39 40 42 44 46 47 49 51 54 57 57

GFSSGP_250_spd_021.txt.gz
Wind_Speed
18 21 26 24 23 17 20 16 17 21 20 20 17 20 22 23 22 24 20 21 23 25 29 31 31 30 31 32 28 21 22 26 26 27 29 25 20 16 13 14 10 15 17 17 14 6 3 7 9
21 21 23 25 24 25 22 24 24 27 25 25 26 27 30 26 22 23 24 25 26 29 31 33 21 24 28 23 24 21 24 24 25 25 23 17 15 13 15 14 14 16 17 16 12 10 6 3 1
24 23 21 23 25 30 29 35 32 25 29 27 20 22 21 20 24 28 27 26 27 29 30 23 23 25 25 23 23 21 23 22 20 19 14 14 16 16 17 19 17 14 15 14 9 8 4 5 5
29 24 14 14 18 17 17 15 18 26 28 25 22 17 27 28 28 29 28 28 28 27 25 22 23 19 22 26 19 19 16 17 15 13 14 18 20 20 21 23 25 22 23 23 18 7 5 3 4
33 32 16 23 13 13 19 19 20 17 27 25 25 29 32 28 28 29 29 28 25 24 21 22 20 19 24 14 12 11 14 11 12 14 16 18 21 21 22 22 21 21 22 23 23 19 7 3 3
35 34 29 24 21 12 15 16 19 23 27 30 34 36 31 32 31 30 27 26 21 21 22 21 18 19 15 10 10 11 10 12 14 14 18 18 20 23 20 22 23 22 22 23 23 21 19 2 6
38 38 33 35 30 22 18 23 24 27 30 34 39 41 37 34 32 29 26 20 20 20 21 17 16 13 8 8 9 9 15 13 14 17 21 18 14 17 18 20 25 24 23 24 25 21 26 22 3
36 37 39 37 38 33 32 31 28 25 34 32 31 34 33 32 28 24 20 20 20 21 19 12 9 5 7 9 10 16 15 16 17 16 16 19 14 16 17 18 18 19 20 25 24 20 19 25 23
34 39 40 40 40 37 38 39 41 41 42 43 29 29 25 25 23 19 20 20 21 17 9 5 3 5 8 12 14 16 15 15 13 9 9 10 11 12 18 17 16 17 18 22 23 20 21 22 23
33 31 35 36 40 41 48 46 41 39 39 38 30 26 23 23 20 19 19 18 15 5 4 2 2 6 13 14 13 13 12 15 11 8 10 10 9 11 14 14 13 15 16 17 18 19 16 17 19
23 29 30 34 35 40 48 51 51 48 48 42 32 24 23 17 18 17 15 10 3 4 3 3 5 12 14 13 11 12 12 10 10 10 10 9 9 9 12 14 15 14 12 13 15 18 15 13 18
10 17 22 30 36 40 47 50 51 49 47 35 29 21 17 15 16 17 8 2 4 5 5 3 10 15 14 11 12 12 10 6 7 9 10 12 14 16 17 18 18 18 17 13 13 15 13 14 14
12 14 12 14 17 22 34 37 36 31 26 24 24 20 14 15 17 7 2 6 6 7 3 9 14 14 13 14 14 13 7 5 7 11 12 13 16 17 20 20 20 20 21 18 16 17 8 16 14
14 12 11 10 8 12 19 24 25 19 16 14 16 18 13 17 13 6 4 5 6 5 10 15 16 16 17 14 13 10 8 8 10 13 15 18 19 19 20 21 23 23 23 21 19 16 15 19 19
17 15 10 7 7 14 18 21 16 20 19 20 16 20 14 14 13 9 4 3 6 11 17 16 20 19 15 14 13 11 8 7 10 14 15 17 19 19 22 23 24 24 23 24 22 20 19 19 20
19 15 12 11 10 12 17 21 17 17 17 17 15 19 14 10 11 10 8 6 14 19 19 19 19 16 16 13 12 9 7 8 11 12 14 16 17 19 23 25 26 28 30 31 30 25 21 19 18
21 17 17 12 12 11 15 17 20 18 14 17 17 19 11 11 12 11 11 16 22 20 20 19 18 17 14 12 10 7 4 8 11 12 13 14 15 19 21 22 26 29 31 32 32 32 28 22 21
23 20 21 12 14 12 14 9 9 15 15 19 17 14 12 14 15 16 19 25 25 22 20 19 17 16 12 9 8 6 3 7 8 9 10 12 14 18 18 21 24 28 32 33 33 33 31 26 22
31 26 24 18 17 11 9 8 6 5 10 14 14 12 12 9 13 17 24 29 28 25 22 19 16 14 12 10 7 4 2 5 8 11 11 11 12 13 16 20 25 28 31 33 34 33 30 27 23
39 34 31 24 19 15 8 11 9 9 12 15 14 13 11 12 18 21 25 23 25 25 24 19 16 15 12 9 5 1 2 5 9 10 11 12 11 13 17 22 26 28 30 31 33 34 33 32 30
44 44 39 31 21 20 13 10 13 9 7 10 13 11 12 16 23 22 21 22 23 22 22 17 15 14 12 10 7 2 4 6 9 11 11 9 11 15 18 21 25 28 30 33 34 35 34 31 31
48 52 41 35 28 24 18 13 15 13 11 9 11 12 14 20 21 17 18 17 18 19 17 13 12 13 14 13 10 5 4 5 9 11 11 11 12 14 17 19 22 25 29 32 33 34 32 31 32
57 51 46 40 33 26 21 16 15 17 15 13 13 15 19 18 18 19 21 19 16 17 15 12 12 13 13 13 11 8 7 7 10 12 14 14 15 16 17 20 22 26 30 31 32 33 33 35 35
53 53 49 45 40 27 30 25 24 20 18 17 16 17 19 19 20 20 23 25 23 20 16 15 15 16 16 15 14 12 10 10 11 13 15 16 17 18 19 20 24 27 29 31 32 35 35 35 34
34 44 48 48 41 40 40 30 34 25 24 25 20 21 21 21 22 22 21 20 22 21 18 15 16 16 16 18 17 16 15 14 13 14 15 18 18 19 20 22 24 27 29 31 33 34 34 35 34
30 31 33 43 50 48 49 31 44 37 31 28 26 28 25 25 27 28 26 24 22 20 20 18 16 15 15 17 19 19 18 19 17 15 17 20 19 22 22 24 25 27 29 31 33 35 35 35 36
35 25 34 28 41 47 48 44 45 40 37 35 34 33 34 28 32 33 30 31 28 26 22 21 22 21 20 19 21 24 23 21 22 19 20 22 23 23 24 27 27 29 31 33 35 36 38 39 40
32 38 29 25 25 38 51 49 51 47 46 45 40 35 36 33 35 38 38 37 32 29 27 28 29 29 28 27 27 27 28 27 25 24 25 26 26 26 26 29 30 31 34 36 38 39 41 44 44
36 35 32 29 24 23 33 48 60 56 54 49 45 42 40 40 41 40 41 42 38 35 35 36 36 36 36 32 30 33 31 31 30 28 29 30 30 31 30 31 33 34 35 38 43 45 46 48 52
39 33 30 22 28 25 21 37 59 65 59 54 49 50 50 47 46 43 43 43 40 46 40 41 43 39 39 38 32 35 34 34 34 35 33 34 34 36 34 34 37 38 41 44 46 50 53 57 60

GFSSGP_250_spd_024.txt.gz
Wind_Speed
21 27 24 28 21 17 16 14 16 23 20 23 25 23 22 25 23 29 25 25 25 25 27 27 25 24 28 29 31 28 25 23 25 22 18 15 16 18 18 18 17 18 16 11 7 6 3 5 9
20 27 24 30 29 25 20 21 20 23 22 23 25 27 25 23 26 25 23 26 26 26 25 23 14 24 25 27 26 24 18 19 17 14 13 17 21 22 23 22 21 23 22 17 3 3 3 2 3
24 25 30 28 29 29 25 24 23 27 31 30 26 31 27 22 22 29 31 28 27 28 26 23 18 22 23 21 20 14 15 13 11 12 14 21 21 22 21 22 22 24 23 22 13 2 3 1 5
28 25 29 34 32 30 28 27 27 22 17 20 24 22 20 23 27 31 30 30 31 27 24 15 20 20 17 17 12 11 10 9 14 12 21 19 21 21 21 25 28 28 28 26 20 11 2 2 0
33 31 33 34 32 30 26 22 20 16 14 17 22 23 26 28 34 37 35 30 29 25 18 19 19 16 14 9 10 8 8 13 13 17 18 21 20 19 23 26 27 26 29 28 25 24 9 1 3
32 35 33 33 36 33 29 20 17 15 16 21 22 26 30 33 38 37 34 32 26 18 19 20 15 11 9 8 6 8 14 14 16 15 13 15 17 17 21 22 23 24 27 27 26 25 24 7 0
38 36 36 29 27 30 24 23 21 22 22 23 23 26 31 32 32 33 30 27 21 18 20 17 9 7 7 3 7 14 14 15 18 16 15 11 14 19 22 21 23 21 24 27 27 26 29 29 16
39 38 35 37 30 28 26 21 24 25 25 24 26 37 37 30 28 27 26 21 17 19 16 6 5 5 2 7 14 14 15 15 12 13 11 9 12 19 22 21 20 20 21 25 26 26 26 29 27
37 39 37 36 37 36 36 38 38 36 35 39 42 44 32 28 28 25 21 17 18 16 6 5 5 1 8 14 14 12 12 10 8 9 10 10 14 19 21 19 19 19 19 21 22 19 22 24 24
34 37 36 39 39 38 38 40 41 43 45 48 43 40 42 39 29 22 15 15 15 4 4 4 2 6 13 14 12 11 11 10 9 12 13 15 18 19 20 20 19 17 17 19 19 15 19 19 24
22 29 33 35 34 36 40 42 44 44 45 46 49 53 47 37 27 15 13 14 4 2 4 2 4 10 12 13 12 11 10 7 11 13 15 19 20 20 21 21 20 20 16 15 16 13 14 17 18
9 15 23 32 37 35 36 38 41 44 47 51 52 35 29 27 19 10 12 6 3 2 2 2 9 12 11 12 12 10 7 7 14 18 18 19 20 21 21 21 20 20 19 16 14 12 10 18 19
11 11 11 17 21 22 25 27 29 32 34 31 19 17 13 18 14 8 8 3 4 3 1 9 14 12 13 14 13 10 7 13 16 17 19 19 21 21 22 22 23 21 23 20 17 13 10 12 12
16 13 10 17 20 18 18 16 19 21 22 22 12 10 11 17 14 10 8 5 4 4 6 15 15 15 16 14 12 10 13 15 15 16 19 20 22 23 24 26 27 27 28 29 23 16 16 15 15
19 15 12 16 20 20 16 16 20 18 16 11 12 11 11 15 14 12 10 4 6 8 15 16 20 19 17 13 12 12 13 13 14 16 17 20 20 22 24 24 27 29 29 29 31 26 20 19 17
24 19 13 12 16 19 17 18 19 16 16 9 15 13 13 13 13 12 9 5 8 16 20 20 20 18 16 12 11 11 11 12 13 14 16 18 17 18 20 22 26 29 30 30 30 28 27 22 20
29 22 18 17 17 17 15 16 16 14 14 5 10 12 11 13 14 10 9 9 14 22 23 22 18 17 16 12 11 10 10 10 11 11 14 15 14 17 18 23 25 27 30 32 32 32 31 32 25
31 25 22 20 20 16 14 13 13 10 14 3 7 9 11 16 16 8 9 11 21 24 25 21 18 16 14 12 9 9 6 8 10 10 11 11 12 17 20 23 25 28 30 31 32 32 32 32 33
37 32 28 24 23 19 15 12 9 11 9 2 9 13 16 14 14 10 12 20 25 26 25 23 20 16 13 10 8 6 5 7 8 9 9 10 13 17 20 22 25 28 30 32 32 32 32 32 31
42 39 38 30 26 20 17 14 9 11 11 6 9 10 15 12 12 11 15 24 25 25 24 22 20 17 14 10 7 6 5 4 7 8 9 10 12 15 18 20 23 26 27 29 29 30 31 31 31
47 48 43 36 28 23 18 18 12 9 12 13 13 11 15 12 12 16 20 28 25 23 23 19 17 15 13 10 6 4 3 2 5 7 10 11 12 14 14 16 19 22 25 26 26 28 31 32 30
52 56 43 37 33 29 20 21 17 13 13 17 10 8 11 15 14 18 25 25 25 22 20 17 17 15 14 11 7 4 2 1 5 8 10 11 11 12 14 16 18 21 23 23 24 27 30 30 30
50 53 48 38 34 31 27 26 24 21 14 16 12 10 12 18 21 22 25 25 23 21 21 18 16 16 13 11 8 7 5 3 5 8 9 9 11 11 13 14 18 21 21 22 23 23 26 28 30
36 43 45 45 38 29 37 32 28 27 18 18 15 15 20 24 22 20 22 24 27 30 30 23 19 17 14 11 10 10 10 9 8 8 11 11 11 12 13 14 16 18 20 22 25 26 28 29 31
31 31 34 38 40 46 42 33 36 31 26 22 18 17 21 23 21 21 23 22 24 25 26 22 19 17 15 14 13 12 12 12 13 13 14 14 13 13 14 13 16 18 21 23 25 27 28 31 34
31 15 20 32 43 47 40 39 43 35 29 26 24 20 19 22 22 24 25 27 26 26 25 21 17 14 15 15 14 14 14 14 14 15 18 19 18 16 16 18 18 20 22 24 27 30 31 34 36
31 21 22 17 24 37 42 49 43 40 34 31 30 29 28 27 25 25 27 29 29 28 22 18 17 15 15 15 18 17 17 16 18 17 19 21 24 22 20 20 21 23 24 26 29 33 33 35 39
29 30 18 15 13 20 38 48 51 47 43 40 36 35 34 32 30 29 31 32 31 27 24 24 21 20 21 21 22 23 24 22 19 21 21 24 25 27 27 26 26 27 27 28 31 35 36 38 42
34 31 27 22 21 21 24 31 43 52 51 46 42 40 37 34 33 33 32 32 33 31 31 28 28 27 27 27 29 31 32 32 26 22 23 27 29 28 31 33 32 32 32 33 36 39 40 41 44
40 36 26 20 23 22 21 27 26 39 53 50 47 46 43 40 38 37 35 33 33 37 38 38 37 36 35 36 37 37 37 35 34 27 27 31 33 33 34 36 38 38 37 38 41 43 45 46 49

GFSSGP_250_spd_027.txt.gz
Wind_Speed
19 21 23 24 22 21 17 16 20 22 23 21 16 21 25 24 23 22 24 24 24 27 28 26 27 28 26 27 29 27 14 14 15 14 16 17 21 25 26 25 23 23 17 4 3 4 4 7 10
18 23 28 28 22 21 20 20 19 21 20 21 21 27 25 26 26 21 23 27 30 31 28 30 25 21 23 25 23 11 11 12 10 14 16 18 20 24 26 25 28 26 22 14 3 2 5 2 4
22 22 30 29 30 24 24 25 21 20 19 21 26 18 19 16 16 24 29 29 34 33 31 27 22 19 23 19 10 11 11 9 14 15 16 18 18 22 25 25 26 27 27 21 12 2 3 3 2
27 24 29 32 30 34 28 23 23 23 23 25 16 15 19 18 24 28 32 37 34 30 27 23 18 18 17 9 10 10 8 12 16 16 17 16 18 21 26 25 25 29 29 25 20 9 5 4 3
30 30 30 29 31 33 33 30 29 28 28 19 14 16 15 21 27 30 35 31 29 27 22 18 19 16 9 8 9 7 12 13 15 13 15 16 18 25 26 25 25 30 31 27 28 26 9 4 7
34 32 31 29 29 32 31 32 31 29 26 20 17 21 18 21 29 33 29 28 28 24 19 19 17 10 8 9 7 12 12 14 11 12 12 12 18 25 25 26 24 27 30 30 31 33 28 14 6
39 35 33 31 31 33 32 33 32 30 27 22 22 22 21 26 28 26 28 27 25 18 19 16 8 5 8 5 14 12 14 13 11 12 13 14 20 22 22 25 25 25 29 27 27 30 31 28 22
40 37 33 37 36 35 36 38 36 32 27 26 28 29 31 33 40 36 35 30 20 16 15 8 4 8 6 13 13 11 10 11 12 15 16 17 17 20 21 23 23 24 25 25 21 26 30 29 25
31 38 38 35 35 37 39 37 32 32 33 36 38 39 39 40 42 36 36 29 15 14 7 3 6 7 13 13 13 9 10 10 12 15 15 17 18 19 21 20 19 18 20 20 17 21 23 23 24
34 34 37 37 38 38 37 39 38 38 41 44 42 43 44 46 40 40 36 25 10 5 3 3 7 10 12 13 11 10 11 12 14 15 17 17 20 21 20 21 19 16 14 15 14 14 21 21 17
24 32 35 36 38 39 40 38 40 40 42 43 44 46 44 44 28 22 22 14 6 5 2 3 10 12 10 13 12 10 9 13 15 15 16 19 20 22 22 20 20 18 14 11 11 7 10 15 16
14 19 25 31 34 33 34 33 34 35 35 36 40 43 38 14 14 16 11 6 7 6 1 4 13 12 10 15 13 11 13 14 17 17 18 20 23 25 26 26 27 27 22 14 13 13 13 14 14
17 16 15 14 15 19 24 24 21 20 23 26 26 20 12 13 11 8 8 9 7 6 3 9 13 12 14 16 15 16 15 15 16 18 20 22 23 25 27 28 27 27 27 25 19 13 13 12 14
22 22 20 18 14 12 17 14 16 20 23 17 14 9 12 10 8 10 12 9 5 6 8 14 15 14 16 16 17 17 16 15 16 18 19 21 23 24 26 29 29 28 28 29 30 24 18 18 18
24 23 24 24 18 15 17 14 16 16 13 8 7 9 5 7 9 12 13 7 5 8 14 17 16 19 16 17 18 17 15 16 16 17 17 19 20 21 24 26 27 29 30 30 30 32 28 23 23
28 26 26 25 22 19 17 14 14 12 12 8 7 10 8 8 10 13 12 6 4 10 20 19 21 18 17 17 17 15 14 14 15 15 15 16 17 20 22 24 25 27 29 30 30 30 29 29 25
34 28 25 28 24 19 15 12 13 10 13 4 4 13 10 11 12 13 14 8 5 16 22 24 21 17 17 17 16 14 12 11 12 12 12 15 16 18 20 23 24 27 29 29 29 31 29 28 28
37 31 26 28 25 20 15 13 12 8 11 6 5 11 12 12 13 14 17 12 8 22 24 25 21 18 16 16 15 12 11 9 11 11 11 13 14 16 19 21 23 25 27 28 29 31 31 31 31
39 36 33 32 30 21 18 13 10 9 5 8 4 9 11 12 9 15 16 13 17 25 25 24 23 20 17 15 13 10 8 8 10 11 10 11 13 15 18 20 21 24 26 27 28 29 30 30 29
44 40 40 37 36 27 19 15 12 11 7 4 5 8 12 12 11 14 19 15 21 26 25 23 22 19 16 15 12 10 8 7 8 8 8 8 9 10 13 15 18 22 23 23 24 27 28 28 30
51 49 45 42 38 33 23 18 17 14 12 10 6 8 10 11 9 16 22 21 25 24 23 21 20 19 16 15 12 9 7 4 5 6 8 7 7 9 10 12 15 18 19 19 21 21 22 25 27
47 54 47 41 38 36 28 24 21 18 16 15 11 8 15 15 10 17 23 27 28 28 24 21 19 17 14 12 8 7 5 3 4 4 5 6 6 7 9 11 13 14 15 16 18 19 21 23 25
46 45 46 44 37 36 35 31 29 21 21 16 14 11 15 20 17 20 25 29 31 28 25 22 20 18 15 13 10 9 8 6 2 1 2 3 6 8 9 10 10 11 12 15 16 16 18 20 22
33 39 42 44 43 35 45 42 33 32 23 21 15 13 17 23 22 24 29 31 30 29 27 28 23 20 18 16 15 12 11 10 7 6 7 7 6 8 10 11 12 12 12 14 16 18 19 21 25
29 29 31 36 42 55 51 43 45 35 27 24 17 14 16 24 27 25 25 28 26 25 23 25 21 18 17 16 15 14 14 13 11 9 9 10 11 9 10 11 13 16 17 17 18 20 22 24 27
27 17 23 28 38 49 48 50 47 40 31 27 23 17 18 25 28 27 26 29 29 29 28 25 22 18 17 17 17 16 16 14 14 11 12 13 14 12 12 15 15 17 21 23 24 24 26 28 30
35 29 25 21 23 36 48 56 49 43 35 31 27 22 26 29 29 27 27 27 26 26 26 27 25 23 21 21 20 16 14 12 13 14 14 15 18 19 15 18 20 21 22 25 27 28 28 30 33
39 35 23 18 20 25 36 47 56 50 45 38 32 31 31 31 29 27 27 28 29 29 28 28 26 23 22 21 19 17 16 15 15 18 19 18 19 22 22 21 24 24 25 27 28 30 32 33 36
43 38 34 32 25 24 25 34 46 52 48 45 40 38 35 34 33 29 28 28 30 30 32 30 30 28 28 27 24 23 23 23 22 22 23 25 27 24 25 25 27 28 29 31 33 33 35 37 40
47 42 35 31 34 31 26 25 29 37 50 50 47 43 38 36 36 36 34 32 30 32 36 36 35 36 35 33 33 30 31 31 32 33 32 30 31 29 27 27 30 31 34 36 37 37 38 40 42

GFSSGP_250_spd_030.txt.gz
Wind_Speed
17 16 17 21 21 27 21 17 18 15 17 17 21 19 19 26 22 21 18 20 28 27 27 31 29 30 29 25 28 21 9 11 12 15 16 15 22 26 23 24 23 18 12 6 7 9 8 9 12
18 20 17 21 24 22 23 23 24 24 24 23 23 22 23 18 16 15 22 27 30 35 30 24 27 26 23 25 21 11 11 10 13 14 15 18 22 25 24 25 26 22 16 9 7 7 8 7 8
18 21 21 24 25 25 21 22 22 25 22 22 23 21 16 15 13 19 25 28 30 32 29 25 22 19 21 20 9 9 8 11 11 14 17 17 23 25 25 25 28 25 23 15 7 7 8 7 4
23 22 23 27 29 25 23 27 20 24 21 23 23 25 24 18 14 19 27 29 28 29 25 23 20 19 18 10 8 8 10 11 11 13 16 17 23 24 23 24 30 26 28 29 14 6 8 7 2
26 25 23 27 31 33 33 31 29 25 26 27 27 26 27 21 18 20 23 28 33 33 26 21 20 16 9 7 7 10 11 9 11 16 16 18 21 23 24 24 28 26 29 32 31 16 8 7 8
29 29 30 30 31 35 35 33 33 33 33 30 30 25 21 19 21 24 31 31 33 33 24 20 16 8 5 6 11 13 12 12 13 16 15 17 19 21 23 23 26 29 28 32 33 32 25 20 14
35 35 37 34 34 36 33 32 32 33 34 33 26 26 28 28 28 31 35 37 32 33 21 15 8 4 6 11 11 13 12 14 15 15 16 16 18 19 21 21 22 25 25 26 28 29 28 25 19
39 40 39 38 39 38 36 34 34 34 34 34 36 33 33 33 36 37 39 40 33 31 19 8 5 3 10 10 11 12 13 13 12 11 13 15 16 17 20 21 20 20 20 19 24 23 21 23 24
33 37 39 42 41 40 38 36 37 38 39 40 38 38 39 40 39 39 40 42 32 22 12 4 0 6 11 11 11 12 12 11 11 12 14 15 16 16 19 20 18 17 16 15 14 19 20 16 15
32 34 33 36 40 39 39 37 38 39 39 39 40 41 43 43 44 43 43 36 20 11 5 1 5 12 12 12 13 13 11 11 10 13 15 16 17 19 20 21 17 15 15 13 11 12 18 18 17
23 25 32 35 35 35 39 38 37 36 37 38 40 40 41 41 41 40 28 16 9 6 3 4 10 12 9 13 13 10 10 11 13 15 18 21 22 22 22 23 24 20 15 14 13 11 11 16 17
12 14 21 26 30 32 34 36 37 37 35 36 38 41 41 37 31 18 12 8 6 7 5 8 14 11 13 15 11 10 11 15 17 19 21 22 23 24 26 27 27 28 23 18 19 21 17 17 14
17 15 13 14 15 19 22 26 28 29 32 31 30 31 31 14 13 12 11 7 8 8 6 12 15 12 16 14 12 11 13 16 18 21 22 25 25 27 28 30 30 30 30 29 26 25 24 23 20
20 19 17 16 13 14 11 12 16 18 18 23 25 27 15 9 10 12 12 10 8 10 9 16 16 15 19 17 14 14 15 16 18 21 20 22 23 26 28 31 31 31 31 31 32 27 25 23 24
26 22 20 18 17 18 14 14 18 17 18 17 20 14 8 11 13 14 11 10 7 11 15 18 17 21 20 19 16 15 16 17 16 17 19 22 23 25 24 29 30 29 30 29 29 29 29 29 29
31 29 25 22 19 19 17 16 18 13 13 13 15 10 12 13 14 13 13 9 9 12 17 19 18 22 22 19 17 16 16 16 16 17 17 19 22 23 23 27 28 29 28 29 28 28 30 30 30
36 33 29 26 23 19 18 16 17 11 8 10 10 10 11 15 14 13 14 11 11 14 21 21 22 23 22 20 17 15 14 13 14 15 16 17 19 21 24 25 26 27 27 28 30 29 28 28 27
39 33 31 31 28 21 20 18 16 11 8 7 6 12 14 16 15 15 13 14 12 16 24 23 24 24 22 20 17 15 13 12 14 15 13 15 17 18 22 21 23 23 25 26 27 27 27 29 27
39 37 34 34 33 28 20 19 17 12 11 5 7 11 16 17 18 16 14 18 13 17 23 25 23 24 22 19 17 15 12 12 13 13 13 13 14 15 17 18 18 19 20 18 19 23 26 28 28
43 43 41 40 37 33 26 20 18 16 12 9 6 10 16 19 21 20 14 15 16 22 23 25 24 22 21 18 16 14 11 10 10 11 11 11 9 10 13 13 13 14 15 17 17 17 20 23 24
45 47 50 47 41 35 29 25 21 20 16 13 8 9 15 18 20 20 17 19 20 26 25 24 23 22 20 15 13 12 10 8 8 9 9 8 7 8 9 8 9 10 12 13 13 14 16 18 22
41 47 46 47 45 39 33 31 27 24 20 14 12 9 17 18 19 20 18 21 23 28 28 26 24 21 18 15 11 10 8 6 6 7 7 6 6 7 5 4 5 7 10 11 13 14 17 19 21
38 36 37 42 45 46 35 34 37 30 24 19 16 15 14 22 22 25 18 28 29 32 30 28 25 22 20 19 14 11 9 7 5 4 3 4 4 5 4 4 5 7 9 10 13 15 17 19 19
31 33 35 37 44 45 46 44 39 38 32 22 21 17 14 18 20 26 24 33 35 33 34 32 29 27 24 20 17 14 12 11 9 7 4 2 1 2 3 5 6 7 9 12 14 16 18 20 22
32 29 31 34 38 49 58 49 50 44 33 30 24 19 13 17 19 26 28 35 36 35 32 29 27 24 21 19 15 14 14 13 14 13 10 8 6 6 5 6 8 12 14 15 17 18 20 21 24
36 30 29 32 38 49 49 49 54 45 37 32 25 22 17 19 21 26 29 35 35 35 32 29 25 21 18 18 17 18 18 16 16 15 14 13 11 10 9 8 10 11 12 14 17 20 21 22 25
38 28 35 27 28 37 45 52 52 44 38 34 32 26 23 20 25 31 33 36 35 35 33 30 28 27 24 21 21 20 18 17 16 15 14 15 16 17 15 14 14 14 16 16 19 23 25 26 27
40 41 26 20 23 29 39 49 52 51 46 39 35 32 29 25 26 34 34 34 36 35 35 33 31 31 26 24 22 22 21 17 16 15 13 13 16 20 22 22 20 20 19 20 22 26 27 30 31
48 41 40 34 28 32 34 39 45 47 50 44 43 40 35 30 30 36 35 33 32 32 34 34 36 35 33 30 27 27 25 21 20 18 17 18 21 23 25 25 25 27 27 25 26 29 30 32 34
56 54 50 41 36 37 30 29 30 40 48 51 47 45 39 35 31 35 36 32 30 36 37 38 38 39 37 34 31 29 30 28 25 25 26 29 30 30 28 27 26 29 30 30 31 33 34 35 38

GFSSGP_250_spd_033.txt.gz
Wind_Speed
17 15 14 15 15 15 17 19 9 8 12 14 17 17 22 24 23 15 17 22 25 27 20 33 29 31 28 25 27 17 11 6 10 11 13 20 20 18 20 17 15 11 6 9 9 9 8 12 13
15 14 11 12 18 23 24 23 23 23 21 22 23 23 23 24 17 14 15 21 25 30 32 34 28 24 23 24 21 11 3 6 10 13 15 20 19 19 22 19 19 14 9 9 9 9 7 9 7
15 15 15 14 21 24 24 25 25 24 22 25 24 21 24 26 20 24 18 22 27 34 37 35 26 24 23 18 11 3 5 7 10 15 16 19 18 18 20 20 22 19 17 12 9 8 7 3 1
18 18 18 23 23 25 28 27 26 24 26 25 24 24 26 27 28 26 21 25 30 36 38 33 28 25 16 10 5 6 8 9 13 14 17 18 17 18 21 20 26 26 26 19 12 10 7 6 4
22 20 21 29 28 27 27 27 24 28 27 26 27 26 29 29 25 21 24 30 36 37 37 33 28 16 10 5 5 7 8 11 12 14 16 17 16 17 20 23 23 30 33 29 20 13 9 8 8
26 23 27 31 30 32 34 36 37 35 35 33 34 32 30 29 25 26 29 32 37 39 36 33 22 14 6 6 6 10 10 10 12 14 16 16 17 16 18 20 20 23 26 29 28 23 20 19 17
31 31 38 34 35 35 36 37 33 37 36 33 33 33 30 32 30 33 36 37 37 36 33 29 14 10 4 7 10 8 9 10 11 14 15 17 18 19 17 17 20 19 23 23 22 22 22 21 22
37 37 38 38 39 40 39 38 38 38 32 31 33 33 35 38 39 38 39 41 36 36 29 19 8 2 8 6 9 7 8 10 13 14 15 15 18 20 20 18 16 15 17 20 22 20 19 17 20
40 40 43 44 43 43 40 41 40 38 36 35 38 39 39 39 39 41 41 39 36 33 19 7 5 5 8 8 7 6 8 11 13 15 16 16 18 19 20 18 17 17 16 17 18 20 20 19 19
34 28 34 40 42 43 44 43 41 40 38 38 38 38 41 40 41 42 40 38 33 18 10 4 5 10 9 10 8 6 10 10 13 15 18 16 18 20 23 22 19 19 22 22 21 21 19 22 20
26 29 39 38 38 37 38 38 40 40 40 40 41 42 40 41 41 43 42 32 17 9 5 5 9 11 10 11 7 7 10 13 16 17 20 19 22 24 23 27 25 23 23 25 36 27 22 22 23
13 17 28 27 28 31 33 35 35 38 39 40 39 40 38 41 43 38 30 13 9 9 6 7 12 12 11 10 8 10 14 17 16 18 22 24 26 28 27 27 32 31 30 29 30 19 23 24 24
15 16 16 17 15 18 23 27 31 31 33 32 31 34 35 36 35 23 12 11 11 8 8 12 13 12 14 10 10 13 17 19 18 19 23 25 28 28 28 29 32 35 36 33 31 30 28 27 27
20 18 16 17 16 15 14 14 14 15 16 20 22 25 26 27 18 13 12 13 12 9 10 16 15 15 15 12 12 14 18 18 17 18 21 24 26 29 30 30 33 33 34 34 35 36 34 33 33
28 24 20 18 16 17 17 16 14 15 18 23 20 20 22 14 11 12 15 14 10 10 13 18 16 18 17 15 15 17 19 16 18 21 23 24 25 28 30 30 33 34 32 30 32 32 33 35 35
31 27 27 21 20 18 17 16 18 18 19 20 19 18 19 11 13 16 16 13 9 12 17 20 16 21 18 17 16 17 17 15 15 20 21 24 25 25 28 30 30 33 32 32 30 29 31 31 29
36 33 31 25 23 20 19 18 17 18 18 18 17 16 16 15 16 18 16 13 12 15 21 22 19 22 20 18 16 16 15 14 16 18 19 21 23 23 25 26 26 29 32 33 32 32 32 31 25
39 40 34 29 27 23 21 20 18 18 17 16 15 13 13 17 20 19 16 14 11 18 24 25 22 23 21 18 16 14 14 13 15 16 17 17 19 21 22 23 22 23 25 27 27 26 29 32 32
41 39 36 32 28 27 25 22 19 19 18 15 12 11 11 18 21 19 17 16 10 19 24 24 25 24 21 19 16 13 12 12 12 14 14 14 14 16 18 19 20 20 20 21 21 21 23 26 27
44 42 41 39 35 34 29 26 22 19 20 14 11 13 11 17 22 20 20 17 14 18 24 22 24 25 22 18 16 14 12 11 10 10 11 10 10 12 14 15 17 15 16 15 16 18 22 24 24
44 45 45 46 45 42 33 29 28 22 18 15 14 14 12 16 21 22 23 19 19 21 25 24 23 24 21 18 16 13 12 10 9 8 7 8 8 8 9 11 12 12 12 13 16 18 19 19 21
44 48 48 46 44 43 40 35 31 26 23 18 18 15 9 16 21 24 23 24 19 23 26 26 25 24 22 18 16 14 11 8 6 6 5 6 7 5 4 7 8 7 9 11 13 16 17 18 19
45 40 40 42 42 45 42 37 37 36 31 25 22 20 17 11 18 22 20 25 24 29 29 28 26 26 23 19 17 14 11 9 6 5 5 4 5 4 4 4 5 8 9 11 13 13 13 15 17
42 39 40 40 40 37 39 43 44 40 40 30 25 25 20 17 15 22 22 27 29 33 33 33 29 29 27 24 18 14 11 8 6 4 4 2 1 1 3 4 5 7 10 11 11 12 14 15 16
43 39 38 34 34 38 47 52 53 48 44 36 32 27 23 19 17 20 26 21 31 35 37 35 32 30 28 24 19 15 12 11 10 9 7 6 6 5 4 4 5 6 8 10 11 12 14 16 18
45 42 38 36 36 42 48 37 53 54 48 41 36 32 25 24 21 22 24 30 34 36 36 32 30 29 27 24 21 19 18 16 15 13 12 13 11 9 9 8 10 9 10 10 12 14 15 17 19
47 37 43 39 36 37 35 43 50 49 49 43 40 35 30 28 24 24 27 31 34 41 39 36 32 29 26 25 26 26 23 20 17 16 16 15 13 12 10 11 14 15 15 16 18 20 20 21 22
43 49 36 32 30 35 36 41 47 45 49 45 42 37 36 31 28 24 30 32 37 43 40 38 35 32 30 30 29 25 24 22 19 18 16 14 14 15 13 14 17 18 19 18 20 24 25 26 29
52 41 33 34 32 36 37 42 39 41 46 50 45 44 41 36 32 27 29 32 37 40 40 41 40 38 36 33 30 28 27 25 22 20 18 16 17 19 20 22 20 23 23 23 23 26 29 30 32
60 53 48 43 39 38 42 36 32 35 41 49 52 47 44 40 35 29 28 31 34 39 40 40 40 40 37 36 36 32 29 27 24 23 22 20 21 25 24 20 23 27 28 27 25 27 31 33 35

GFSSGP_250_spd_036.txt.gz
Wind_Speed
13 16 13 12 9 10 6 8 4 2 9 7 13 15 20 25 23 24 16 17 23 27 35 37 41 37 29 27 24 13 7 6 10 14 16 17 15 15 13 13 9 10 13 13 10 10 11 11 10
12 12 10 7 9 17 13 20 20 19 19 19 23 27 26 26 23 28 21 21 25 30 37 39 39 41 30 22 13 10 5 7 14 15 17 17 16 16 15 15 7 10 12 12 9 7 7 6 5
12 9 11 11 18 12 21 25 28 26 28 28 25 27 28 25 25 27 25 23 26 32 38 41 39 41 24 14 11 8 6 8 13 13 16 15 15 17 16 18 13 12 12 10 6 5 3 1 3
12 12 12 12 19 22 23 24 29 26 29 31 28 26 26 27 28 26 22 23 31 36 39 39 38 36 20 11 6 7 5 10 12 15 15 13 14 19 21 25 23 19 16 12 9 8 5 4 4
12 12 16 20 24 22 24 27 31 31 30 30 35 32 36 35 31 31 28 30 35 37 37 38 36 27 15 6 7 6 6 10 14 15 15 15 14 18 18 21 27 26 23 17 12 9 11 11 11
16 12 23 24 27 23 27 28 30 30 36 37 35 36 38 34 31 31 33 38 35 38 36 35 32 18 7 6 8 4 7 12 16 19 19 19 19 17 18 20 22 23 24 23 21 18 19 21 20
18 7 14 28 40 34 31 30 33 34 36 41 40 36 35 33 32 36 39 36 37 37 35 32 26 10 2 6 5 3 9 14 19 19 21 24 24 19 19 19 20 23 22 20 19 18 19 22 23
23 15 18 18 25 30 33 36 39 41 40 38 38 37 37 37 38 40 39 39 37 37 35 24 12 5 4 6 2 5 11 17 15 16 24 27 27 23 20 20 19 21 21 21 23 23 19 20 22
34 41 33 46 44 41 42 42 43 41 40 40 39 39 39 41 41 41 42 39 38 35 27 15 5 2 4 4 1 7 13 14 17 20 22 28 26 23 22 24 22 23 27 28 24 24 23 22 24
42 44 48 46 45 47 46 47 46 43 42 42 41 41 42 42 44 43 39 38 39 31 12 5 1 6 5 3 3 8 14 15 21 24 23 29 26 25 22 23 24 22 19 22 26 25 23 25 24
43 43 45 45 34 37 34 39 39 40 42 41 41 42 45 46 44 42 39 39 30 14 5 4 5 7 5 3 5 9 16 16 23 21 16 21 14 22 28 30 27 28 27 23 21 28 26 23 24
21 28 36 37 36 38 39 38 36 38 37 36 38 38 38 38 39 35 38 31 12 7 8 5 10 10 6 4 8 13 18 20 28 31 30 19 16 20 27 37 35 33 31 29 30 33 30 29 26
17 18 18 25 29 27 23 25 19 30 33 33 34 33 30 27 31 33 26 11 9 11 10 9 12 10 8 6 11 16 19 21 29 27 28 27 22 26 32 35 34 37 35 33 34 34 35 36 39
21 20 19 21 21 19 15 15 18 18 16 16 17 19 22 25 28 26 13 10 12 14 11 14 13 12 9 9 14 17 20 21 23 27 29 29 29 29 31 31 33 34 33 33 33 32 35 39 42
27 26 24 21 19 18 17 16 16 17 17 16 17 22 26 26 25 10 11 13 16 14 13 18 15 14 11 12 15 19 17 19 23 24 28 29 30 32 33 32 29 28 28 28 27 27 31 33 34
32 30 27 25 23 19 19 17 18 16 16 18 19 21 24 22 14 7 11 15 13 13 14 21 17 16 13 14 17 17 16 19 21 21 23 28 28 30 32 33 31 31 31 33 33 28 25 24 26
36 35 31 28 27 24 23 19 19 17 16 15 16 18 20 18 9 10 12 16 13 15 16 22 18 17 16 16 16 16 16 18 20 21 21 23 22 24 26 26 26 26 26 27 31 30 30 32 30
43 40 35 34 31 28 27 23 23 18 17 16 16 17 16 14 9 15 14 15 11 14 20 23 20 19 18 17 16 14 15 16 17 18 19 18 19 19 22 19 21 21 22 22 25 26 26 29 34
44 41 39 39 34 31 30 28 25 21 12 20 15 16 13 12 12 20 16 16 13 16 21 23 22 20 19 18 16 14 12 14 14 15 15 15 15 14 17 18 18 18 19 19 20 22 24 25 27
44 45 43 42 38 35 33 32 27 23 21 17 15 13 10 11 14 21 18 17 13 14 23 22 22 22 21 17 15 13 13 13 13 11 11 11 13 13 12 15 14 16 16 16 17 18 20 21 23
47 48 48 49 46 43 40 37 30 28 24 20 16 13 9 9 15 21 20 18 20 16 23 24 23 23 21 18 15 13 12 12 11 9 8 9 10 10 10 10 11 11 13 14 14 15 16 17 20
51 51 51 49 50 46 48 42 35 31 27 25 21 16 12 7 15 20 22 17 20 17 28 26 26 25 22 18 16 14 13 10 9 8 8 7 8 8 7 6 7 8 10 11 12 12 14 15 17
55 55 48 45 45 46 44 41 41 37 33 34 26 20 16 11 11 20 23 20 21 22 29 30 27 26 24 21 17 15 12 10 10 9 8 8 7 7 7 7 6 8 10 10 11 13 14 14 14
56 50 43 42 41 39 41 43 43 43 40 42 31 25 21 16 14 16 23 25 24 24 31 34 33 29 27 25 21 18 15 12 10 9 7 6 4 3 3 4 4 6 7 8 10 12 15 16 16
52 46 44 40 40 39 48 45 47 52 49 45 36 31 25 21 18 20 23 28 26 27 30 37 35 32 30 27 23 20 17 15 12 9 7 6 5 3 2 2 3 5 7 10 11 14 16 18 19
53 50 44 43 44 47 48 41 51 56 54 49 41 36 30 26 24 22 23 27 27 26 30 36 36 33 31 28 24 21 18 17 15 14 14 12 9 7 6 5 6 8 9 10 12 13 14 16 18
52 45 49 50 47 44 44 44 48 49 52 50 44 41 36 33 28 25 21 23 30 28 35 39 38 33 33 31 29 25 24 21 18 17 14 13 12 11 10 9 9 10 11 13 14 14 16 17 20
54 57 55 46 45 40 43 41 47 45 48 49 50 44 41 39 33 27 24 23 30 32 37 42 41 37 34 30 31 33 28 24 23 20 18 17 16 14 10 10 12 11 12 17 19 21 21 21 23
56 54 47 46 42 43 46 45 46 42 43 45 48 48 46 44 38 32 27 24 25 31 37 45 45 41 38 38 36 33 31 30 26 22 21 20 19 15 12 14 16 15 17 21 23 24 24 26 28
61 59 53 46 40 41 46 47 38 37 40 45 45 50 51 49 42 38 31 25 23 31 37 45 46 44 42 38 37 36 36 31 26 24 23 21 20 17 15 17 19 19 25 26 26 25 26 30 31

GFSSGP_250_spd_039.txt.gz
Wind_Speed
8 14 12 11 6 7 6 9 10 5 9 10 11 17 13 28 33 30 27 28 23 26 35 42 40 39 39 21 15 7 6 7 13 18 16 15 14 10 7 5 9 15 12 10 9 10 11 10 9
10 10 8 10 6 9 15 6 9 11 11 16 22 28 29 31 26 29 29 28 23 32 39 41 40 38 34 17 11 7 5 9 17 18 16 15 14 10 10 6 10 15 13 11 7 5 5 2 1
12 12 12 10 13 9 11 19 19 20 21 23 26 29 28 26 26 33 29 25 32 36 40 38 39 36 27 13 8 6 8 14 18 15 14 15 15 17 16 10 11 14 11 9 6 4 2 4 4
14 13 11 10 14 18 16 16 20 21 21 25 29 32 31 36 38 34 35 32 36 40 39 39 37 34 20 8 7 5 11 17 16 14 15 15 16 17 21 22 15 14 10 7 7 5 3 2 5
12 11 12 11 16 13 19 23 29 22 25 27 29 30 35 38 37 35 33 31 36 40 39 38 35 26 12 4 6 7 13 14 14 14 16 16 17 19 21 24 22 16 13 12 10 10 8 8 8
14 11 13 16 22 19 23 27 26 24 28 28 29 32 35 37 36 36 34 37 41 40 38 36 28 17 5 4 5 9 11 14 17 19 25 21 19 21 23 23 25 24 21 17 16 16 16 15 15
18 17 13 13 25 24 23 22 24 25 27 31 33 33 36 36 37 38 37 39 40 38 35 34 19 10 2 4 7 9 13 13 22 22 29 26 23 22 22 21 22 22 21 19 16 17 17 17 17
24 21 17 21 28 25 29 34 25 29 33 38 40 40 38 37 39 40 40 39 39 36 35 22 11 4 1 4 7 9 11 16 18 26 34 29 23 22 23 23 26 26 24 23 20 17 21 22 20
30 20 27 28 31 19 23 24 31 37 40 40 44 45 43 42 42 40 41 42 39 31 29 10 4 1 2 5 6 8 13 17 22 21 36 35 27 22 26 29 26 24 24 23 20 21 23 25 25
36 42 36 25 33 43 38 37 33 42 41 42 41 39 40 40 38 38 41 38 32 30 15 3 1 4 3 7 6 8 20 14 14 24 23 27 29 22 17 21 27 24 26 26 23 23 22 24 23
46 45 47 44 46 46 45 41 37 36 36 39 37 35 33 32 34 34 37 30 29 19 3 5 6 6 7 6 6 11 13 16 20 16 18 26 27 28 27 31 35 33 31 29 27 25 25 27 30
43 47 49 48 46 46 44 44 35 43 42 29 28 30 32 32 31 27 27 29 22 5 9 8 11 8 10 7 10 16 18 17 22 24 19 18 27 30 31 33 30 34 36 35 36 36 35 36 38
26 32 36 39 46 45 41 35 40 37 22 23 23 21 19 17 20 25 29 23 4 9 12 12 13 11 11 11 14 19 22 20 23 24 21 26 29 31 31 31 31 34 35 38 41 38 40 39 41
24 25 23 25 22 23 25 24 23 17 17 16 16 16 14 17 23 26 24 4 8 11 13 17 14 15 13 15 17 21 23 24 26 28 26 23 27 27 30 29 29 29 31 33 32 32 32 32 34
25 25 23 23 22 23 21 20 16 15 11 14 18 17 16 16 23 25 9 8 10 13 13 20 15 16 15 18 18 18 21 23 25 27 29 29 27 26 26 25 30 23 24 25 27 25 26 26 25
27 28 28 28 26 24 22 22 19 15 14 17 14 15 15 17 20 13 6 12 13 14 14 19 18 17 17 19 19 19 21 24 25 25 27 28 30 27 31 27 27 30 30 25 31 32 19 20 20
32 33 33 30 28 27 27 25 24 18 15 17 21 18 14 17 20 3 11 12 13 14 15 18 20 19 20 21 18 18 20 21 23 24 24 24 23 25 24 22 25 26 25 26 26 30 35 27 20
41 38 36 33 34 32 31 29 28 24 15 6 19 22 16 14 14 5 14 16 11 14 17 19 21 20 20 19 19 18 20 20 19 20 19 19 17 18 17 19 20 20 22 22 24 26 27 29 27
42 39 37 37 35 33 33 29 28 26 17 19 26 17 18 10 8 10 13 14 12 14 20 21 22 21 20 20 17 17 16 17 16 16 16 17 16 15 14 15 15 17 19 20 20 22 25 25 23
45 42 41 41 38 35 36 35 35 31 25 24 8 23 23 8 7 10 18 17 12 14 21 23 24 22 20 19 16 14 15 14 13 12 11 12 13 12 12 12 14 14 15 17 18 20 21 20 22
46 42 45 46 47 43 41 39 37 37 32 30 24 26 18 11 11 10 19 20 16 14 20 24 26 24 22 19 16 14 14 13 13 11 9 10 10 10 9 8 9 12 12 13 15 16 17 16 19
46 48 50 49 48 47 43 42 41 40 39 33 32 36 18 15 17 12 17 23 21 14 19 27 29 26 24 20 18 16 14 13 13 11 9 9 9 8 6 6 9 10 10 12 14 15 15 15 15
56 55 54 53 49 48 45 42 42 41 40 36 33 35 27 23 20 15 17 21 23 20 16 30 32 30 28 24 21 18 16 15 14 13 11 12 10 8 7 6 7 8 8 10 13 15 15 15 15
62 55 50 51 51 46 45 44 44 44 46 45 38 34 28 24 19 17 21 25 24 24 22 28 34 32 31 28 24 22 21 19 17 16 14 14 11 9 7 4 5 5 6 8 9 11 13 14 15
64 59 54 47 46 41 49 49 44 49 51 48 44 34 30 27 26 25 19 24 24 26 22 21 34 34 33 31 28 25 24 22 19 17 15 13 11 7 5 3 1 2 3 5 7 8 9 9 11
63 60 54 51 49 52 58 47 51 53 52 49 43 38 35 31 29 27 23 20 23 28 28 23 35 38 35 32 29 26 25 23 21 19 17 14 11 8 7 5 4 4 7 10 12 13 13 11 10
64 55 55 57 57 56 53 49 47 44 40 41 40 39 38 37 35 30 26 22 18 28 31 26 33 41 37 33 32 30 28 25 23 21 18 15 13 12 10 8 6 5 5 6 9 12 15 16 15
60 64 58 55 56 52 53 49 45 37 38 40 41 39 44 43 39 36 29 25 22 27 31 32 34 44 40 38 35 32 31 27 24 21 19 17 16 14 12 10 10 7 7 6 11 15 18 18 19
63 60 57 58 58 56 56 50 47 42 39 36 40 43 45 50 43 40 35 28 23 21 32 35 35 45 47 44 40 36 34 31 28 22 21 20 17 15 13 14 12 11 12 12 15 19 23 24 24
69 62 62 53 52 53 54 49 45 44 41 38 38 45 45 53 49 45 40 33 27 25 29 35 38 46 48 44 41 39 38 35 29 26 23 22 19 18 17 17 18 19 18 20 22 25 28 28 29

GFSSGP_250_spd_042.txt.gz
Wind_Speed
13 16 13 10 10 10 5 10 8 11 12 12 15 15 23 26 27 26 28 32 26 33 37 41 39 35 31 22 11 7 9 15 21 21 17 16 13 6 4 6 14 13 11 6 7 8 9 7 6
11 13 12 7 8 5 14 10 4 11 6 9 16 23 25 30 27 35 30 30 31 34 40 40 37 34 26 16 8 11 13 19 19 16 16 15 13 6 3 9 14 13 11 8 6 2 2 0 2
12 12 11 7 8 5 9 23 15 17 18 20 24 25 29 32 32 32 31 34 33 37 39 39 38 29 20 9 9 11 17 18 16 16 15 14 12 16 9 11 14 11 9 6 2 3 5 7 7
12 15 13 16 7 13 13 14 21 10 16 20 22 26 27 32 35 31 34 36 38 37 39 37 36 22 14 6 10 14 18 17 17 16 15 15 16 19 17 10 10 8 5 2 1 2 5 7 10
16 17 18 15 7 12 13 23 18 13 19 19 25 27 29 31 31 34 33 37 36 37 37 35 31 17 9 7 12 16 15 17 16 15 16 16 18 21 21 16 9 6 8 6 4 2 2 6 9
17 17 14 11 14 12 16 22 20 21 23 22 27 28 32 35 35 35 37 35 37 35 37 31 21 11 6 10 14 15 15 15 18 18 18 17 20 22 22 21 18 15 12 11 7 5 5 7 10
19 9 15 15 11 17 16 5 13 23 20 24 29 34 39 35 38 38 39 38 34 34 34 27 12 7 6 11 14 14 11 18 17 21 22 20 18 18 18 17 17 15 10 10 10 12 13 13 13
23 20 11 10 17 26 21 25 26 29 31 30 35 37 36 37 35 32 34 32 32 31 26 21 7 5 7 13 12 12 17 20 32 25 22 19 19 21 24 24 21 17 18 16 17 18 20 20 21
29 26 24 22 20 16 17 25 33 38 36 38 41 32 36 35 30 29 29 30 30 25 21 9 2 6 8 11 10 12 12 16 18 23 22 18 21 21 14 15 20 19 19 19 19 21 24 24 23
32 33 30 19 28 33 26 26 30 34 41 43 39 40 36 33 29 27 28 28 24 22 15 2 3 8 10 9 9 13 15 15 18 24 25 20 17 28 26 25 26 23 19 19 22 26 30 31 29
37 37 36 35 26 33 33 34 38 44 46 44 36 41 28 25 22 22 21 21 24 17 3 7 10 11 11 7 10 12 11 9 15 22 26 26 28 29 34 34 34 31 29 29 32 36 38 36 36
43 44 43 41 40 41 44 41 47 48 49 42 35 23 18 15 13 15 19 22 16 3 11 10 14 14 11 10 10 15 10 17 17 23 29 29 28 30 35 36 40 40 38 39 38 36 40 41 39
45 44 44 45 47 45 43 47 48 44 35 27 18 17 15 13 15 16 20 14 4 10 10 13 15 15 14 15 14 16 11 13 23 26 28 28 26 27 30 33 34 31 29 31 32 34 33 32 33
31 31 33 34 36 39 41 40 34 23 22 22 16 15 16 14 16 17 18 4 10 9 8 16 17 16 17 18 18 17 15 17 22 25 27 25 24 23 24 27 26 25 24 26 27 27 32 27 29
28 25 25 24 22 18 20 22 18 21 19 20 17 16 18 15 17 20 11 8 10 9 9 16 19 18 18 21 18 18 20 18 20 21 23 24 26 26 27 24 20 24 25 19 21 22 28 30 31
29 24 28 26 25 23 19 26 19 21 16 16 15 11 14 15 19 22 5 13 13 10 12 16 20 19 20 21 20 21 22 22 24 23 27 25 27 26 26 24 23 26 32 32 26 23 25 28 28
30 33 33 29 28 29 24 25 22 21 18 17 17 12 16 13 18 19 3 15 15 12 14 16 19 20 20 19 22 23 24 22 24 24 22 23 22 22 21 20 22 23 24 25 27 27 26 26 27
45 39 37 32 32 30 27 24 24 22 20 18 14 10 11 11 14 13 5 14 15 13 13 17 20 20 22 19 20 23 24 24 23 21 20 20 17 16 16 17 18 21 22 23 25 23 23 22 23
48 45 39 34 32 31 30 24 25 25 23 18 18 16 17 16 3 6 6 14 14 13 12 18 22 23 23 20 20 20 21 22 21 18 17 16 15 13 12 14 15 16 19 20 21 20 22 21 21
49 47 41 41 35 35 32 31 29 26 25 22 22 20 19 13 12 5 16 12 15 15 13 21 24 25 25 23 22 21 20 20 19 17 17 15 14 12 10 10 12 14 15 16 17 16 18 20 18
49 47 48 49 45 40 38 34 30 30 27 28 27 22 21 15 11 9 17 17 15 17 14 22 24 27 26 24 22 21 19 18 17 16 14 15 12 11 9 7 8 10 14 15 14 14 14 14 15
51 51 52 54 49 45 44 39 34 32 28 31 29 27 24 21 15 10 10 20 19 20 17 25 26 27 28 27 25 22 22 19 16 14 13 13 12 10 7 7 7 9 12 15 14 14 13 13 11
59 58 55 58 53 53 46 41 36 34 31 34 35 33 30 30 22 12 14 22 25 21 19 25 27 29 28 27 26 24 22 21 19 16 14 14 14 10 10 8 7 8 9 10 11 11 10 8 6
71 65 62 61 56 51 46 40 40 35 39 42 39 35 33 31 31 20 18 24 27 25 21 23 29 31 30 29 26 25 25 22 20 18 15 15 13 12 11 8 5 4 4 4 6 5 6 7 9
74 70 67 64 56 45 47 42 47 44 44 45 38 37 35 33 29 26 21 24 29 27 26 19 26 29 32 31 28 26 25 23 22 20 18 18 15 12 9 8 6 3 1 3 6 8 9 10 11
75 71 65 59 55 51 49 41 55 53 48 47 41 39 37 36 30 30 25 26 27 30 26 25 22 29 35 33 30 28 25 24 23 22 20 18 15 13 10 8 6 5 5 6 6 7 8 12 14
79 69 68 66 62 59 52 53 55 55 50 43 41 36 39 38 37 34 32 32 25 29 30 25 23 28 37 36 34 31 28 26 25 24 21 18 17 14 12 11 9 9 9 9 8 7 9 14 19
75 76 73 66 63 57 57 55 53 53 48 41 35 31 44 44 42 40 39 34 26 25 28 32 29 29 37 39 39 35 29 28 27 25 22 21 19 17 15 14 14 13 12 13 11 10 10 15 22
79 76 72 71 67 58 59 56 57 49 46 39 34 34 43 46 48 47 43 37 31 28 24 33 33 32 41 45 44 39 35 32 31 28 24 21 20 17 16 16 17 16 15 13 16 16 18 22 26
87 83 80 73 64 59 61 63 57 49 44 40 37 34 39 47 43 50 46 41 37 32 26 34 37 37 39 42 45 42 39 37 35 31 26 23 22 21 19 21 22 22 22 22 20 20 22 25 30

GFSSGP_250_spd_045.txt.gz
Wind_Speed
18 16 15 9 8 10 5 2 6 8 12 11 14 17 20 26 29 31 33 33 33 35 36 38 36 30 22 15 10 13 16 18 17 15 13 12 11 5 2 9 9 10 6 4 4 5 7 5 5
18 14 17 13 11 6 1 2 1 3 5 14 17 22 26 28 29 31 34 35 35 35 36 37 36 25 19 12 13 17 18 17 16 16 14 9 10 4 7 10 9 7 4 3 1 2 2 2 6
18 12 11 14 6 1 6 11 9 16 16 16 23 26 24 28 30 33 36 35 35 35 35 37 32 21 16 13 18 18 18 17 18 16 16 12 12 12 11 11 9 6 3 2 6 10 10 9 11
17 13 13 18 4 9 8 7 18 20 21 15 24 22 28 30 33 37 35 36 34 36 34 35 25 17 14 14 18 17 17 20 18 17 18 15 18 16 11 8 6 5 2 4 7 8 10 14 16
19 17 18 12 11 10 13 22 22 20 22 22 24 28 29 34 39 36 38 35 33 31 31 29 19 14 12 16 16 14 16 22 18 17 18 18 22 22 18 13 9 9 8 6 7 8 10 13 12
18 17 18 13 10 9 6 11 13 17 23 26 29 26 32 38 38 37 35 33 27 27 28 22 13 11 11 15 16 14 20 19 17 17 17 18 20 21 19 15 13 11 9 8 9 10 11 9 11
19 20 21 15 12 15 12 10 17 20 26 27 24 30 42 40 40 38 32 29 26 26 23 16 9 9 10 15 15 19 27 27 19 18 18 15 16 18 16 15 12 11 8 11 14 15 14 15 13
22 20 19 19 17 14 14 22 16 22 20 29 31 37 44 45 44 36 31 26 24 23 15 10 6 8 10 14 15 15 19 19 21 19 19 17 16 20 19 16 19 18 16 18 21 18 19 20 18
26 22 14 15 16 22 27 27 28 29 33 35 36 41 49 47 41 29 23 23 20 15 13 4 6 8 10 14 11 13 15 18 19 19 21 18 14 14 14 18 21 21 21 21 20 21 24 31 31
30 29 25 24 20 18 27 30 27 31 35 36 37 48 53 38 33 25 18 17 17 16 6 10 10 10 11 13 14 15 16 20 20 20 20 25 26 23 22 23 24 26 29 27 27 29 33 38 40
35 35 34 33 30 21 33 33 33 28 34 33 44 51 46 27 23 15 16 19 20 8 9 14 13 11 13 14 13 9 14 18 21 28 25 32 36 36 35 35 34 38 35 32 37 37 34 33 36
40 40 40 37 36 38 35 34 33 38 38 41 47 49 28 25 24 21 20 24 7 8 18 17 14 14 16 13 14 14 17 22 23 25 25 33 32 33 31 36 35 31 33 33 32 32 32 32 34
44 44 44 43 42 41 41 44 43 42 44 44 45 25 24 20 22 21 25 15 9 16 17 20 15 17 17 15 17 17 21 23 25 24 25 27 27 27 28 27 29 29 32 30 27 29 29 30 35
48 49 49 47 45 46 46 45 42 44 44 41 20 20 18 15 18 21 23 3 15 16 17 19 16 19 17 17 18 15 19 23 23 24 23 22 23 20 22 23 22 24 25 27 30 28 28 29 30
41 40 42 42 41 42 43 36 28 24 18 16 18 15 15 17 18 22 13 11 17 16 17 17 17 21 19 19 18 18 20 22 22 21 18 24 22 21 20 27 23 20 22 25 25 24 26 26 30
32 31 38 33 29 28 28 20 17 17 15 17 17 15 18 15 20 19 4 13 17 15 18 16 18 20 21 19 20 19 19 21 22 20 22 27 25 22 21 22 24 27 23 24 25 26 27 26 27
31 35 39 32 30 29 25 20 19 20 18 17 16 15 18 13 16 20 3 11 14 15 18 16 18 19 20 19 21 21 21 25 24 24 21 23 22 20 21 22 24 24 22 21 21 23 25 26 24
46 46 45 37 32 29 28 26 24 22 19 16 16 15 15 13 16 16 3 12 10 13 17 18 19 20 19 19 21 23 23 26 22 21 20 18 16 17 17 17 19 18 22 19 21 21 22 24 24
52 47 44 42 34 28 31 27 28 23 22 21 17 15 17 16 12 11 6 13 11 10 15 15 18 20 20 21 21 22 24 24 21 20 18 16 15 15 14 15 15 14 15 14 17 20 19 21 21
55 52 49 48 38 33 31 29 31 27 23 26 21 18 17 13 17 7 14 15 12 15 17 15 19 23 23 22 22 23 23 22 20 17 16 16 12 12 12 12 10 11 11 11 12 15 16 18 18
59 57 58 56 49 43 35 31 29 34 26 28 25 19 17 14 12 12 9 14 15 14 16 19 19 24 24 23 22 22 21 20 16 15 16 14 12 10 10 8 7 10 10 10 9 12 12 13 12
62 64 65 63 56 50 43 38 35 37 33 28 26 23 17 17 11 14 14 12 17 16 19 23 22 24 24 25 24 23 21 19 17 15 14 13 12 10 8 7 8 9 10 9 8 8 9 9 10
66 65 66 67 63 59 48 42 37 34 36 31 29 27 24 18 17 18 15 8 15 18 20 25 24 26 27 26 25 23 22 20 19 17 16 15 14 11 9 8 7 8 7 7 5 6 7 8 10
76 73 71 70 68 58 50 43 38 32 42 38 34 30 29 27 22 21 26 20 17 22 21 26 27 27 30 30 27 24 24 23 20 18 16 16 16 12 11 9 9 7 5 4 2 2 5 8 10
78 76 73 71 64 46 52 41 36 38 40 44 35 29 31 32 29 26 19 21 20 26 25 26 27 28 31 31 29 27 25 23 21 20 17 17 15 14 13 11 9 7 3 3 4 5 7 8 12
76 76 70 65 60 49 51 40 45 46 46 45 37 33 33 32 30 31 25 24 27 24 31 28 29 27 30 31 30 30 28 24 22 21 18 17 16 15 14 11 9 7 7 8 8 10 9 10 14
79 73 74 72 67 60 54 48 55 49 47 45 46 41 36 35 34 34 32 28 30 26 31 31 31 27 31 33 33 32 29 26 23 21 20 20 20 18 15 13 12 10 11 10 11 11 10 11 15
84 83 78 69 67 60 56 50 57 50 52 49 46 42 37 37 36 36 38 33 33 29 26 32 34 32 29 32 33 34 31 28 27 25 23 23 22 20 19 17 15 15 16 14 13 15 12 15 19
87 80 78 79 74 64 59 54 61 56 54 52 47 43 43 40 39 40 44 38 36 31 27 30 35 36 35 35 32 37 36 33 30 28 28 26 24 22 21 21 20 20 21 20 19 14 17 20 22
94 89 86 76 66 63 62 58 68 62 58 52 49 44 45 41 39 38 41 42 39 36 31 31 33 41 39 37 34 35 38 36 34 32 31 29 26 26 25 22 22 22 21 22 21 19 21 22 25

GFSSGP_250_spd_048.txt.gz
Wind_Speed
16 13 11 10 7 7 5 2 4 7 9 10 17 19 25 30 27 31 39 39 39 34 35 33 35 22 16 14 15 18 18 17 15 13 9 10 7 7 6 8 10 8 10 8 6 5 5 3 6
19 13 12 14 12 10 4 4 6 3 7 15 17 20 25 26 29 36 38 38 40 35 31 32 27 19 15 14 17 18 20 19 16 13 11 9 10 11 10 10 12 10 10 7 6 7 7 9 12
22 15 13 13 15 9 5 9 8 8 15 19 17 17 22 27 35 39 37 39 40 32 29 30 19 15 13 16 16 19 20 19 16 16 12 13 14 12 11 10 8 5 2 4 8 10 9 10 12
21 17 11 7 9 9 2 9 10 13 16 20 23 21 27 30 41 41 42 39 37 29 27 24 14 12 13 15 17 19 17 16 17 18 18 19 17 14 9 8 6 2 2 5 9 10 11 12 12
21 17 14 13 13 9 11 11 13 20 12 21 22 25 25 27 41 51 50 40 35 28 25 17 11 11 14 16 18 16 17 17 17 21 22 23 21 18 15 14 15 12 9 11 10 10 12 12 14
20 18 18 18 15 15 14 7 11 5 11 20 20 21 29 34 47 57 45 35 31 26 22 13 10 10 14 17 19 23 19 19 16 20 20 20 20 18 17 15 12 11 14 15 16 16 14 14 20
20 19 18 21 13 13 12 7 6 7 14 21 22 26 34 39 51 61 43 32 27 22 15 10 9 10 12 15 16 21 19 19 19 17 17 16 18 18 19 15 12 15 19 22 23 23 20 16 21
23 20 20 18 16 20 19 15 14 13 13 17 27 28 38 40 51 57 39 29 24 16 13 5 9 9 10 12 11 20 20 19 21 19 16 18 15 18 19 22 19 21 22 25 32 30 29 26 28
25 22 21 21 18 20 21 18 19 21 26 28 26 36 40 40 53 43 35 25 20 17 11 5 10 8 11 11 12 19 19 20 22 22 23 21 20 22 25 26 27 26 30 37 36 37 36 34 31
27 25 21 19 22 25 22 30 26 28 32 29 32 36 41 44 52 36 35 30 25 23 5 14 12 10 14 13 15 17 20 25 31 32 32 31 30 31 35 33 34 40 36 33 34 32 34 38 41
32 29 29 27 24 24 22 18 22 25 29 29 30 38 40 45 39 30 31 29 30 8 13 18 12 12 15 14 10 16 25 28 32 35 36 37 34 38 34 35 40 37 35 30 32 32 32 36 39
36 35 35 33 32 33 32 28 27 30 32 34 35 41 44 47 24 26 29 29 13 9 18 18 11 15 17 15 14 15 22 23 29 29 28 30 32 30 33 33 33 31 32 29 32 35 38 37 36
42 40 38 39 37 37 35 32 32 32 36 38 42 44 43 25 19 24 32 19 5 16 18 16 12 17 18 16 16 18 23 22 23 24 25 27 25 28 31 33 31 31 29 30 32 36 34 32 33
50 47 45 43 41 41 40 37 37 37 39 41 43 37 19 19 19 23 33 5 12 14 16 14 13 18 20 19 18 19 21 20 19 20 20 23 26 24 24 25 28 28 28 28 31 33 30 26 28
50 48 50 49 47 45 44 42 41 40 40 41 32 14 16 17 20 21 31 6 11 14 14 13 15 17 19 17 16 18 19 21 17 18 20 23 30 29 22 21 24 25 28 26 28 31 31 27 26
42 45 50 49 50 51 47 45 43 40 31 22 14 11 16 16 14 18 20 10 11 15 13 12 14 17 18 18 17 18 19 19 21 24 21 21 23 26 27 26 25 25 26 28 29 29 30 25 22
34 40 47 47 48 46 42 43 34 24 20 14 11 12 13 11 14 15 14 11 9 14 14 11 14 16 17 17 16 17 18 18 21 23 20 19 22 25 25 25 22 23 23 23 26 28 28 25 19
41 49 48 44 43 40 35 29 26 25 18 13 13 12 9 9 10 12 14 9 9 12 15 13 16 17 15 17 16 16 21 22 21 18 17 18 19 19 21 21 18 19 23 22 23 23 21 20 19
47 49 43 41 36 36 32 30 28 22 18 16 16 14 10 6 8 8 9 8 9 10 12 13 15 17 15 18 17 18 22 20 19 16 14 15 16 16 15 16 15 16 20 19 18 20 21 19 16
51 52 50 46 38 39 36 36 29 26 19 18 19 15 11 6 8 5 8 6 11 11 14 15 17 17 17 18 19 20 21 18 18 14 12 11 12 11 10 11 12 13 14 15 15 15 16 16 17
56 56 58 56 45 44 41 38 30 28 22 24 21 17 13 6 5 1 7 5 12 13 13 16 17 18 18 19 19 20 19 16 16 13 11 10 9 9 7 10 10 10 10 11 12 11 13 15 17
59 61 65 64 51 47 45 39 33 30 26 24 21 19 16 11 7 4 6 7 11 12 15 18 20 20 21 19 19 21 21 19 15 13 11 9 8 6 5 7 9 10 9 8 9 9 10 12 15
67 65 67 70 59 54 47 41 39 34 32 31 29 22 19 16 14 6 9 4 7 11 17 18 19 21 24 21 21 22 21 20 17 15 14 11 8 5 4 5 6 6 6 5 4 4 7 11 16
77 70 71 74 67 53 46 40 45 37 44 36 30 28 24 20 18 16 10 14 11 12 19 22 23 23 24 24 25 23 22 20 18 15 14 12 10 7 4 4 5 4 2 1 3 5 8 12 15
79 77 74 76 69 46 50 42 41 47 46 39 38 32 28 23 22 20 19 12 16 20 22 24 25 26 26 26 25 24 23 21 18 16 13 11 11 10 9 6 6 5 4 5 7 9 10 10 13
84 83 75 69 61 50 53 44 39 55 48 47 43 37 30 26 24 21 20 17 17 20 23 28 27 27 28 28 27 25 24 21 20 20 17 14 13 12 13 11 10 10 8 8 9 10 7 10 13
89 83 77 74 65 57 53 50 51 56 51 51 46 38 32 30 31 27 26 22 19 21 21 25 32 28 30 29 27 28 28 25 22 22 20 18 17 17 16 14 13 13 12 11 10 11 6 9 14
91 86 87 77 71 62 56 52 55 57 56 55 48 42 38 34 32 29 27 26 24 23 23 24 30 34 31 30 30 30 28 25 26 26 23 22 22 20 19 18 17 15 15 15 14 13 14 13 16
96 93 87 82 77 65 59 53 58 63 60 56 53 46 38 32 32 33 31 30 28 25 27 27 26 34 33 34 32 28 31 29 30 27 27 27 25 23 23 22 19 18 17 17 18 18 17 17 21
105 98 92 85 73 69 64 61 66 67 62 59 58 48 42 36 36 34 32 30 31 29 29 30 27 31 35 35 31 31 30 34 33 32 29 29 27 27 27 25 22 21 20 18 17 19 20 20 23

GFSSGP_250_spd_051.txt.gz
Wind_Speed
11 10 8 8 9 7 7 6 4 7 7 10 16 18 22 21 33 42 49 47 35 32 30 29 21 11 13 14 15 17 20 15 11 8 6 7 11 12 15 16 14 13 10 8 8 6 5 8 9
15 12 11 6 14 10 8 4 6 3 8 15 17 21 20 25 32 45 51 51 37 31 30 28 13 12 14 14 17 19 18 18 14 13 11 12 13 15 16 18 14 10 7 9 13 14 11 10 11
21 17 9 14 13 10 7 2 8 7 12 14 18 22 21 28 32 43 52 48 41 32 28 23 10 14 13 15 21 18 16 19 17 17 16 16 16 15 13 12 9 5 6 8 11 13 12 10 11
24 20 18 12 11 10 8 7 4 13 15 15 19 20 24 29 34 43 55 54 41 32 26 16 10 14 15 22 22 19 18 20 23 23 20 19 16 12 10 9 7 10 12 13 13 12 12 15 13
23 20 20 14 17 9 7 10 9 12 14 16 23 24 28 30 39 45 51 52 38 29 22 10 10 14 14 24 23 21 21 18 20 24 25 23 22 19 19 19 18 16 15 15 13 13 16 16 19
24 21 18 15 16 9 11 10 6 14 9 17 22 21 23 32 42 45 47 44 36 27 16 8 10 12 11 22 23 22 20 15 18 21 22 20 18 20 20 20 20 19 20 17 18 19 18 18 20
24 23 19 19 18 15 11 14 18 5 12 20 20 21 29 31 41 45 53 41 36 22 13 7 8 10 10 19 18 20 18 16 14 20 19 20 19 20 17 20 23 23 22 23 27 27 24 27 28
26 24 22 19 21 18 17 14 12 11 13 21 23 29 31 36 40 45 51 38 34 24 15 7 5 10 12 14 16 19 19 19 15 15 17 17 18 22 23 24 32 28 28 30 30 33 37 41 40
27 25 23 20 18 21 22 23 18 20 19 27 27 30 34 34 43 47 41 34 34 30 15 6 9 12 15 15 16 22 23 20 20 21 23 24 27 25 28 33 32 25 27 31 36 38 42 42 42
29 26 24 24 21 23 23 21 22 21 25 25 26 29 34 41 45 45 31 34 40 28 5 12 14 14 15 19 19 28 31 29 30 32 31 32 35 37 35 32 29 28 29 31 37 42 44 44 47
30 29 28 25 24 21 23 26 18 22 25 23 27 33 36 40 45 35 30 35 41 9 14 16 16 16 13 17 22 29 28 28 30 31 32 31 36 33 32 30 30 28 31 36 39 42 41 42 45
33 32 31 29 26 23 23 23 25 22 20 24 27 27 36 39 37 28 29 35 27 6 16 17 16 17 12 19 20 25 24 24 25 27 25 30 28 28 28 30 32 32 34 38 38 40 41 38 42
38 36 35 35 33 31 28 30 29 29 29 28 25 35 38 41 26 26 27 35 9 12 13 16 19 17 15 18 20 22 22 22 25 23 24 29 27 26 29 30 32 33 35 33 34 36 39 38 44
45 44 42 39 37 35 36 37 34 34 32 31 31 36 36 28 20 20 25 27 6 11 11 15 20 16 17 19 22 22 20 19 22 24 20 20 24 26 30 31 31 31 31 32 29 30 34 37 33
52 49 47 44 43 40 39 37 35 34 32 32 34 35 24 14 16 18 23 17 8 10 10 15 20 19 17 19 21 21 17 17 21 26 27 21 21 25 29 30 32 30 30 28 28 27 30 32 33
51 53 51 50 48 47 43 41 40 36 34 35 35 25 12 10 11 15 19 12 6 7 12 15 18 21 15 16 18 21 18 20 22 21 23 23 24 24 28 29 27 29 27 26 23 21 22 24 22
39 45 53 54 52 48 46 45 43 40 38 36 26 16 7 7 9 12 14 8 3 6 10 14 17 17 17 15 17 16 20 20 21 21 21 21 22 22 24 26 26 25 25 23 21 20 20 24 25
45 49 48 53 52 52 48 45 42 36 31 23 18 9 3 4 9 9 10 5 3 6 8 14 17 18 16 15 16 13 16 20 19 19 18 18 18 20 20 21 23 23 22 22 21 21 22 25 25
48 47 42 42 41 39 39 39 34 26 22 20 17 10 5 4 5 6 9 4 4 4 8 12 15 17 17 13 16 19 19 17 15 16 15 14 14 16 17 16 17 19 18 18 20 20 21 21 23
52 51 47 42 37 36 34 32 25 27 22 23 21 15 11 6 2 4 4 9 5 5 8 12 16 16 18 17 17 22 21 16 12 13 12 8 11 11 11 11 12 15 14 14 16 18 19 21 24
55 55 57 50 44 40 35 30 29 28 28 28 21 17 12 8 4 2 3 3 3 6 7 11 15 15 16 19 18 21 19 16 12 8 9 6 7 7 7 8 9 11 11 12 14 16 19 20 21
59 61 64 59 52 47 40 36 34 29 29 28 22 19 16 12 8 3 9 2 1 5 6 10 14 19 17 18 19 21 20 18 14 8 6 6 4 4 5 6 8 9 9 8 9 12 14 17 19
69 66 70 67 57 53 44 39 37 30 30 31 28 23 18 14 12 8 8 10 7 6 6 9 12 18 22 21 22 21 19 18 16 10 10 7 5 1 2 2 5 5 5 4 6 9 13 17 18
81 75 76 73 64 53 50 43 39 34 38 36 31 25 21 17 15 15 10 13 11 11 10 9 12 16 21 24 25 22 21 20 18 13 13 10 8 4 3 3 5 3 1 1 4 7 8 11 13
85 80 79 79 67 50 55 48 45 44 44 41 34 30 24 19 20 19 12 12 16 16 14 15 15 18 21 26 23 23 23 20 19 16 14 13 10 8 7 6 6 6 3 5 7 8 6 8 11
90 86 82 78 70 58 58 48 47 48 50 45 40 35 26 25 24 22 18 16 16 18 18 17 19 19 22 25 25 25 24 22 19 17 16 13 11 10 10 9 9 8 6 8 10 9 6 7 12
95 88 81 87 77 67 57 54 54 56 53 48 45 39 35 33 30 29 24 20 21 19 18 19 17 19 20 23 26 27 26 24 21 20 19 17 14 13 14 13 11 11 10 11 12 12 9 10 13
99 94 95 89 80 70 65 60 57 60 59 57 52 46 41 37 34 30 29 25 24 20 19 20 21 19 22 22 26 31 29 25 24 24 21 20 19 18 17 16 15 12 12 13 15 15 14 15 17
106 103 95 90 83 73 68 62 63 63 66 61 56 53 48 42 39 33 30 28 23 22 21 23 24 20 21 27 27 31 32 30 29 28 24 22 22 21 19 19 17 16 15 15 16 17 17 18 20
116 108 101 96 83 77 73 67 69 70 68 65 60 55 50 42 38 33 30 28 25 25 25 23 25 24 23 27 30 29 32 32 31 30 26 24 23 23 22 22 21 20 18 17 17 17 16 16 18

GFSSGP_250_spd_054.txt.gz
Wind_Speed
11 8 6 6 6 7 8 7 4 6 7 8 16 14 22 23 33 37 48 51 49 33 29 27 12 13 14 18 16 16 17 12 12 9 8 14 17 20 16 16 12 13 11 9 8 6 4 5 4
13 11 8 8 6 7 6 5 8 7 7 10 14 16 18 30 28 47 48 50 46 33 30 20 11 14 17 17 18 19 16 17 16 15 15 17 20 19 14 12 11 6 8 8 8 7 5 2 2
17 14 10 14 7 6 4 6 5 6 12 20 15 11 24 28 30 41 46 53 45 35 29 15 11 15 19 20 19 17 18 19 20 19 18 19 19 16 12 10 8 8 9 11 12 12 11 8 4
22 20 16 17 11 6 6 6 7 9 14 6 10 20 29 28 33 40 49 53 42 36 25 14 12 14 23 20 18 16 19 21 21 20 19 19 16 13 15 15 15 15 13 12 12 13 14 14 6
25 25 19 19 14 11 9 10 13 11 7 10 22 27 25 29 35 41 48 48 39 33 23 16 11 12 20 20 19 17 18 19 22 22 23 24 25 24 23 22 18 15 14 14 14 13 14 17 18
21 24 21 18 15 14 9 7 11 7 6 15 19 24 31 30 37 42 48 43 35 33 24 18 12 15 18 19 18 17 17 19 22 22 24 25 27 26 24 20 16 16 18 19 16 15 17 23 28
21 25 22 19 15 11 11 17 11 8 5 18 23 28 24 33 37 41 48 36 33 38 27 14 9 13 16 18 17 19 16 17 18 21 24 26 27 25 23 23 21 26 26 26 27 28 28 33 33
22 24 25 20 15 17 16 13 10 15 16 17 21 29 32 33 36 41 46 36 37 39 19 5 6 12 12 17 16 17 17 16 18 20 23 24 25 28 27 26 27 29 28 30 36 39 42 45 43
25 24 26 23 19 18 21 20 15 18 19 23 25 29 30 33 35 43 46 36 38 37 7 4 12 15 14 18 18 19 21 22 24 22 23 25 27 29 27 26 31 34 38 44 46 46 49 48 47
25 27 25 25 23 20 21 22 20 19 23 24 26 25 27 31 35 43 42 35 37 21 4 9 16 16 16 22 24 28 26 26 26 28 29 28 25 26 28 30 35 42 43 45 46 45 48 46 46
26 26 25 24 24 22 22 22 24 23 20 18 18 23 28 28 39 43 32 32 34 6 10 13 17 18 18 24 24 26 26 27 25 29 28 26 25 25 29 32 35 41 41 40 43 42 43 40 40
29 30 30 28 27 25 23 16 22 24 23 22 20 26 27 31 36 32 27 31 20 9 12 14 18 15 20 19 19 19 22 24 24 25 27 28 28 29 32 34 41 41 40 42 43 43 40 43 37
37 34 34 33 30 27 25 26 25 23 22 24 26 29 29 32 36 24 24 26 9 11 13 14 17 16 20 19 19 21 23 23 25 25 27 31 29 30 35 34 37 37 39 36 35 39 38 36 36
44 42 40 37 35 35 32 28 28 26 25 27 29 30 30 31 25 21 21 17 7 10 10 17 16 17 19 19 17 19 21 20 21 24 26 31 32 30 32 32 30 32 32 34 35 34 32 32 29
50 48 46 44 40 39 35 36 34 33 31 32 30 28 29 34 18 17 17 10 6 8 8 18 16 17 19 19 16 19 21 23 22 22 23 26 32 34 28 29 29 27 25 26 26 24 24 27 28
55 55 52 49 47 45 41 39 35 33 30 30 28 30 29 25 14 13 13 8 4 6 10 19 19 19 19 19 17 19 21 21 22 22 23 22 25 29 28 26 23 22 21 20 20 21 24 29 29
47 56 56 54 51 49 45 43 38 37 34 32 32 31 27 16 7 8 8 8 5 5 10 20 18 18 18 19 17 19 23 22 22 23 23 21 21 22 23 25 25 21 19 19 22 22 24 24 25
47 53 57 58 56 53 48 46 42 39 36 33 31 27 17 12 3 6 7 7 5 5 9 19 20 17 16 17 17 18 21 23 21 20 20 21 20 20 19 20 22 21 19 19 20 22 22 23 23
48 48 46 49 54 53 51 47 44 41 39 34 28 20 20 11 2 4 3 5 7 6 6 13 16 17 16 16 16 18 18 20 20 18 17 16 17 17 15 16 18 18 20 20 21 22 22 20 19
52 51 49 44 43 44 47 47 43 39 33 29 24 26 21 13 7 1 3 7 7 9 7 12 15 17 18 17 18 19 18 16 16 15 14 13 12 13 12 12 12 14 16 17 19 19 18 18 19
58 56 56 51 45 40 37 36 34 30 29 31 28 27 21 16 10 4 6 7 8 8 8 9 13 13 14 18 20 19 16 16 15 11 11 11 9 10 10 9 9 11 12 14 15 15 15 18 23
63 63 62 57 53 46 39 33 31 29 31 30 29 27 24 20 13 8 6 6 8 10 10 10 10 14 14 17 20 21 20 16 14 11 9 9 7 7 8 8 6 8 7 9 10 9 11 14 19
73 70 67 64 57 53 40 35 33 31 32 32 32 30 26 22 17 11 8 9 11 11 9 10 11 13 17 18 19 19 17 15 12 10 8 9 6 5 6 6 6 5 4 4 6 8 7 10 12
82 75 76 72 64 56 48 40 38 34 37 39 36 32 30 24 18 15 11 8 13 12 12 10 10 13 15 21 22 19 19 16 13 12 9 8 9 6 4 4 3 3 1 2 6 5 4 8 12
85 81 80 80 70 51 56 49 44 42 42 42 38 33 30 25 22 18 15 11 13 12 13 12 8 7 16 18 23 23 22 19 17 15 10 9 8 8 6 5 4 4 3 2 5 4 4 7 12
91 88 85 80 75 61 64 52 52 49 48 46 39 36 29 29 28 23 18 16 18 17 17 15 14 10 14 20 19 22 24 22 21 17 14 11 10 10 9 9 8 7 6 6 6 7 8 10 14
97 93 82 89 85 74 68 62 61 57 55 52 45 39 35 34 33 28 24 21 22 17 18 18 17 13 13 17 20 22 23 23 22 18 16 14 12 12 12 10 10 10 8 7 8 10 14 15 16
109 95 98 94 89 78 74 67 62 63 62 58 53 47 45 41 36 33 32 29 26 22 18 20 22 21 18 16 19 23 25 24 23 22 21 17 17 17 15 13 11 12 11 8 7 11 14 17 17
110 112 104 95 90 82 78 72 67 68 68 65 61 57 53 48 44 39 37 31 27 22 21 20 22 23 22 21 22 23 27 29 27 27 24 22 22 21 19 17 15 14 13 11 10 12 14 16 17
115 119 110 103 93 87 85 81 74 70 73 69 68 63 60 54 50 45 40 32 28 30 24 21 21 22 26 26 23 23 26 29 31 31 29 27 26 25 23 20 18 17 16 14 13 14 16 18 18

GFSSGP_250_spd_057.txt.gz
Wind_Speed
13 8 7 3 4 6 6 7 7 8 10 8 13 14 17 25 32 38 44 49 43 37 30 23 15 16 19 15 13 11 9 10 12 11 15 17 20 18 16 13 11 10 6 3 1 2 4 3 4
14 10 6 4 4 2 5 5 4 10 12 14 21 18 13 27 34 39 42 50 42 36 31 22 16 22 18 18 17 16 14 17 19 17 18 21 17 15 13 10 5 3 3 3 3 4 2 1 1
14 13 9 6 8 1 5 6 6 10 14 19 22 11 27 35 32 40 44 50 38 36 34 25 14 22 21 20 16 19 18 18 19 21 21 19 16 12 7 5 5 7 9 10 10 9 7 2 2
16 16 13 14 10 1 8 8 9 11 13 4 19 20 30 28 36 39 43 47 35 38 34 24 14 20 22 19 15 18 18 17 19 19 19 17 16 14 12 12 13 14 12 11 15 11 7 6 8
21 18 17 17 14 7 9 10 10 12 14 11 20 21 20 34 34 41 43 47 37 38 34 18 12 16 21 15 13 16 19 18 21 25 26 23 22 19 17 18 19 16 18 14 15 16 22 20 17
22 21 22 18 16 13 9 12 9 8 14 14 24 30 30 33 37 41 46 50 37 37 26 13 9 16 17 14 12 15 19 21 23 24 24 25 22 21 23 25 26 25 24 21 20 26 32 39 32
21 20 21 22 18 17 12 12 9 9 18 18 24 21 25 33 36 39 45 50 38 38 15 5 6 11 15 13 10 14 18 22 24 25 24 23 25 28 29 31 33 33 33 36 45 54 45 45 45
22 21 22 22 19 16 11 12 15 17 12 22 22 25 27 35 34 38 46 43 37 33 8 4 10 8 15 15 12 14 18 21 24 23 24 28 26 28 31 31 38 42 45 46 53 49 46 47 45
22 23 22 22 20 19 16 18 10 14 19 22 22 25 32 30 33 38 45 38 37 17 13 8 15 14 18 21 20 24 22 20 24 24 27 27 30 32 36 43 44 48 46 46 45 44 43 43 41
23 23 23 24 23 21 18 17 19 22 27 24 23 26 22 27 33 37 42 35 36 7 16 14 16 17 23 22 19 23 26 27 27 25 26 28 31 37 41 44 47 45 46 44 43 40 37 37 36
23 25 26 24 25 21 18 13 21 21 24 24 22 23 25 29 35 39 36 34 25 12 18 15 16 17 18 15 19 18 21 26 26 26 24 31 36 38 40 40 41 43 39 39 38 35 34 31 29
30 27 27 27 25 23 21 21 20 23 27 24 24 26 25 29 35 40 32 30 10 12 17 15 15 14 16 15 13 20 21 26 25 28 31 34 38 38 33 37 40 39 41 40 40 38 31 30 27
36 34 32 31 28 24 23 22 5 27 24 22 23 24 24 31 31 36 27 22 8 10 11 13 13 13 15 16 17 18 24 26 26 29 32 36 39 39 37 37 34 38 38 36 33 30 31 31 34
43 40 36 34 34 32 28 25 29 32 30 23 23 24 28 27 29 31 22 10 6 7 6 14 15 12 12 15 19 19 23 26 27 30 34 35 33 34 33 32 33 33 30 28 29 27 29 30 29
49 45 43 40 37 35 33 32 31 31 30 27 25 26 28 26 30 26 16 3 4 5 7 12 16 13 11 12 16 18 17 23 27 28 32 32 28 26 27 27 27 25 24 24 27 29 28 26 27
53 52 48 45 43 39 36 35 34 36 34 31 27 26 26 27 28 19 11 0 3 5 9 12 14 15 14 11 14 20 21 19 22 27 30 28 27 24 24 19 17 18 16 21 25 24 24 23 24
55 57 55 50 46 43 39 30 39 39 36 31 27 27 27 25 22 15 7 3 4 6 10 15 16 17 15 13 14 16 21 20 19 21 24 26 25 23 20 17 16 14 17 19 20 21 21 23 25
51 56 58 58 54 47 41 31 31 37 39 36 31 29 26 25 16 10 5 6 6 6 11 19 18 17 16 14 14 15 18 22 20 20 19 19 21 21 21 21 20 18 17 17 19 20 21 21 23
49 47 49 53 53 53 49 42 29 33 40 38 33 30 27 24 15 6 4 5 7 10 9 19 19 16 17 15 16 15 17 19 20 19 18 17 18 18 18 19 20 19 17 18 16 19 20 21 23
53 53 51 50 49 50 53 54 55 52 46 41 35 34 29 21 18 7 5 6 7 11 11 16 20 19 18 16 16 14 15 15 17 18 17 15 13 14 16 14 16 17 16 15 15 19 21 22 24
58 59 58 52 46 45 45 49 53 51 47 44 38 34 28 23 18 10 6 8 10 7 13 12 16 19 18 19 18 15 11 12 11 14 14 13 12 11 11 11 13 14 13 11 14 15 16 18 21
65 64 63 58 51 48 46 42 40 25 49 43 37 32 27 27 21 14 9 8 11 11 13 13 14 17 18 19 21 19 15 12 8 9 10 12 11 9 9 8 9 10 9 9 8 9 11 13 17
71 69 65 63 57 56 47 40 35 37 36 35 33 30 31 29 24 18 13 11 11 13 12 16 14 13 18 20 23 22 16 12 8 5 5 6 8 8 9 7 6 5 6 7 6 8 10 12 16
77 75 72 68 66 61 51 43 37 33 33 35 34 33 35 31 26 22 18 14 13 11 13 14 19 16 15 19 21 22 19 15 12 9 6 4 4 5 5 6 6 4 3 3 5 7 8 11 16
82 79 77 77 74 57 57 49 44 39 38 40 38 38 38 31 28 27 22 18 19 15 14 14 15 19 18 17 18 20 21 19 17 13 9 6 5 4 4 4 4 5 2 1 3 5 7 12 16
87 87 82 79 74 60 64 53 48 48 45 41 29 39 40 33 33 32 27 22 20 21 15 17 17 14 19 19 17 18 22 22 21 16 13 11 9 8 5 5 5 5 5 4 4 5 9 11 16
91 94 82 83 82 73 74 66 60 58 53 50 47 45 40 40 38 36 32 26 23 22 16 17 17 19 17 17 16 15 20 22 21 19 16 15 13 11 8 7 7 8 8 7 6 7 9 12 15
100 95 93 90 87 80 82 72 66 63 58 57 53 48 43 31 45 40 38 33 27 24 21 19 20 22 22 18 18 19 19 20 20 20 20 18 16 15 12 9 9 11 12 10 9 8 9 11 14
98 97 103 97 91 85 85 77 74 69 65 63 59 57 53 59 51 46 43 38 31 25 26 22 22 23 23 24 22 22 24 24 23 23 23 23 22 20 18 15 13 13 14 14 13 12 10 10 13
104 100 106 107 99 90 88 86 83 79 73 71 69 64 59 57 55 52 49 41 35 32 28 26 25 23 23 26 25 26 24 26 27 28 27 27 25 24 22 19 17 17 17 17 17 16 13 12 12

GFSSGP_250_spd_060.txt.gz
Wind_Speed
10 8 6 3 4 3 7 11 4 8 15 16 21 24 21 24 38 36 44 48 48 39 40 25 16 20 18 17 16 11 6 7 10 10 13 19 17 13 12 11 9 6 3 3 2 3 5 2 4
13 9 7 1 2 5 5 4 7 15 18 17 23 21 23 33 34 43 45 51 52 39 38 22 16 21 20 16 18 14 13 14 14 16 19 15 13 10 8 5 2 3 2 0 1 5 6 2 1
16 9 6 2 3 5 8 9 14 15 18 20 8 23 27 23 34 42 45 49 51 39 36 20 15 20 19 15 18 16 14 16 19 19 16 12 7 5 3 3 5 5 8 7 6 6 5 2 2
16 10 7 7 4 5 10 14 14 13 21 19 14 21 25 42 42 40 45 49 50 40 31 17 14 20 20 15 17 17 17 16 19 16 13 9 6 6 8 8 10 8 9 12 9 8 11 16 15
17 11 12 10 9 5 7 10 13 11 17 17 15 23 32 32 40 46 47 49 48 43 22 12 12 20 17 12 16 17 19 21 19 18 14 12 12 14 17 17 17 16 16 23 37 37 34 36 39
20 14 12 12 12 11 7 8 13 6 11 11 18 27 32 39 37 44 46 50 45 43 9 10 12 18 14 12 15 18 18 18 20 18 19 19 22 23 23 25 25 25 28 43 45 45 47 47 46
20 16 14 13 10 12 12 10 12 15 9 22 28 27 31 31 39 39 45 51 43 31 10 11 15 17 14 12 14 18 19 18 19 22 24 24 29 32 34 38 38 47 51 46 48 47 43 41 40
20 16 15 16 19 19 14 7 13 12 13 21 25 26 37 39 36 39 44 47 43 10 15 13 17 18 15 15 13 16 17 19 26 23 26 29 35 39 44 47 51 49 45 42 41 40 41 37 38
24 18 18 18 19 17 7 8 11 6 15 25 17 23 31 30 36 39 45 44 42 9 17 16 19 22 18 21 18 17 17 22 25 30 34 39 41 44 48 48 46 43 41 38 38 37 36 35 32
26 20 12 22 21 17 12 18 17 20 23 19 22 30 28 30 35 40 45 41 27 12 17 18 19 20 19 18 22 23 21 22 27 35 40 43 43 42 44 44 41 38 35 32 31 35 33 33 33
28 26 21 18 20 20 17 16 20 22 18 20 23 24 26 29 32 39 43 39 9 13 16 17 15 14 17 15 15 17 21 24 33 39 41 42 44 42 37 37 36 37 34 30 28 27 33 39 35
31 27 31 26 21 19 15 12 5 1 18 32 23 18 24 26 32 35 39 33 5 11 14 12 15 16 15 16 13 19 23 29 34 41 40 41 37 37 33 34 35 30 35 31 30 32 32 25 35
37 36 30 27 27 22 16 16 22 18 23 8 17 25 23 26 31 35 34 25 4 8 12 9 13 15 17 17 18 19 24 32 36 38 35 35 37 34 34 33 28 30 29 27 33 29 30 30 32
40 37 33 29 27 25 23 25 28 16 27 34 31 27 22 25 29 33 30 22 6 3 9 6 12 14 19 20 22 25 26 33 38 37 39 35 35 31 32 25 24 24 27 26 28 27 30 31 33
46 43 37 33 32 30 24 26 25 27 42 39 33 29 22 23 26 31 27 20 7 1 11 8 11 13 15 20 24 27 28 32 32 33 33 30 31 28 27 23 20 19 22 23 26 26 27 29 32
51 48 43 39 36 35 34 31 27 22 25 31 27 27 21 22 27 29 24 18 7 3 12 11 12 13 14 19 21 26 26 26 27 25 24 23 24 24 20 16 12 15 16 22 25 26 27 29 30
54 54 50 46 42 41 36 30 27 27 33 35 35 29 22 24 26 26 20 15 8 2 13 12 14 13 13 16 17 21 23 24 26 22 20 19 17 19 18 9 14 13 18 24 24 24 26 28 29
58 57 56 52 48 44 40 35 29 36 35 33 34 27 24 26 25 24 17 11 8 4 14 13 16 15 13 15 16 16 20 21 21 23 22 20 20 22 20 17 14 16 18 21 22 25 26 27 29
53 56 56 56 52 49 45 39 34 31 35 40 36 28 26 27 25 24 16 12 8 7 16 14 17 16 14 15 17 17 17 18 18 18 18 18 18 18 18 17 15 15 16 19 22 23 25 26 28
56 53 53 56 57 55 51 46 40 37 35 32 34 20 26 25 26 23 15 13 9 10 17 18 16 16 14 15 16 18 16 15 15 16 16 15 16 16 13 12 13 13 14 15 17 18 21 24 27
61 59 60 56 53 54 53 51 44 42 29 32 41 37 33 30 27 22 17 13 10 8 13 21 19 15 16 15 16 17 15 13 13 13 13 13 13 13 11 10 10 9 10 11 13 15 16 20 25
65 65 65 60 56 51 49 47 48 45 22 33 40 45 41 36 31 21 17 12 10 9 12 17 19 20 18 18 18 18 17 13 11 10 9 9 11 11 10 9 7 6 7 10 11 12 14 18 23
69 70 68 66 60 55 48 45 47 52 52 58 44 37 39 35 32 24 21 16 15 12 12 16 18 20 21 21 21 19 16 14 10 9 6 6 5 6 8 7 6 4 5 7 9 13 13 16 20
74 73 72 70 67 57 51 45 45 42 47 50 42 30 33 29 28 28 25 20 17 14 12 16 21 19 22 24 24 22 19 15 11 7 5 4 3 4 4 4 3 2 2 5 7 10 12 14 18
77 77 74 75 73 57 60 54 49 42 40 39 35 29 33 29 28 31 28 22 19 19 13 12 17 23 22 22 24 23 21 18 15 11 7 3 3 3 3 3 4 3 2 4 6 9 11 14 17
81 82 79 75 72 63 68 58 51 50 49 60 45 41 33 34 34 35 32 27 24 23 19 15 17 18 23 24 21 21 23 21 18 14 11 8 5 6 6 5 4 4 5 6 7 8 10 11 14
85 88 78 79 75 71 73 68 62 59 53 53 54 53 28 36 37 38 35 32 29 26 23 15 18 18 19 21 24 23 23 23 21 19 17 13 11 10 10 8 7 6 6 8 9 9 10 11 13
93 87 89 84 81 75 78 73 69 64 58 55 50 46 53 47 37 42 37 38 34 28 27 24 22 21 19 20 22 23 23 23 22 22 20 19 16 15 13 11 9 8 8 9 10 11 10 12 12
91 93 95 94 88 80 79 77 74 70 66 60 52 51 43 40 46 37 39 43 39 33 31 28 27 26 24 23 24 27 27 25 22 22 22 22 20 19 16 15 13 12 11 11 12 13 12 11 12
100 95 99 103 96 87 84 80 79 81 75 68 63 58 61 61 52 58 42 50 44 40 35 30 28 29 26 25 24 25 27 28 28 26 24 23 23 21 20 19 16 16 16 15 14 15 17 15 13

GFSSGP_250_spd_063.txt.gz
Wind_Speed
11 10 7 3 2 4 3 11 10 9 18 19 20 18 12 29 37 42 52 54 54 48 41 23 18 21 21 19 19 13 9 8 8 8 13 13 9 5 6 5 5 1 4 3 4 4 4 4 3
11 10 8 1 4 7 3 5 7 14 18 23 24 25 21 38 39 48 51 54 57 47 36 19 18 23 18 18 15 12 13 14 15 17 16 13 8 7 6 3 1 4 4 1 2 3 2 4 4
14 10 6 3 6 7 6 10 17 19 20 24 22 23 26 37 44 45 50 53 56 50 26 17 17 22 17 18 15 13 15 18 17 15 12 8 3 5 4 6 8 10 9 7 8 5 1 2 6
16 9 7 7 6 11 13 14 12 17 15 20 15 17 28 37 43 42 46 53 52 46 16 15 17 20 17 18 15 14 15 17 13 10 7 4 7 8 11 14 15 11 10 12 18 20 25 29 31
17 11 9 8 6 8 5 7 8 14 13 17 15 17 32 38 43 45 48 54 50 32 14 15 17 16 17 17 15 17 16 14 13 12 11 10 11 13 17 22 25 32 39 44 41 35 34 38 35
19 12 11 6 6 4 11 10 13 13 10 7 14 25 29 31 41 45 48 54 53 18 14 16 18 18 16 15 14 15 16 17 18 18 18 18 18 21 25 36 40 44 41 43 38 40 36 31 35
22 16 14 12 12 7 14 11 12 12 13 14 17 24 24 30 38 43 47 51 43 12 17 18 19 19 15 13 13 15 16 21 21 23 23 24 25 33 48 45 44 41 35 38 36 35 34 31 31
22 19 16 16 14 13 14 13 5 8 6 8 19 20 23 33 36 39 46 49 28 12 19 20 20 23 18 12 12 16 19 19 25 29 34 42 50 50 44 39 39 37 37 39 35 37 35 34 29
23 20 18 16 15 14 6 12 10 2 12 11 15 16 25 31 33 38 46 46 17 12 17 18 23 22 23 17 16 18 20 28 36 38 43 47 47 41 38 35 35 34 31 32 37 39 37 40 38
26 23 20 19 17 12 15 14 12 11 16 20 17 22 24 25 30 36 43 41 12 11 14 15 22 21 21 20 17 16 23 37 42 43 46 44 39 35 33 35 33 34 28 33 36 33 35 39 39
29 26 22 9 17 12 12 11 15 14 17 22 12 17 19 27 31 35 40 35 12 11 14 18 18 21 19 18 15 17 28 40 43 43 42 38 35 39 33 32 33 38 31 25 32 34 33 26 38
37 33 28 19 17 12 15 24 14 13 15 5 15 18 19 27 30 34 37 32 11 9 12 16 17 18 15 15 16 23 33 39 44 41 35 32 34 32 31 32 32 33 31 30 28 34 33 37 38
39 37 34 34 30 22 22 16 8 2 10 16 19 14 20 26 28 31 35 29 17 6 11 12 15 16 15 14 16 27 34 36 37 32 31 34 29 27 27 27 27 27 30 28 31 32 34 36 38
43 39 36 35 34 28 28 20 13 11 3 21 24 23 24 26 25 30 33 27 19 5 3 8 15 15 16 15 18 26 29 32 31 30 23 28 27 23 23 24 26 27 27 29 30 31 32 34 36
48 44 39 35 34 32 29 22 18 15 11 25 24 29 26 25 20 26 30 26 19 9 2 7 12 14 17 17 22 25 26 27 32 30 26 27 20 20 17 20 23 24 26 27 26 30 32 34 34
50 48 44 38 37 33 31 20 17 13 18 24 31 28 18 21 20 22 26 24 17 8 3 10 12 16 18 19 20 23 24 23 28 23 21 20 18 16 14 17 22 23 25 26 28 30 32 33 34
55 53 50 44 41 35 33 27 21 18 23 31 31 29 25 28 24 19 22 20 13 6 5 8 12 17 18 20 21 21 21 21 20 23 20 16 14 11 10 14 20 22 24 25 26 27 30 33 35
59 56 53 50 46 41 36 32 28 20 15 35 37 20 17 15 19 18 18 18 12 5 7 7 13 16 18 18 21 20 21 20 17 15 14 11 14 13 13 14 19 20 21 24 25 26 29 32 34
55 56 55 52 49 46 43 39 32 32 28 28 21 20 19 26 27 16 17 16 11 6 9 10 12 15 18 18 17 18 17 20 20 18 16 16 15 14 14 14 15 17 19 19 19 23 26 29 33
57 54 55 58 55 52 48 45 39 40 37 34 24 23 24 28 21 15 17 16 12 7 10 13 14 12 15 16 17 17 16 15 17 16 13 13 11 12 11 10 13 13 15 15 17 20 23 27 30
59 58 58 58 57 56 52 50 46 44 41 35 21 31 33 28 17 22 18 16 14 6 10 17 16 14 13 17 16 13 13 13 13 13 12 9 8 7 7 7 8 10 11 13 15 16 20 24 27
63 62 62 61 55 54 53 54 52 47 43 37 36 44 39 35 39 32 20 17 15 9 12 19 19 15 16 17 18 14 13 12 11 10 10 9 9 5 4 3 3 7 10 12 14 16 19 21 24
68 67 66 64 57 54 49 50 54 51 49 40 33 39 32 29 26 22 22 20 18 13 12 15 23 21 17 18 19 18 13 11 10 9 8 7 6 6 5 3 2 4 7 10 12 14 19 19 21
72 70 69 68 62 55 53 50 50 51 56 53 51 44 37 30 30 25 25 24 22 16 14 14 18 23 23 22 21 19 17 14 12 10 7 5 4 3 4 4 2 2 5 7 10 13 16 18 20
74 73 72 69 66 57 61 57 52 51 54 60 59 38 47 37 28 22 25 25 24 19 15 14 17 20 23 24 24 24 21 18 14 11 8 5 4 4 4 3 3 3 3 3 6 10 13 15 17
76 76 75 72 66 66 70 60 57 58 54 56 62 60 55 35 29 27 24 30 26 22 19 15 17 20 21 22 24 25 25 23 19 15 10 7 5 6 7 5 4 5 5 4 3 5 8 12 15
82 78 73 75 72 73 71 67 64 61 56 51 54 59 62 53 34 30 26 34 30 26 21 18 17 20 22 22 22 25 26 24 21 19 16 12 10 9 8 7 7 7 8 8 6 4 6 9 11
90 84 85 79 74 73 70 69 67 67 62 58 54 59 57 64 35 29 26 37 35 29 27 23 20 20 20 23 25 26 26 27 26 26 23 20 17 15 14 12 11 10 10 10 10 9 5 5 9
94 94 93 89 81 76 74 70 71 77 73 68 58 58 53 55 34 38 40 39 38 34 29 28 25 24 22 22 23 27 28 30 31 29 27 26 24 22 20 18 16 14 13 11 11 13 11 8 8
91 92 95 95 89 83 78 71 77 82 80 71 64 63 66 59 45 50 48 45 40 41 38 34 31 27 26 24 23 24 27 29 31 31 31 29 27 26 24 22 20 18 16 14 13 14 15 12 10

GFSSGP_250_spd_066.txt.gz
Wind_Speed
12 10 4 1 3 10 8 10 12 13 19 25 24 25 23 33 44 48 53 56 53 45 18 19 20 19 21 20 18 15 11 9 7 7 8 7 5 3 2 2 2 1 6 5 7 7 7 7 9
13 10 6 0 11 11 3 5 10 18 20 22 26 25 23 34 43 51 54 55 52 30 17 19 19 19 20 18 16 13 12 11 11 10 10 9 7 7 5 4 4 5 5 3 3 5 5 8 10
14 11 5 8 16 19 7 12 6 15 19 21 25 19 21 31 42 51 51 54 46 18 19 18 18 20 21 16 15 14 13 13 12 9 8 6 8 5 6 11 8 7 9 9 9 12 18 19 16
16 11 9 13 11 8 9 4 8 19 16 18 25 23 23 35 39 48 50 51 33 18 20 19 17 20 21 18 13 12 13 13 10 7 8 9 12 18 22 24 25 26 24 30 30 23 23 26 23
19 13 14 12 10 11 3 6 5 13 18 21 15 26 29 30 41 44 50 45 22 21 21 18 17 18 21 20 20 17 16 14 12 14 18 22 29 39 40 37 37 36 30 32 31 27 25 27 28
20 15 17 15 8 8 1 8 10 13 16 17 16 25 24 30 41 44 48 35 20 22 21 22 17 16 19 22 19 20 19 19 19 20 27 38 40 40 40 39 34 32 32 27 24 23 25 28 28
20 17 17 12 9 6 12 4 8 8 13 16 13 23 24 30 36 43 44 28 21 23 20 22 21 17 19 21 19 18 18 22 26 27 37 42 40 39 33 38 35 34 33 32 27 23 28 27 30
24 19 18 15 12 6 9 8 7 7 4 4 13 17 20 30 33 41 41 27 20 22 22 20 24 21 20 20 19 19 22 28 33 42 48 40 39 33 30 32 33 34 34 36 37 33 29 29 26
29 25 22 17 14 12 10 11 11 10 4 13 16 18 23 28 32 38 37 29 20 23 21 18 23 23 20 19 21 26 31 37 47 49 37 37 37 37 34 32 33 33 29 28 30 34 35 31 30
30 28 27 23 17 15 17 9 11 10 11 16 19 11 21 28 32 38 36 29 21 22 22 18 21 23 21 18 23 29 35 40 43 35 31 32 33 38 37 33 25 28 30 36 34 34 37 37 32
30 29 29 23 20 21 18 14 12 6 5 4 14 14 20 24 30 35 37 30 22 18 21 15 19 21 19 20 26 34 39 40 34 33 33 30 31 35 34 33 30 28 30 33 32 36 37 37 35
35 33 30 24 18 26 20 13 12 5 5 8 7 14 15 19 30 31 35 30 22 14 18 13 17 19 20 24 32 35 39 34 30 29 31 28 27 28 30 30 28 28 30 30 33 35 35 37 34
38 34 30 28 24 21 16 14 13 3 5 17 18 16 18 20 27 28 31 29 21 12 12 13 14 16 21 27 32 34 33 29 24 25 26 25 24 26 28 27 28 27 29 31 32 33 35 36 38
42 39 36 33 32 27 21 14 11 7 8 18 26 18 22 21 25 25 27 28 20 12 7 10 12 14 21 29 29 33 30 23 25 20 22 21 19 23 25 24 28 28 29 31 31 32 33 35 35
48 44 42 39 36 36 33 25 20 18 16 12 23 22 21 18 20 23 23 25 19 13 3 6 9 14 19 25 26 27 24 22 20 20 17 13 14 18 22 23 27 27 28 29 31 32 32 33 35
54 51 48 43 42 39 36 31 25 22 18 16 18 23 15 17 21 19 17 21 19 10 3 5 7 12 17 22 22 21 21 22 18 16 17 12 11 15 20 23 25 26 26 27 29 30 31 31 32
58 55 51 50 45 44 42 35 29 24 19 17 16 18 24 23 22 11 13 18 17 9 2 6 6 11 15 20 21 19 20 19 15 13 9 6 7 13 17 22 23 23 23 23 25 29 30 30 31
60 56 53 52 48 45 45 42 35 25 21 15 21 23 28 19 13 12 10 13 14 8 4 8 8 12 14 18 19 18 19 17 15 12 9 5 5 13 16 17 18 18 19 22 25 28 29 29 29
61 60 58 58 53 49 44 41 35 31 28 19 26 25 19 16 15 15 7 10 13 9 5 10 13 13 17 17 18 18 17 16 12 10 6 8 8 12 13 15 15 17 18 19 22 25 24 28 28
59 59 63 62 56 53 49 46 42 40 37 37 34 23 26 17 14 12 6 9 15 11 5 12 14 17 17 19 19 18 17 16 15 13 10 10 9 9 11 11 12 12 15 16 19 22 22 24 29
59 59 62 62 58 55 52 48 48 45 44 40 36 23 23 19 18 12 11 9 15 15 9 15 17 17 20 19 19 17 16 15 15 14 10 8 7 7 7 7 6 9 12 16 17 20 20 22 26
61 63 62 59 55 56 57 55 50 52 49 44 42 37 35 26 30 22 20 24 20 16 13 15 19 18 18 21 19 18 16 16 15 11 10 9 6 4 4 3 3 6 10 12 15 19 20 20 23
69 67 66 59 55 53 54 55 58 56 50 47 45 41 33 33 33 32 20 26 15 17 15 15 21 22 20 21 21 19 17 15 12 10 8 6 5 4 2 0 1 5 7 10 14 16 18 20 19
72 70 68 64 59 56 57 54 58 57 59 59 54 47 48 43 26 21 21 22 16 19 18 16 18 25 24 22 23 21 18 15 13 11 9 8 5 4 4 3 3 4 6 7 9 12 15 16 17
76 74 73 70 65 61 63 58 59 62 62 61 58 53 52 45 37 31 28 19 21 22 20 17 19 19 25 25 26 25 21 18 14 11 9 6 6 3 2 2 5 7 6 6 6 9 10 13 15
76 77 75 73 69 68 70 62 59 63 59 61 61 59 57 52 44 36 34 18 22 26 23 18 20 20 22 28 28 27 25 22 19 15 10 8 5 4 6 6 6 7 7 7 6 5 8 11 13
80 78 77 75 74 71 72 66 68 69 61 58 57 61 65 63 53 45 43 27 23 29 22 19 20 21 23 26 28 28 28 25 22 19 17 13 10 8 8 8 8 9 8 7 6 5 7 9 10
82 83 83 80 78 73 72 70 74 75 70 65 59 59 63 62 57 48 44 39 27 36 31 22 23 20 21 28 28 27 27 28 27 24 21 19 17 15 15 13 12 11 10 9 9 6 6 9 9
90 91 85 81 78 76 74 74 81 77 76 71 62 56 57 58 57 57 52 39 32 34 38 32 31 27 25 25 28 28 28 29 30 28 26 24 22 21 20 18 17 16 15 14 12 11 9 10 12
98 97 92 88 84 80 75 80 84 84 82 78 69 63 58 60 57 60 59 47 33 32 37 33 31 32 29 26 26 29 30 30 30 30 30 29 28 26 24 23 22 21 20 17 15 14 12 12 12

GFSSGP_250_spd_069.txt.gz
Wind_Speed
12 10 6 4 19 8 2 3 12 8 18 21 28 31 37 32 45 49 53 47 25 22 21 19 19 21 22 20 20 18 16 15 15 15 16 15 13 10 9 7 5 7 10 7 8 10 10 11 13
13 10 7 19 12 14 3 3 7 12 18 23 27 30 34 36 41 49 51 33 26 24 22 18 22 24 22 22 21 20 19 18 17 16 16 14 11 8 9 8 7 6 8 8 8 7 7 8 9
14 11 13 14 11 8 3 10 4 14 21 23 29 29 31 35 43 48 46 27 28 25 23 18 24 26 22 20 21 19 18 15 12 11 10 12 12 10 6 3 3 6 9 15 18 18 14 15 14
14 14 15 10 20 9 7 5 10 18 22 24 23 28 30 34 45 45 36 31 27 25 23 20 25 27 26 20 19 15 13 12 10 10 14 21 21 22 22 21 20 22 22 20 16 14 15 18 20
19 15 11 7 8 14 7 1 5 13 20 23 28 25 28 37 37 42 31 31 28 25 26 22 24 26 23 21 19 16 17 19 21 30 37 33 32 30 28 25 26 26 20 19 17 20 24 24 22
22 17 15 7 9 5 12 11 10 12 17 19 19 23 28 31 40 40 32 29 30 25 27 25 22 26 22 20 21 23 29 33 39 44 41 38 33 33 29 28 22 19 18 21 23 20 20 21 24
24 22 16 12 9 12 12 8 10 11 12 15 14 19 26 30 39 40 35 27 30 26 23 24 21 25 22 21 23 28 38 45 46 40 34 37 34 29 30 34 35 34 33 28 23 23 22 23 28
28 23 18 15 15 17 9 8 8 8 12 19 12 14 22 31 36 41 36 27 28 27 25 23 20 24 24 25 27 37 49 44 42 36 31 31 31 34 33 28 27 26 32 32 29 30 27 27 29
30 28 22 19 19 12 11 9 11 10 11 8 18 21 21 24 33 39 38 28 25 27 22 25 19 22 26 30 36 49 44 42 42 39 35 32 28 28 30 30 32 32 32 35 35 35 32 31 28
33 29 26 23 19 16 13 7 6 8 10 15 18 9 18 21 29 36 39 28 23 26 23 24 20 21 28 36 43 46 36 34 34 37 36 34 31 30 28 31 31 33 34 36 36 38 34 30 29
38 31 31 25 22 18 15 12 12 9 10 12 6 12 19 25 31 34 37 31 23 23 23 22 19 21 24 36 40 36 30 27 31 31 34 33 30 28 28 29 29 32 32 32 35 38 38 33 32
40 35 33 28 26 23 17 17 11 10 5 4 13 19 18 27 28 31 34 32 23 20 21 20 17 20 25 34 36 33 28 29 29 28 31 30 27 26 26 28 29 32 33 32 34 37 38 36 35
38 35 35 30 28 25 20 22 17 12 11 11 18 13 19 22 24 29 31 30 23 17 16 18 15 22 28 33 31 30 25 23 25 25 26 28 26 25 26 27 29 31 32 30 33 36 37 33 33
43 40 39 33 33 29 21 21 22 17 11 9 20 18 23 24 26 24 24 27 23 14 13 16 12 23 26 30 27 23 21 21 22 21 20 24 23 23 25 27 28 30 31 32 32 34 37 33 32
47 46 45 39 37 31 26 23 16 18 14 12 21 15 28 23 17 28 18 22 20 11 9 12 10 20 22 27 24 17 21 18 17 16 16 21 22 24 26 25 25 28 30 31 30 31 35 36 32
53 49 48 44 40 36 33 33 32 24 20 15 18 25 27 19 17 23 15 16 18 11 6 7 8 14 18 24 21 14 17 16 13 14 12 19 19 23 23 23 22 25 28 28 30 31 32 35 34
58 54 52 46 43 39 38 37 37 32 24 22 19 14 11 18 21 19 13 14 15 12 3 2 5 9 18 20 17 14 13 15 12 9 6 15 18 19 20 19 20 24 26 30 28 31 29 33 35
63 58 57 53 49 46 41 39 37 34 28 25 21 16 12 18 22 16 12 12 15 13 5 3 4 5 12 15 14 15 14 11 9 5 7 11 14 16 15 16 18 21 22 27 26 29 31 31 34
63 64 63 59 55 51 49 46 42 33 30 30 26 22 18 17 12 12 8 6 11 12 9 5 6 5 9 14 14 15 16 13 8 5 6 9 11 10 12 14 14 19 20 22 24 25 28 26 29
65 66 65 63 60 56 52 49 48 42 36 33 33 27 23 22 19 17 7 5 9 14 12 5 10 10 9 11 14 14 14 11 9 6 11 8 8 7 8 11 13 15 18 21 24 23 25 27 26
64 68 67 64 60 61 58 55 50 48 41 40 36 29 26 22 17 14 13 7 15 12 13 8 11 14 14 13 14 15 14 12 11 9 9 10 7 5 5 7 10 12 13 18 21 21 21 25 26
64 69 67 63 60 61 60 58 52 52 48 47 45 39 35 26 22 18 18 14 17 22 13 10 11 16 19 18 18 14 14 14 11 10 8 7 7 4 2 2 6 9 11 15 18 20 20 22 26
71 71 66 63 58 56 60 61 58 54 55 53 50 46 43 38 30 26 23 22 23 24 13 9 12 18 18 20 18 16 17 16 12 11 10 10 8 5 3 1 3 7 9 11 15 16 19 19 22
74 73 70 64 60 57 57 56 60 62 63 59 53 51 47 42 37 32 28 28 19 16 12 11 13 18 22 20 22 17 16 14 14 13 11 10 8 6 6 5 1 3 5 8 10 12 15 17 18
75 76 74 71 66 63 63 61 62 65 66 65 59 53 48 43 39 35 33 25 22 19 17 13 15 16 22 23 22 21 18 16 15 15 13 11 9 7 5 4 1 2 4 6 8 9 12 13 14
76 76 77 74 72 70 68 67 65 63 63 64 62 59 56 49 44 42 39 31 28 21 24 20 16 18 22 26 24 23 23 20 17 16 14 11 9 7 7 4 2 4 4 5 5 6 8 10 13
80 78 78 78 77 75 74 71 72 68 64 62 62 62 61 59 51 47 46 44 39 26 22 23 20 19 22 28 29 26 26 26 22 20 17 15 13 10 9 7 4 6 6 3 4 5 6 7 10
83 82 82 80 78 78 80 81 76 72 65 61 58 60 61 59 56 53 48 46 43 33 27 30 34 26 22 26 30 30 27 27 27 25 23 20 17 15 14 10 9 9 8 5 5 7 7 7 8
88 86 86 85 83 82 83 82 77 75 71 65 62 60 58 58 58 56 55 47 47 39 32 30 34 35 28 27 27 28 31 30 30 31 28 26 23 21 19 16 15 14 13 9 9 9 9 9 9
92 91 89 89 89 89 86 85 81 79 75 71 68 64 60 60 59 59 56 52 49 44 38 34 30 36 34 27 26 26 27 29 31 33 32 30 28 26 24 22 20 19 18 14 12 11 11 10 11

GFSSGP_250_spd_072.txt.gz
Wind_Speed
12 8 5 15 19 10 2 3 9 9 17 31 33 34 38 41 48 43 33 34 28 27 22 22 22 25 25 23 21 21 21 22 22 18 15 14 11 11 10 9 8 7 9 5 6 8 10 12 14
13 10 10 12 17 9 10 3 6 6 20 31 33 32 37 42 48 39 35 30 27 26 24 24 25 26 27 26 24 23 23 22 19 19 18 14 12 10 12 12 10 12 12 11 9 8 10 12 13
14 13 19 15 13 9 4 5 10 10 24 25 31 29 37 40 47 38 37 33 30 26 24 23 24 23 22 22 21 21 22 22 23 22 21 21 20 16 12 12 14 20 17 13 12 14 13 16 18
16 17 16 16 13 6 6 9 10 16 17 23 27 24 33 38 45 41 36 36 31 26 23 21 21 23 21 19 17 18 20 20 23 23 26 26 25 27 26 24 22 19 18 13 17 18 20 18 20
19 17 11 12 10 5 9 10 8 14 16 22 20 24 28 39 44 42 37 38 32 26 22 21 20 22 23 22 21 23 26 30 31 32 28 27 28 25 24 22 19 19 18 15 15 18 17 18 25
21 17 11 14 4 5 3 5 6 7 13 20 22 25 28 35 43 43 38 36 32 26 21 21 21 24 26 26 30 34 39 36 33 34 34 33 32 32 27 27 24 19 18 19 19 16 18 24 30
23 18 12 14 14 14 4 8 6 8 13 18 23 24 25 33 41 46 38 34 36 32 22 22 22 26 30 36 39 41 37 37 38 35 30 32 29 27 25 30 29 28 28 28 22 22 23 28 36
25 21 16 16 17 3 4 7 9 14 13 18 23 24 23 28 40 45 40 33 35 32 21 22 25 29 39 40 39 37 34 31 36 34 35 30 27 31 28 29 30 33 34 32 27 25 24 28 32
29 28 22 20 16 13 11 8 2 18 14 17 18 24 18 28 34 40 45 36 32 31 22 19 26 35 44 42 40 38 36 32 29 27 28 27 27 28 29 30 32 35 36 37 35 32 30 28 32
31 31 28 24 19 15 12 10 10 9 9 7 10 14 20 28 31 38 44 38 31 31 23 17 24 35 45 40 38 37 36 35 34 31 29 29 26 28 31 31 34 34 37 36 36 37 35 31 29
36 34 30 27 22 17 13 11 9 9 9 5 4 9 20 27 28 38 37 36 31 28 24 15 19 26 33 32 31 30 32 33 32 30 29 27 27 28 31 32 32 34 36 38 35 35 35 34 30
38 39 36 31 26 19 14 13 9 9 6 7 13 11 13 23 26 34 33 34 32 24 23 14 15 22 28 26 26 27 29 28 31 28 25 26 26 29 31 33 33 34 36 38 37 35 35 35 33
36 42 41 36 29 25 23 17 10 14 10 6 7 15 15 17 17 28 34 31 29 22 21 15 13 20 23 23 23 22 26 26 27 27 23 25 27 27 30 35 34 35 34 35 39 37 37 38 34
40 46 44 40 34 30 26 22 20 17 16 16 11 11 14 16 17 22 29 28 27 21 19 14 12 16 19 20 18 18 21 21 23 25 23 23 26 27 30 34 34 34 34 34 37 38 38 39 37
43 47 44 40 34 30 28 25 19 21 13 6 13 10 19 15 17 21 23 23 24 21 16 12 10 9 15 17 16 17 16 18 19 22 21 21 23 25 28 31 32 32 33 35 34 36 39 41 38
49 47 45 41 35 33 29 27 21 22 21 12 18 14 16 8 12 14 18 20 21 20 13 12 5 7 10 10 12 14 13 15 15 20 18 17 21 23 26 27 29 31 31 34 33 35 39 39 38
56 51 46 45 41 37 35 32 28 27 24 16 20 18 7 13 12 11 12 14 18 19 12 8 5 2 6 6 7 11 8 10 11 11 13 14 17 18 22 26 26 27 29 29 33 32 35 38 38
60 56 51 48 46 44 41 37 35 30 33 27 22 19 10 14 15 11 7 7 14 17 15 7 4 1 4 5 2 5 5 4 7 10 10 13 14 18 18 22 24 25 26 26 30 32 33 36 38
64 61 56 52 51 48 44 40 37 34 32 28 25 21 18 18 14 8 6 5 10 16 15 8 4 1 4 4 5 6 3 3 4 8 7 7 10 15 16 18 20 23 25 25 27 31 32 34 36
66 64 63 58 55 52 48 44 42 39 38 34 31 25 25 20 16 15 13 5 7 11 14 11 5 5 3 6 5 6 4 2 2 5 5 4 5 9 11 14 17 19 22 24 25 28 31 32 33
72 68 65 63 62 58 55 52 48 45 41 37 33 32 28 26 22 19 15 8 8 11 12 12 8 8 7 4 6 7 6 5 2 4 4 3 2 4 6 9 12 15 19 21 23 25 28 30 30
71 74 69 64 65 64 63 59 56 52 46 42 36 34 32 28 23 21 18 13 11 11 12 9 8 10 10 9 8 7 7 6 4 3 4 2 3 2 4 7 9 13 16 18 21 22 22 26 28
75 73 69 65 61 65 65 65 62 59 57 50 44 41 37 33 27 21 21 18 18 13 15 13 7 10 12 14 12 12 12 12 8 8 7 5 7 7 4 4 5 8 12 15 16 18 18 21 25
76 72 70 66 62 59 62 65 64 62 60 58 53 49 44 39 32 32 31 28 21 21 16 10 8 9 15 14 14 16 17 16 14 14 10 8 7 8 7 6 6 6 8 10 12 14 15 17 20
77 75 72 69 65 62 62 65 66 64 62 59 57 54 49 43 39 43 40 35 27 26 22 13 15 11 15 18 15 17 18 17 13 12 11 9 6 6 8 6 7 7 9 8 8 9 11 14 15
79 79 78 74 70 66 66 65 62 62 63 61 59 59 57 52 46 44 42 39 32 28 25 19 17 18 17 21 19 18 20 20 16 13 13 11 8 9 8 5 6 6 7 8 8 8 8 10 12
79 79 79 78 77 73 70 67 65 62 60 60 60 59 59 56 51 45 43 43 36 32 26 22 19 22 20 20 23 24 22 22 20 17 16 14 12 12 11 8 7 7 4 7 8 9 9 8 9
82 81 80 79 77 77 75 72 69 67 63 59 58 57 57 58 55 51 49 43 40 36 37 29 24 22 25 28 24 25 27 25 25 25 21 19 17 16 14 13 10 10 8 7 8 9 10 9 8
85 84 83 81 78 77 77 76 74 72 69 65 61 60 57 57 56 53 53 51 46 41 41 36 35 25 28 30 30 25 28 30 29 27 28 25 22 21 18 17 16 13 11 9 10 10 10 11 11
88 86 85 84 81 78 77 77 78 76 74 71 68 64 63 60 57 55 54 52 51 51 47 39 35 29 27 29 29 27 26 28 29 31 30 29 25 24 24 23 22 19 19 16 13 12 11 11 12

GFSSGP_250_spd_075.txt.gz
Wind_Speed
10 7 9 13 10 9 5 4 11 7 16 27 29 33 38 46 42 38 39 33 24 23 23 23 24 23 20 21 21 23 23 20 17 14 11 9 9 10 11 12 10 9 9 6 4 6 8 10 10
12 10 1 13 8 4 1 6 5 9 15 25 27 31 35 46 41 38 42 32 26 24 23 22 23 24 25 24 22 23 21 22 20 18 17 12 14 16 14 11 11 13 13 11 10 11 10 13 14
13 9 19 10 4 5 3 5 7 10 21 25 24 28 33 45 50 40 43 35 25 25 23 22 21 23 24 22 23 22 22 22 24 28 29 28 23 19 16 18 16 14 13 16 10 14 14 19 18
19 17 16 10 8 4 3 12 12 13 18 22 28 31 33 45 53 41 43 38 25 23 24 22 25 25 24 24 26 29 29 31 32 32 32 31 29 25 22 17 18 14 10 10 12 17 20 22 16
22 18 18 10 9 7 7 5 11 12 14 21 27 32 33 39 46 42 41 39 26 24 25 22 26 30 32 35 36 35 33 34 33 32 30 29 25 20 19 19 16 13 13 13 13 16 20 25 19
21 18 16 10 5 5 1 5 8 15 17 20 27 27 30 39 45 44 42 40 28 26 25 23 26 32 37 37 35 36 34 34 35 33 31 30 29 26 24 22 22 18 14 14 17 19 23 30 22
23 20 15 15 16 11 6 5 12 16 19 24 21 24 24 31 40 46 42 37 29 24 24 25 30 37 37 36 33 33 31 31 32 26 26 26 26 27 27 26 27 25 23 22 20 22 24 34 29
26 20 16 18 18 5 5 8 4 9 15 18 16 25 25 31 39 44 43 36 30 22 22 31 35 37 33 31 31 29 30 29 28 26 27 26 27 26 26 27 30 32 32 28 25 21 27 32 39
28 23 21 19 20 10 3 7 5 9 15 15 11 9 19 26 37 44 45 35 31 21 21 27 33 33 31 30 30 26 23 26 26 27 27 27 27 26 26 30 33 31 32 31 28 26 26 30 36
32 28 25 23 19 10 8 5 11 19 14 10 11 13 18 22 27 40 43 36 33 22 19 27 28 32 32 32 32 30 27 27 27 27 26 27 29 29 29 31 35 35 32 33 31 27 28 30 35
33 31 29 27 22 16 16 23 18 14 8 8 9 15 16 18 24 34 36 36 31 21 17 23 22 23 25 25 30 31 26 25 26 25 24 28 33 32 32 33 35 38 36 35 34 30 27 30 32
39 35 31 31 26 19 13 12 13 13 6 4 8 9 13 15 19 27 32 33 28 21 15 17 17 16 16 19 24 28 29 25 24 24 24 28 32 33 34 36 35 38 38 36 36 34 29 27 29
44 40 37 33 31 24 20 13 11 12 11 8 13 12 9 13 18 24 27 29 26 22 15 12 17 15 13 15 18 23 27 26 23 22 24 27 31 32 33 36 38 36 39 39 38 37 33 28 26
50 45 41 37 32 29 26 20 18 14 12 14 11 9 10 12 17 20 25 24 24 21 15 12 12 12 12 12 15 18 22 24 22 20 24 25 28 30 33 35 37 37 36 39 38 37 36 32 26
52 47 43 41 38 34 30 26 25 20 17 12 8 4 9 9 14 17 19 20 22 18 17 11 11 9 10 9 11 15 18 21 20 18 22 24 26 27 30 32 34 37 36 36 39 38 36 34 31
50 46 41 39 39 37 34 32 27 22 16 13 10 7 6 5 13 12 15 15 20 19 15 10 8 6 8 7 8 12 15 16 17 15 17 20 24 26 28 31 32 34 37 36 38 38 38 37 35
54 51 44 39 38 35 34 32 29 26 22 21 13 8 8 2 9 10 9 11 17 21 15 12 6 4 3 4 5 5 9 12 14 14 15 17 21 24 26 28 30 32 34 36 36 37 38 39 37
59 54 49 45 40 37 36 33 32 27 24 25 17 11 13 9 8 7 5 7 12 17 18 12 8 4 1 1 2 4 5 9 11 12 12 14 17 22 24 25 29 29 31 34 36 35 36 37 38
63 58 54 51 45 41 39 36 35 33 31 29 29 25 17 16 6 6 2 3 7 15 12 14 7 4 2 2 3 4 5 6 8 8 8 10 12 19 21 22 24 26 28 29 32 34 35 36 38
67 63 58 56 52 47 42 40 39 37 35 33 30 25 19 20 13 10 11 2 3 13 12 10 9 4 2 0 3 4 3 4 6 3 5 7 10 14 18 20 19 22 25 26 29 31 34 34 36
72 68 62 59 58 55 51 46 43 40 38 35 28 26 22 23 19 13 15 10 7 6 11 14 8 4 1 2 3 4 4 4 3 3 4 5 8 12 14 16 17 18 21 23 25 27 30 33 34
75 74 67 63 60 59 57 53 50 47 43 40 37 30 29 27 25 19 20 15 13 9 9 13 12 2 2 4 4 4 2 3 2 3 4 7 8 10 12 12 14 16 17 19 22 23 26 29 32
76 76 71 66 64 64 62 60 57 54 48 46 42 39 34 31 28 24 23 20 16 13 10 11 11 8 3 6 7 6 7 5 4 5 7 9 10 8 9 11 12 14 15 15 18 21 22 23 26
73 72 69 65 67 67 65 65 62 58 54 50 47 44 40 37 32 27 28 22 19 17 15 14 11 12 8 7 9 10 10 9 6 8 8 11 12 7 6 7 8 10 13 14 15 16 17 19 20
75 71 69 67 64 64 67 67 64 62 61 58 55 52 48 44 38 33 32 28 25 23 21 20 17 16 13 11 11 10 12 11 8 8 8 9 10 8 5 6 6 8 11 12 12 12 12 14 16
80 76 72 69 63 63 64 66 66 64 63 62 60 59 56 50 47 45 40 37 33 32 28 25 21 21 18 15 16 14 16 15 14 11 11 9 10 10 5 7 7 7 7 10 11 11 11 11 14
80 79 76 73 71 69 67 66 66 65 64 63 62 61 58 55 52 47 46 41 39 39 33 28 25 18 15 18 19 19 20 17 16 17 16 13 11 10 7 5 7 7 7 7 7 9 9 9 10
81 82 80 77 76 73 69 66 65 65 63 62 61 61 60 58 55 53 50 46 41 41 37 32 31 26 14 18 20 24 23 23 22 22 21 18 16 13 10 8 6 6 6 7 8 6 9 9 10
83 80 79 79 78 76 73 71 68 66 64 63 61 61 60 59 57 53 52 50 47 45 43 40 38 34 23 18 17 23 23 27 25 25 23 22 20 18 16 12 11 9 10 10 11 10 9 9 9
86 84 81 79 78 78 78 77 75 72 70 67 65 63 61 59 57 53 52 54 52 51 50 44 40 38 38 28 25 20 22 24 28 28 26 25 23 21 20 19 16 16 15 14 14 12 11 9 10

GFSSGP_250_spd_078.txt.gz
Wind_Speed
9 6 8 11 5 5 8 9 5 9 19 27 31 33 41 41 37 36 30 24 22 20 19 17 18 19 20 21 22 20 17 13 11 9 10 10 11 10 9 6 6 8 7 5 5 6 7 7 8
11 5 12 12 3 2 6 10 4 8 21 26 32 35 41 44 37 37 31 26 23 21 18 18 21 23 24 24 23 22 22 22 19 16 17 17 16 12 10 13 12 10 7 5 8 7 8 8 8
12 10 13 8 4 5 7 8 3 10 21 27 29 35 40 47 40 37 31 29 24 22 19 20 21 22 24 25 27 28 27 31 32 26 22 20 18 16 14 12 8 5 4 7 9 7 11 10 6
12 16 12 7 8 12 4 4 10 14 18 24 24 30 40 47 47 38 32 30 25 22 21 21 23 24 28 30 32 31 30 31 32 31 27 22 17 15 13 11 7 6 5 5 8 13 15 11 8
16 18 12 5 3 5 7 5 7 15 20 21 24 31 33 44 52 40 33 30 25 24 25 29 34 35 34 32 32 31 32 30 29 29 26 21 17 17 15 11 7 6 8 9 11 19 18 13 14
21 19 12 14 10 12 3 4 7 11 17 17 26 23 35 41 55 44 34 28 27 25 31 37 38 38 37 34 32 31 31 28 27 25 23 22 19 19 18 16 16 13 13 14 16 21 18 16 20
24 19 16 15 15 9 6 1 5 5 15 15 19 21 28 35 48 44 35 28 27 31 35 34 34 34 32 30 27 26 25 26 25 23 22 20 19 21 21 23 23 20 20 15 19 22 21 22 23
24 24 21 20 16 10 1 5 9 2 11 16 17 23 26 35 39 45 36 27 26 30 30 29 29 30 28 29 27 24 24 24 23 22 23 24 24 27 26 21 23 24 22 19 17 23 24 22 22
28 25 25 22 20 10 3 9 4 4 13 20 18 20 27 25 34 41 35 27 24 23 27 27 29 30 25 21 23 26 26 25 26 26 26 27 28 30 32 26 25 24 23 22 21 24 28 28 25
32 26 24 23 19 11 6 7 12 13 12 13 12 19 23 24 30 36 33 27 24 22 26 27 30 30 29 26 25 26 25 25 27 29 30 32 33 31 33 31 28 27 26 24 23 22 24 28 29
36 29 26 25 21 15 13 15 9 7 8 10 13 15 19 22 27 34 31 27 22 18 20 23 21 23 27 27 23 25 25 26 28 30 31 31 34 34 33 35 32 31 30 25 24 23 26 28 33
37 36 31 29 24 20 17 21 19 11 8 8 13 12 15 19 24 30 27 25 21 17 14 14 15 16 19 25 25 26 25 25 27 30 31 32 33 35 34 34 36 33 32 31 26 23 23 27 30
45 38 35 32 29 25 18 14 14 14 9 7 10 10 14 15 19 24 24 22 20 18 13 8 9 12 13 18 23 25 24 24 25 28 29 31 33 35 37 35 35 36 34 33 31 24 22 24 28
49 44 39 34 30 27 23 18 11 14 9 8 8 7 10 14 19 22 20 19 19 17 16 13 8 11 11 13 19 22 23 23 23 27 29 28 31 33 34 36 35 36 38 36 34 31 21 22 25
52 47 42 38 33 30 28 24 20 21 12 11 10 1 5 8 14 17 16 16 16 18 14 12 12 8 9 10 14 18 21 19 21 23 26 28 29 30 32 34 36 36 37 38 36 36 28 20 22
55 51 46 42 35 33 32 29 28 23 21 16 12 8 1 2 11 12 12 14 15 16 14 12 9 9 8 9 10 13 17 18 17 19 23 25 27 29 30 32 34 35 35 36 37 37 35 24 21
57 53 46 45 38 37 37 31 27 27 22 18 16 11 9 2 5 8 8 12 14 16 12 12 9 6 4 5 8 8 11 15 16 16 18 23 25 27 27 29 31 33 34 35 36 37 36 34 27
57 55 51 49 40 39 38 36 36 30 25 23 20 16 12 6 1 6 4 7 9 15 14 9 9 7 3 2 6 7 8 10 12 12 15 19 21 23 25 27 28 30 31 33 34 36 36 35 35
61 56 51 48 42 39 39 34 35 31 30 26 25 22 16 10 5 1 2 3 5 12 13 13 7 6 5 2 3 4 5 9 10 12 12 15 17 19 23 23 25 28 29 30 33 32 34 35 35
65 62 57 53 48 43 42 37 35 32 31 30 26 28 25 19 14 6 6 3 1 5 9 13 11 4 6 5 4 3 4 5 9 10 10 13 14 15 18 21 23 24 28 28 29 31 32 33 33
70 67 63 57 55 50 46 43 39 37 35 34 32 30 26 21 16 12 10 9 7 3 4 9 10 6 2 4 6 6 4 4 5 7 9 11 11 13 15 18 19 21 23 25 25 26 30 30 31
75 70 66 62 61 57 53 49 47 40 37 37 38 33 26 22 20 15 15 14 10 11 9 7 9 7 5 2 2 5 5 3 2 4 8 9 10 11 12 15 15 17 18 20 22 22 25 26 28
77 73 70 67 63 63 59 55 52 47 41 38 36 33 28 27 24 21 20 18 16 14 13 8 9 9 7 4 4 3 4 3 1 2 6 9 9 11 10 10 12 14 15 16 18 20 20 22 22
71 74 69 68 69 67 64 59 56 53 49 46 42 39 37 36 32 31 26 24 20 17 17 13 9 12 8 9 7 7 5 5 4 2 4 7 7 9 10 8 9 12 13 13 14 15 16 19 19
73 72 70 66 69 69 68 65 60 58 55 51 50 47 42 41 40 38 35 26 26 23 21 17 14 12 14 11 12 9 9 9 7 4 4 4 5 7 8 8 6 8 12 12 11 10 13 14 16
77 74 70 66 65 68 66 67 66 62 60 57 54 53 48 45 45 44 40 34 31 28 27 22 21 18 16 13 12 14 14 13 10 9 5 6 4 5 7 6 6 7 7 8 10 10 10 10 13
82 77 76 70 70 71 72 66 68 65 63 61 59 59 56 51 50 49 45 41 36 34 30 29 24 21 19 14 10 12 15 17 15 14 11 9 7 4 3 5 4 4 4 6 6 8 9 8 10
81 84 79 76 74 72 69 66 65 65 64 64 62 61 59 56 53 52 50 47 43 39 35 34 32 30 22 22 14 12 15 17 20 18 18 15 11 9 7 5 5 3 4 6 7 7 7 7 8
83 82 83 83 78 77 71 71 67 66 64 63 63 63 63 60 57 52 51 50 48 45 43 40 39 36 35 29 22 15 15 16 19 22 22 21 15 13 13 12 9 7 7 8 10 9 8 6 7
88 83 82 83 83 83 77 71 73 70 67 66 65 62 62 60 59 50 47 52 51 49 49 47 43 42 40 35 33 23 20 20 20 21 25 24 20 18 17 15 13 11 11 11 11 13 10 7 6

GFSSGP_250_spd_081.txt.gz
Wind_Speed
10 3 14 7 8 18 9 11 14 15 21 29 32 43 41 36 32 27 25 19 16 15 14 13 14 16 18 18 17 14 11 10 10 9 8 6 5 4 2 3 3 4 2 1 4 6 10 11 13
8 7 12 8 2 4 8 14 12 10 23 25 30 42 40 43 39 29 25 20 18 14 17 18 21 20 21 23 23 20 13 13 15 15 13 12 12 10 7 6 4 4 3 4 7 8 11 13 14
8 15 11 5 1 5 7 9 12 13 26 27 28 38 48 48 41 28 25 21 21 17 18 21 22 25 27 27 27 30 30 26 22 19 17 16 14 12 9 7 5 5 8 9 7 9 13 13 10
12 13 9 6 4 7 4 8 13 20 21 19 26 35 44 49 41 29 26 25 25 23 23 28 30 31 31 29 30 31 30 27 24 20 19 20 18 15 14 11 10 8 8 6 6 12 11 8 12
16 13 8 3 4 3 6 5 8 14 16 17 26 33 38 44 41 29 26 28 31 33 32 32 31 31 30 30 30 30 29 27 27 24 21 19 16 13 11 10 8 7 6 7 7 9 7 9 8
18 16 13 6 10 12 5 4 10 12 14 23 26 31 32 41 40 28 25 31 32 32 29 28 29 29 30 29 27 24 26 24 22 21 19 17 18 17 17 15 12 9 9 9 11 12 10 12 14
22 20 17 10 10 7 2 6 8 3 14 23 27 28 29 39 40 27 28 32 28 28 27 25 24 24 24 26 26 26 24 22 20 20 20 23 22 15 17 18 14 11 8 12 16 14 13 15 15
27 23 18 18 13 9 7 7 6 2 13 24 25 27 30 34 38 26 27 25 26 22 23 24 25 25 24 25 26 24 25 24 25 23 23 27 27 23 20 20 18 15 12 12 17 20 18 15 17
29 25 20 22 18 15 2 8 4 10 14 18 22 23 25 32 35 26 23 23 24 24 26 26 23 25 26 26 27 27 27 29 31 29 26 29 31 27 24 23 21 18 13 13 18 19 19 15 18
32 28 26 24 23 13 8 14 10 5 9 17 19 22 22 27 32 29 20 22 21 23 26 27 27 23 26 25 28 28 29 30 31 33 32 30 32 33 29 27 26 24 18 15 15 18 21 20 20
37 32 28 27 26 14 11 5 10 8 11 12 16 20 20 22 28 28 19 20 18 17 19 24 24 26 23 24 28 28 29 30 32 33 33 35 33 34 33 31 30 28 23 18 15 18 23 24 23
40 34 30 27 28 22 19 21 14 9 7 7 13 16 17 20 24 25 18 19 15 16 14 18 19 21 24 24 26 28 28 29 31 32 33 35 36 34 34 34 33 32 29 20 16 18 23 27 26
47 40 34 32 29 27 18 20 16 11 12 7 7 12 13 18 23 22 19 15 17 15 11 14 17 20 22 21 24 26 27 28 29 31 32 33 34 35 33 33 34 35 34 27 18 17 22 28 30
50 45 40 36 32 28 24 19 13 14 12 7 5 5 9 13 17 19 19 11 14 15 14 10 13 16 18 20 20 22 23 24 27 29 31 32 32 33 34 34 34 36 36 34 22 18 20 23 28
53 50 44 40 36 32 27 22 15 14 14 11 7 4 3 8 9 14 18 13 11 11 13 13 11 11 14 16 19 18 20 22 24 26 28 30 30 30 33 35 34 34 36 36 30 19 18 20 24
56 52 50 42 39 35 28 25 24 26 21 16 14 8 3 3 6 9 14 16 10 9 9 10 12 11 11 11 14 16 18 18 20 23 24 28 29 29 29 32 33 34 36 38 35 26 18 17 19
57 53 49 46 42 39 34 29 24 29 24 19 15 11 9 5 3 4 9 14 15 14 9 7 8 8 6 9 12 13 14 15 16 18 21 25 26 28 28 28 31 33 34 36 36 34 29 20 15
60 55 49 47 44 44 38 34 33 30 24 24 20 15 13 10 2 1 2 7 12 14 14 8 6 6 5 5 7 9 13 14 14 16 18 21 24 25 26 26 27 31 32 33 35 35 34 32 24
60 56 55 46 44 45 41 39 36 32 27 24 22 20 17 13 8 3 2 2 7 11 13 12 8 4 6 4 3 5 9 12 12 13 16 18 20 22 24 23 26 26 28 31 33 34 35 35 33
63 61 56 48 48 43 48 40 38 34 33 30 25 24 23 19 15 7 7 2 1 6 10 13 10 8 2 4 5 4 6 9 10 10 12 16 19 19 21 21 22 23 24 27 29 30 31 33 33
66 64 59 57 52 48 47 43 37 35 28 27 29 33 25 26 20 14 12 9 4 6 7 10 10 9 8 3 4 4 4 5 7 8 11 14 16 17 18 18 17 19 22 23 25 26 28 29 30
69 69 65 60 59 54 50 46 39 38 35 39 30 32 30 29 27 18 15 12 9 8 8 7 9 9 8 6 2 2 2 3 4 5 9 12 14 15 15 15 16 15 18 21 21 23 24 25 26
72 71 67 68 65 60 56 50 42 41 41 39 38 35 32 31 28 24 21 17 13 13 10 9 8 7 8 6 4 5 2 1 3 6 8 9 12 13 12 12 16 15 14 16 17 19 20 22 23
76 69 67 70 69 66 62 56 49 56 48 45 43 40 40 34 32 30 26 22 15 16 15 12 12 6 5 7 8 6 6 5 4 2 5 7 9 11 11 9 10 12 14 12 14 13 15 16 19
74 66 67 67 70 69 68 67 59 61 53 50 47 42 41 41 36 36 33 27 21 20 19 17 16 12 8 6 9 8 9 7 7 6 3 5 6 7 8 8 6 8 11 13 12 11 11 13 14
73 73 69 64 64 69 74 70 61 62 58 55 52 50 48 44 40 37 37 33 29 28 25 23 21 19 17 11 10 11 10 8 9 11 6 3 2 3 5 7 6 6 8 10 10 11 10 11 12
77 75 74 73 71 72 73 70 67 66 63 60 57 54 50 48 46 42 40 38 36 33 31 25 23 26 21 18 13 13 11 9 10 13 12 9 5 2 2 4 5 6 8 10 9 9 10 9 10
82 81 82 76 75 72 73 70 70 71 68 65 62 60 55 52 46 45 45 43 42 38 36 32 27 26 30 26 21 18 16 13 11 11 14 14 10 7 6 2 1 2 5 8 9 10 9 9 10
90 87 84 82 82 78 74 69 61 69 67 68 67 65 61 55 53 48 56 49 46 44 42 38 37 32 34 33 29 27 20 18 16 13 13 14 15 14 10 8 5 5 4 7 6 10 10 10 9
91 91 87 85 86 83 83 78 72 71 70 70 70 67 65 61 57 47 46 45 45 46 46 44 42 41 38 39 37 32 30 24 20 18 15 16 17 20 18 14 11 10 10 10 9 11 9 9 7

GFSSGP_250_spd_084.txt.gz
Wind_Speed
5 11 15 11 9 10 10 12 11 17 26 31 36 45 49 34 30 23 19 17 16 17 17 16 17 18 18 18 11 7 9 10 10 8 6 4 2 2 3 4 4 2 3 3 4 8 12 12 14
4 13 9 5 4 10 15 13 8 25 30 31 34 41 46 34 32 26 20 20 17 17 18 19 20 23 23 18 9 11 14 14 13 12 12 11 8 6 5 4 4 3 4 7 10 13 14 15 17
9 14 11 5 4 8 10 6 14 22 26 29 37 36 48 34 29 26 24 22 21 20 21 23 24 25 25 27 28 25 22 20 18 17 16 13 12 10 7 7 6 8 9 10 9 13 14 14 15
16 13 9 5 8 7 4 9 19 16 23 31 33 34 43 34 26 29 31 27 25 26 27 26 24 25 28 29 30 29 27 24 21 20 19 17 17 16 14 12 8 7 8 6 8 15 13 12 14
17 16 9 6 8 7 6 7 11 20 20 29 31 36 40 32 23 29 30 32 28 26 25 26 28 27 26 26 28 28 26 24 22 20 17 16 17 18 16 11 7 6 7 7 8 13 13 15 15
20 16 12 7 5 17 11 10 15 17 15 27 30 34 40 31 21 25 30 27 25 22 22 23 25 28 29 28 28 27 26 25 23 22 23 21 19 19 18 12 10 5 8 11 14 15 16 15 15
23 19 12 16 12 5 6 8 12 11 17 23 30 31 35 33 19 21 21 24 25 23 22 24 25 26 28 29 29 27 26 25 24 26 29 24 21 22 21 19 14 10 8 14 16 22 20 18 11
25 21 12 10 10 13 9 5 9 8 19 19 26 27 30 33 18 18 22 20 28 26 24 25 26 28 27 28 31 32 31 28 25 28 30 29 27 27 26 23 18 14 10 17 20 24 19 17 10
28 23 15 13 17 8 7 5 3 14 14 22 21 24 25 30 20 15 18 20 27 30 26 25 24 25 25 28 31 31 31 32 30 29 28 29 29 28 29 27 21 18 14 16 22 22 21 22 14
31 25 23 20 21 18 5 11 3 6 11 20 20 24 23 28 23 16 18 12 21 26 29 24 25 25 27 29 30 31 31 33 34 32 31 31 32 32 32 31 23 17 20 20 24 19 12 16 18
36 30 29 25 26 15 12 9 6 6 12 13 17 20 21 27 25 18 18 17 13 21 23 27 24 24 26 27 29 29 31 32 33 35 33 32 33 32 35 34 28 24 18 24 27 23 13 18 21
37 36 33 29 29 21 16 11 9 4 11 8 9 14 19 24 23 18 15 16 16 20 22 25 25 20 24 27 30 30 31 32 32 34 35 34 35 36 36 41 38 26 21 10 21 27 22 24 26
48 42 38 33 33 28 20 20 13 7 22 8 3 8 14 20 21 20 14 15 14 15 19 21 24 22 22 24 26 28 29 31 32 33 33 34 36 38 36 37 38 27 21 13 19 7 25 22 25
50 45 42 37 31 32 24 21 17 12 12 15 4 4 10 13 18 20 18 13 12 13 13 17 21 21 22 21 21 24 26 28 31 31 32 33 35 37 30 30 33 33 25 17 16 19 22 25 28
55 48 47 40 32 31 29 21 17 13 17 15 9 2 6 10 10 18 21 16 10 11 12 13 16 16 18 20 20 19 22 25 28 30 30 31 33 36 31 33 33 36 33 22 19 17 18 26 27
58 54 46 44 36 32 24 22 21 17 15 16 13 11 8 4 8 12 17 21 16 13 9 10 12 13 15 16 18 18 11 19 24 27 27 29 30 30 31 33 34 33 35 31 20 18 18 22 23
59 55 50 45 40 35 30 30 15 15 23 21 16 11 8 5 6 4 10 17 21 16 14 8 9 10 11 13 16 16 13 17 20 24 25 27 28 29 30 31 34 36 32 34 34 25 20 19 18
59 56 50 47 43 39 35 32 30 29 29 25 21 17 12 7 4 4 3 10 17 17 16 12 10 8 8 9 11 13 15 12 16 20 23 24 26 26 27 29 32 33 32 33 36 35 30 23 18
62 59 52 49 45 44 43 38 34 33 26 27 21 19 15 10 9 3 2 4 11 15 16 13 12 7 6 6 6 10 12 13 15 16 19 21 24 25 24 25 27 30 31 31 33 33 34 33 32
61 59 53 51 49 39 46 43 38 38 38 31 25 20 17 13 13 9 3 3 4 10 12 14 13 12 7 5 7 8 8 10 12 15 16 17 21 24 22 22 23 25 27 28 30 31 30 29 29
65 61 58 56 48 49 46 45 38 46 38 35 30 26 23 21 17 18 9 7 6 5 9 11 13 13 11 7 5 5 8 8 9 13 17 17 16 20 22 20 19 21 23 25 26 26 27 28 28
70 68 63 57 57 50 40 53 49 30 32 34 28 33 28 30 27 20 21 14 9 7 7 8 10 12 11 9 6 7 7 9 10 12 12 16 16 16 19 20 18 17 20 21 21 21 24 24 24
72 74 69 63 62 61 47 41 37 43 36 30 22 16 26 35 30 24 26 23 13 10 8 8 9 9 10 12 10 8 7 7 9 9 12 14 15 15 14 16 17 15 13 19 18 18 19 20 21
73 77 72 68 67 65 63 54 50 45 35 39 41 30 13 28 28 29 29 26 16 14 11 13 10 11 10 7 11 11 8 8 8 6 9 11 14 13 12 12 12 13 12 12 14 16 17 17 17
78 75 75 73 69 65 66 63 53 46 42 29 49 45 33 23 24 32 31 26 19 19 18 18 15 12 12 10 9 12 10 7 8 7 6 8 9 6 8 8 10 10 12 13 14 14 15 16 16
76 76 73 69 73 72 73 70 57 52 38 50 53 54 54 44 17 24 23 26 24 25 23 19 19 19 17 17 14 12 13 13 5 7 5 4 2 2 4 6 8 9 10 12 11 13 14 15 15
81 77 73 71 73 79 81 65 61 59 59 36 46 48 50 50 50 37 33 34 32 31 31 29 25 22 19 19 20 16 15 17 13 5 3 5 6 3 2 2 6 6 6 10 12 12 11 11 13
83 81 78 75 75 81 78 74 73 72 73 71 62 56 50 49 48 43 41 40 41 38 37 33 29 26 22 24 22 24 21 19 17 12 8 7 4 5 5 10 3 3 4 6 6 12 11 10 8
87 82 79 80 80 78 79 77 73 73 78 73 69 61 57 55 45 43 44 40 35 38 44 39 36 32 30 27 28 26 27 24 23 20 17 11 6 8 11 10 10 9 9 5 3 7 10 9 8
93 91 90 89 78 80 84 83 76 82 86 80 78 74 67 61 54 49 39 28 28 43 35 40 33 34 33 33 31 30 31 31 27 25 20 18 16 8 15 16 16 16 17 11 8 8 6 8 9

GFSSGP_250_spd_087.txt.gz
Wind_Speed
7 13 15 15 16 17 17 14 13 26 34 43 39 44 39 29 22 20 20 23 24 24 24 23 21 16 12 12 11 10 8 7 5 2 2 2 3 5 7 9 10 9 9 10 13 14 13 15 17
7 12 8 10 7 8 12 13 9 24 28 36 40 46 35 30 27 26 23 25 26 26 27 27 27 25 24 24 22 19 18 16 13 12 10 8 5 4 3 5 6 6 7 10 12 13 15 14 17
9 14 12 10 10 9 11 8 14 24 26 34 39 42 30 28 34 33 29 28 30 28 28 28 29 30 30 29 26 23 20 17 14 12 11 10 7 6 4 6 8 8 9 12 14 15 15 17 18
17 11 12 9 9 2 5 6 15 25 29 32 36 38 25 24 31 32 30 29 29 28 28 26 27 28 29 28 27 24 22 19 17 14 11 11 13 10 8 4 2 1 3 8 10 13 19 19 14
15 21 12 4 5 8 5 7 17 23 25 30 32 35 24 22 26 32 27 26 25 25 26 27 28 27 27 27 26 25 23 22 22 20 19 17 16 14 12 9 7 6 9 11 12 15 17 18 17
19 10 2 5 12 11 6 9 15 18 23 28 31 32 25 20 21 28 28 25 24 21 24 28 29 29 29 27 25 25 25 26 27 27 24 22 20 18 16 15 11 8 10 16 16 15 17 14 14
19 13 4 4 12 11 4 9 13 16 25 26 30 29 27 18 24 26 30 27 27 27 29 30 29 32 34 32 29 27 26 27 29 27 27 25 24 24 22 20 15 12 14 22 24 16 22 17 8
22 21 3 11 8 0 4 8 9 10 17 23 29 28 27 23 19 24 28 28 25 24 28 28 31 33 34 33 33 31 31 30 30 28 28 32 29 28 23 19 17 16 21 25 28 26 25 16 12
24 20 19 15 16 15 10 9 4 10 13 21 27 28 28 26 19 19 22 25 26 26 28 30 33 31 31 32 31 33 31 30 32 32 33 35 36 31 27 21 21 21 24 34 33 26 28 15 19
22 24 8 8 19 16 7 11 6 6 10 16 22 27 28 25 23 21 20 22 23 26 27 28 30 29 31 31 31 33 33 34 35 36 36 34 39 36 34 22 23 26 24 28 35 26 22 16 20
26 28 28 23 19 18 13 12 10 6 9 11 19 23 29 26 24 21 20 21 21 24 24 25 28 30 30 31 32 32 32 34 34 35 36 33 39 38 38 28 21 26 18 18 29 23 20 17 22
25 32 29 22 21 22 18 13 11 4 6 9 14 17 25 29 27 23 20 18 20 21 19 22 24 27 29 29 29 31 32 33 33 35 33 30 39 35 40 27 16 17 19 23 27 28 25 16 19
40 39 33 27 28 27 20 18 13 5 9 11 13 14 17 24 25 25 21 18 17 19 20 21 21 22 23 25 27 29 32 32 31 33 36 36 34 36 34 33 21 18 19 23 24 26 26 20 22
51 43 32 31 30 33 22 16 14 8 19 14 11 7 14 18 23 24 22 18 16 17 16 17 21 21 20 20 23 27 29 31 30 30 33 33 34 37 37 35 29 19 20 18 21 26 27 26 22
57 48 38 35 29 31 28 13 16 14 13 10 11 2 8 13 15 21 27 21 17 14 14 14 16 16 18 17 16 19 23 27 28 29 30 30 32 37 38 35 34 32 23 19 18 21 26 30 28
57 49 38 42 36 31 30 22 16 18 13 16 12 8 6 4 9 15 19 23 22 18 11 13 15 16 17 17 18 18 20 24 25 26 27 30 31 33 37 39 40 37 29 24 18 22 23 27 26
58 59 46 47 43 34 30 27 18 24 20 17 16 11 4 2 6 8 13 16 19 20 16 11 11 12 14 16 17 16 18 21 23 24 26 27 30 31 34 36 37 37 38 36 33 30 25 23 22
61 63 55 51 46 38 30 32 22 20 21 18 16 15 11 2 2 5 7 11 15 19 19 16 12 10 12 13 14 15 16 17 21 23 25 24 26 27 30 33 35 38 39 37 36 36 33 30 27
69 63 60 57 47 46 35 42 32 28 25 24 20 17 15 7 2 2 4 6 12 15 18 19 14 9 10 11 11 12 15 18 20 20 20 22 23 24 26 28 30 32 35 36 35 34 33 31 29
70 66 59 55 54 47 44 43 38 36 32 28 23 22 15 10 3 8 5 2 6 10 12 17 18 16 13 11 12 13 14 17 18 19 19 18 20 20 21 23 26 27 29 30 31 31 32 31 28
71 65 62 57 61 54 40 15 45 42 38 36 24 26 18 20 10 10 12 6 1 4 9 11 15 16 16 13 12 13 14 15 14 15 17 15 17 18 20 19 21 24 25 26 27 26 26 27 27
70 70 67 64 63 59 44 34 43 45 44 40 42 33 25 25 23 19 13 13 4 2 4 8 11 13 14 13 13 14 13 15 15 13 14 14 13 14 16 17 16 19 21 22 21 23 24 22 24
72 75 71 69 68 70 58 42 49 51 43 41 37 37 25 30 30 22 18 16 11 7 2 3 8 9 11 11 12 15 13 11 12 14 13 12 12 12 13 15 16 16 17 17 19 21 21 21 21
72 76 77 70 74 77 77 66 53 49 41 36 37 35 31 29 22 21 21 19 18 14 8 3 5 7 8 9 11 13 14 12 8 10 12 12 11 13 11 11 12 14 16 16 17 16 18 20 19
72 72 77 75 69 69 70 70 63 53 51 38 37 31 32 19 23 26 31 24 21 14 13 10 4 4 7 9 11 11 13 14 13 8 8 8 10 9 9 9 9 11 14 13 15 13 13 16 17
75 72 73 76 72 69 73 69 59 53 61 47 37 34 37 34 26 23 23 15 27 18 15 13 10 8 7 9 11 11 12 13 16 14 7 6 6 7 8 4 5 7 9 11 13 12 11 12 14
79 76 70 76 81 80 76 67 64 62 59 52 50 29 33 28 22 39 25 21 18 21 18 18 18 16 16 13 13 13 12 15 13 14 12 14 8 7 8 8 10 5 9 8 11 13 12 9 9
89 81 82 75 76 82 77 72 70 74 75 66 62 54 42 44 39 44 24 23 21 16 24 24 22 23 22 19 19 17 16 15 12 12 15 18 16 10 9 10 12 13 15 14 9 11 13 11 10
91 85 81 76 77 78 78 78 75 76 76 68 64 60 53 52 49 55 41 37 34 25 30 32 24 28 29 25 23 25 22 19 17 14 16 15 16 15 14 13 15 15 19 17 15 13 16 15 13
94 89 85 82 77 79 81 82 77 78 78 73 68 61 54 61 51 42 44 36 29 23 33 24 23 23 32 28 27 25 28 27 21 19 19 18 15 14 13 17 20 20 22 20 18 22 20 20 17

GFSSGP_250_spd_090.txt.gz
Wind_Speed
14 12 16 18 16 12 14 9 13 30 33 40 41 30 36 29 25 27 27 27 30 29 29 26 18 14 11 9 8 5 4 9 9 7 7 9 11 12 13 13 13 12 10 11 13 18 21 21 19
9 11 14 13 9 7 15 13 15 30 35 38 39 26 33 33 33 32 29 29 30 30 32 31 30 28 25 22 19 16 13 9 6 3 2 3 4 7 8 9 11 11 11 12 14 15 16 18 19
11 5 13 5 8 3 11 14 21 28 34 35 30 23 27 27 26 27 27 28 26 28 28 28 27 27 25 23 21 18 14 11 8 7 7 9 8 6 7 10 12 12 11 12 15 16 16 18 18
10 11 7 4 7 7 11 13 22 28 30 37 30 23 25 27 25 24 25 29 27 24 23 24 24 24 25 24 23 22 22 19 18 15 12 10 9 7 4 2 3 4 6 10 13 15 16 16 17
14 13 3 3 5 10 0 12 20 26 32 36 29 25 26 29 27 27 28 27 25 27 27 26 26 25 26 26 25 25 28 27 26 22 19 16 12 9 9 7 5 5 12 18 18 16 12 14 16
14 11 5 7 6 10 5 10 15 22 27 34 30 27 26 30 28 29 29 29 30 30 32 34 32 29 28 28 28 28 28 27 27 26 21 18 16 12 11 9 10 12 16 19 14 9 14 13 14
16 1 6 12 6 9 4 8 12 18 26 32 30 29 24 25 27 27 27 27 28 30 33 32 32 33 31 30 31 31 31 29 26 30 28 24 19 16 16 15 16 17 25 26 17 17 14 7 3
22 14 4 10 4 2 3 5 10 15 23 27 31 30 26 20 24 23 25 29 29 29 31 29 32 34 33 32 33 32 29 29 28 34 33 30 27 19 17 17 14 12 27 33 21 22 18 22 18
22 14 7 8 8 12 4 3 7 12 19 22 31 30 27 25 21 22 22 25 25 26 28 29 32 33 31 30 31 30 30 30 27 35 33 32 25 19 20 20 18 23 30 33 28 24 21 26 24
23 13 5 11 17 16 11 9 5 6 13 16 27 30 28 25 22 21 20 22 25 27 28 26 30 31 31 31 32 30 31 31 28 29 34 30 30 24 17 22 25 27 29 32 29 22 22 24 25
32 13 13 9 15 19 16 11 8 7 9 12 21 27 29 24 23 18 20 20 20 22 24 25 27 31 31 32 31 29 30 32 33 31 35 31 28 26 21 19 23 24 31 31 27 22 20 23 24
35 27 28 16 19 19 19 12 11 3 8 13 16 22 26 27 26 21 18 19 20 18 20 20 24 27 28 30 31 30 29 32 31 33 35 34 33 31 26 25 23 24 29 31 25 21 21 25 28
45 32 20 29 23 20 20 14 11 6 5 5 14 18 22 25 30 24 17 16 16 19 18 19 20 23 22 25 27 28 28 29 30 31 35 35 36 34 31 24 23 22 27 31 29 22 22 21 23
43 41 28 28 28 25 24 17 11 10 8 11 4 9 13 16 24 25 21 15 15 15 15 16 16 19 19 20 24 25 25 28 30 30 33 36 39 39 37 30 27 23 24 28 30 27 22 20 18
49 36 36 33 30 27 27 22 15 17 9 9 3 2 8 9 14 19 22 16 13 12 16 15 16 19 17 19 23 23 26 26 27 31 31 33 36 38 40 38 35 27 24 23 25 30 29 26 16
54 48 28 35 33 29 31 25 18 20 13 11 11 2 3 5 10 14 20 19 14 14 13 15 17 18 18 18 18 21 25 27 28 27 29 32 34 35 38 38 38 37 34 28 27 27 27 26 23
58 55 52 32 35 33 33 18 15 13 16 14 11 8 2 0 5 9 14 18 18 16 14 12 13 15 15 17 16 21 23 23 25 25 24 27 32 34 35 37 38 36 38 38 32 30 27 23 21
66 61 59 51 34 35 39 40 18 23 19 18 16 12 7 2 2 7 6 14 16 17 15 12 13 14 14 16 18 20 19 19 21 21 22 25 27 31 32 33 35 36 36 35 33 31 30 28 28
70 64 59 54 38 38 38 40 36 22 22 23 20 18 12 8 7 4 5 6 10 13 16 15 14 15 14 15 18 16 18 20 19 18 19 21 22 24 28 30 32 32 30 32 32 31 30 28 26
72 66 60 58 48 40 42 40 36 38 28 29 29 22 15 10 12 8 5 4 4 8 12 15 15 16 15 18 18 17 18 18 17 20 19 20 21 21 23 26 27 28 28 28 28 29 29 28 26
75 70 68 66 61 47 39 47 47 42 34 35 32 28 23 15 14 10 9 5 2 3 7 11 13 15 14 16 17 14 16 18 16 17 18 17 18 20 19 20 23 23 25 25 26 25 26 27 26
75 73 73 68 68 59 53 48 44 45 42 39 32 27 25 21 19 13 8 11 6 2 2 7 7 12 13 14 15 12 12 13 13 17 16 15 16 17 18 19 19 19 21 22 24 23 22 23 23
68 77 78 74 69 68 60 48 55 49 45 40 38 36 28 28 23 24 17 16 12 5 4 1 6 7 9 11 14 13 13 13 12 13 13 15 17 16 14 15 16 17 19 19 19 19 21 20 20
71 75 80 78 76 74 72 47 46 50 55 54 46 38 34 32 36 32 20 19 18 14 10 5 4 5 6 10 11 11 14 14 12 8 10 8 10 12 13 13 14 17 18 19 18 17 19 18 17
74 70 77 79 76 71 75 64 52 48 47 53 46 41 36 30 33 28 22 15 16 15 15 11 7 6 5 5 9 9 9 12 14 10 7 12 13 11 12 11 13 15 18 18 18 16 17 17 17
76 71 71 76 77 82 77 71 55 56 50 54 47 42 39 34 32 28 23 14 20 20 19 14 13 11 9 9 8 6 6 7 10 10 11 11 13 12 12 11 13 14 17 19 18 17 17 17 18
80 75 71 75 83 85 80 73 71 63 54 54 49 46 38 36 32 27 21 18 20 19 20 17 17 14 12 11 13 12 11 6 5 6 9 12 11 11 11 15 12 14 16 20 18 21 19 20 19
85 79 78 74 79 83 83 78 72 78 71 64 51 48 41 44 38 35 27 27 23 20 21 12 15 17 17 16 16 17 14 14 10 8 6 8 11 11 13 14 15 15 16 18 21 20 22 21 22
87 85 80 79 76 79 84 82 77 77 74 71 69 58 47 44 41 38 36 36 24 26 22 16 14 17 20 22 22 20 20 19 16 15 13 12 7 11 13 15 16 17 17 18 19 18 20 21 21
94 92 88 86 81 77 83 84 82 75 72 70 67 60 56 43 43 44 41 40 33 32 30 24 21 17 18 17 22 19 21 21 22 21 18 18 15 10 9 12 15 19 20 20 21 20 19 20 18

GFSSGP_250_spd_093.txt.gz
Wind_Speed
8 11 14 15 16 10 12 20 30 35 39 34 26 29 28 28 28 29 29 29 30 33 29 22 19 16 12 7 4 6 10 12 17 16 13 13 13 15 16 17 18 16 15 15 16 16 17 19 21
11 12 15 14 13 4 15 22 30 34 37 27 22 30 21 24 24 25 25 25 27 27 27 27 27 26 23 18 13 7 3 1 4 5 7 9 10 13 14 15 16 16 17 17 18 19 19 19 18
9 9 7 8 8 8 13 18 27 33 35 24 23 26 23 22 20 27 25 25 26 24 24 25 25 26 25 22 21 15 10 6 4 2 3 5 7 8 10 12 16 17 15 15 14 14 15 17 19
10 3 0 8 9 8 9 17 23 30 36 25 23 27 26 26 25 22 25 26 27 24 25 27 27 27 25 24 22 21 21 18 14 12 9 7 6 5 4 4 4 5 9 14 16 17 16 18 17
12 5 3 4 11 6 3 14 20 26 35 23 20 28 27 26 29 27 28 33 33 29 29 28 27 26 25 24 25 24 25 26 23 17 13 10 8 5 5 5 8 12 21 17 16 12 9 10 12
13 3 2 4 6 7 2 11 17 22 30 24 21 24 26 27 27 25 29 31 32 32 32 29 27 26 24 25 29 26 28 28 24 22 20 13 12 11 9 12 11 15 23 16 12 13 15 14 13
15 3 4 3 5 5 4 9 15 20 27 24 27 24 22 25 25 24 28 30 31 31 33 30 27 27 28 29 28 25 25 31 24 27 22 19 20 18 14 12 15 20 24 21 18 12 6 3 10
18 15 9 7 4 6 6 5 12 18 22 23 25 25 22 22 22 20 24 27 28 29 30 29 27 27 28 28 28 24 23 29 30 28 28 21 22 21 22 20 20 28 22 20 18 23 20 11 12
21 13 16 12 7 12 4 3 7 12 17 24 28 23 23 24 22 20 21 23 22 26 25 29 26 27 28 28 29 32 30 32 33 30 30 22 16 21 23 24 28 28 25 25 22 23 26 22 18
24 19 7 18 12 17 8 8 8 10 14 23 27 24 24 22 22 15 17 20 22 23 25 27 27 28 27 29 28 28 32 33 35 33 33 26 22 20 23 26 29 30 28 27 25 25 29 31 29
25 18 9 14 20 23 14 10 7 7 14 20 23 27 21 20 18 18 16 16 18 20 23 25 27 27 27 30 31 31 31 35 38 37 35 31 26 24 24 21 28 34 29 27 31 31 29 30 27
32 20 11 13 19 20 18 13 5 8 12 16 19 21 27 25 18 18 17 15 16 18 19 19 22 24 27 28 29 31 32 34 37 37 38 35 31 26 23 23 28 34 32 25 29 30 28 26 24
33 21 23 16 15 17 16 16 11 9 2 6 9 15 21 25 20 15 15 15 15 16 17 19 20 22 25 26 29 29 31 31 34 36 39 37 36 33 29 25 27 33 34 29 25 24 24 27 24
43 28 21 23 24 23 18 17 12 11 11 8 4 10 14 18 19 17 15 15 16 14 17 18 19 20 24 24 27 28 29 31 32 34 38 40 39 40 36 30 28 30 33 33 27 20 19 19 22
46 37 25 28 34 29 22 22 19 16 9 5 2 3 6 13 15 18 20 14 12 13 16 18 19 18 20 22 25 25 27 26 29 32 36 39 41 39 40 39 35 31 29 29 31 26 20 16 14
53 47 41 32 33 33 28 25 23 15 11 12 8 3 2 7 11 16 20 19 13 11 12 16 16 16 20 20 21 21 24 24 26 29 33 36 39 38 38 39 38 37 35 33 30 26 24 21 20
58 50 49 42 33 33 30 29 26 18 18 13 9 8 1 2 6 9 16 20 20 13 14 13 13 15 18 18 20 22 23 24 25 26 29 28 32 35 36 36 37 35 34 33 32 32 29 25 22
65 57 50 47 39 34 32 30 24 24 22 17 14 11 6 2 2 5 10 15 17 16 11 12 13 15 18 16 16 18 24 26 25 22 26 24 28 31 33 33 32 32 33 33 32 29 28 28 27
71 67 61 42 38 33 32 28 26 21 21 18 19 16 10 7 5 5 5 9 11 14 13 13 15 15 15 17 17 16 21 25 24 22 25 24 20 27 29 29 28 29 30 31 32 29 27 26 25
72 70 66 63 52 38 31 40 35 24 27 18 22 19 15 12 9 8 5 1 7 11 13 13 14 13 13 14 16 18 16 18 19 21 21 23 23 23 25 24 27 29 27 27 29 28 26 26 25
75 72 71 67 57 54 39 36 41 36 28 32 28 24 20 16 11 11 4 2 3 5 8 10 11 11 13 14 15 17 16 15 16 18 18 19 24 23 23 24 25 26 26 26 25 24 25 25 25
73 79 76 73 67 59 50 35 40 46 40 35 34 30 30 22 17 14 10 8 4 2 1 6 9 11 13 12 15 12 12 14 15 14 16 16 20 22 21 24 22 25 27 24 23 23 23 23 25
73 80 81 76 70 64 62 42 42 45 44 41 24 38 32 26 22 20 16 9 10 8 5 1 4 8 9 11 13 14 13 12 13 13 12 16 16 18 18 20 22 24 29 31 24 23 24 23 24
80 78 81 79 75 71 66 59 54 48 49 48 46 39 36 33 27 25 25 19 14 15 10 6 4 6 4 8 8 10 12 16 13 12 11 15 17 17 16 16 17 21 25 29 29 23 24 25 24
80 75 75 81 79 78 70 61 60 56 51 50 55 55 42 40 36 29 27 28 19 20 20 14 10 8 5 3 5 5 7 9 12 13 15 14 15 16 16 16 19 20 21 24 28 30 26 25 25
81 76 72 73 79 81 75 71 62 61 52 52 50 47 44 42 35 26 23 28 21 21 19 15 16 13 10 6 4 6 5 6 8 10 12 15 14 16 17 17 17 23 20 23 25 26 27 26 25
82 78 76 71 78 85 80 79 71 66 62 56 60 52 45 45 40 33 36 26 24 24 19 16 20 16 14 13 9 8 8 7 8 9 8 10 14 15 18 18 20 21 22 20 25 23 23 24 25
84 82 80 72 74 81 82 83 76 66 61 61 56 49 48 47 44 40 35 32 32 31 26 19 20 17 18 17 12 12 13 11 8 12 13 13 10 12 12 13 16 19 21 20 25 23 22 24 24
89 86 82 76 74 81 83 82 83 78 65 62 59 50 51 48 40 43 41 38 36 34 28 25 21 17 12 11 11 7 15 16 13 10 14 15 15 12 10 12 14 17 20 20 20 22 22 22 22
93 90 85 81 77 79 82 83 80 78 80 59 66 58 53 56 50 48 44 40 37 30 28 28 25 22 18 14 10 9 9 11 15 21 21 20 19 15 11 11 12 17 19 19 18 19 22 21 22

GFSSGP_250_spd_099.txt.gz
Wind_Speed
7 8 11 10 12 20 26 35 37 29 29 31 29 23 22 20 23 25 27 28 25 19 14 11 9 7 11 15 15 15 17 20 22 23 26 27 28 28 27 27 28 28 28 26 25 23 21 18 15
12 14 11 11 12 21 24 32 39 25 31 31 28 28 25 23 23 26 28 29 29 28 24 19 16 11 8 5 3 6 9 13 16 17 18 18 18 19 20 20 21 22 22 23 24 23 22 20 19
6 9 10 6 13 15 23 30 33 24 27 30 32 31 31 29 28 27 27 29 28 26 24 20 17 15 16 14 8 2 2 4 8 10 11 12 14 14 15 16 16 17 17 16 17 19 17 19 15
5 5 10 6 8 10 20 28 34 27 23 27 29 30 31 32 31 30 27 27 27 26 24 23 20 19 19 17 18 11 8 7 4 8 7 7 7 8 11 12 11 11 11 16 20 22 23 21 19
8 2 5 5 11 13 14 26 34 28 24 24 26 28 28 29 31 28 24 25 25 26 26 26 24 18 16 19 20 14 12 14 10 9 5 1 2 1 2 5 9 13 23 23 20 19 17 18 16
7 5 6 6 12 9 9 21 29 29 27 24 24 27 25 26 28 28 26 27 27 27 28 29 27 23 22 22 21 17 16 15 15 15 13 10 8 3 3 9 16 18 15 9 5 11 15 12 9
10 8 6 1 7 4 11 21 21 26 29 26 24 24 25 23 26 28 26 27 28 28 26 26 26 28 27 28 25 18 19 17 15 16 17 14 8 6 8 9 7 7 10 10 2 8 17 17 17
15 13 8 5 3 6 10 18 20 24 29 28 24 24 23 21 23 27 27 28 29 30 29 28 28 25 28 30 28 25 22 20 13 14 13 14 13 14 13 10 11 14 17 16 14 19 23 22 27
18 13 9 13 5 4 8 13 18 19 27 30 24 25 25 19 21 25 25 27 28 29 28 27 30 28 30 34 33 30 28 24 18 14 13 13 14 18 19 19 22 26 27 28 28 28 31 33 32
20 19 14 12 13 9 8 9 13 14 22 27 27 22 25 22 20 22 22 24 26 27 29 28 28 29 29 34 36 35 33 34 25 18 14 17 22 23 23 24 29 32 32 34 32 34 37 31 31
26 21 19 21 16 16 15 7 10 10 18 23 26 25 25 21 20 22 22 23 24 25 28 29 28 28 30 34 36 39 39 39 38 33 25 22 23 30 29 27 31 31 33 35 34 34 34 31 30
29 22 23 18 15 13 10 7 5 7 9 19 20 21 26 23 19 22 22 23 24 25 26 28 29 29 27 32 35 39 41 40 42 39 37 33 31 32 32 29 32 35 31 33 36 33 31 32 24
30 25 25 20 27 15 14 12 10 7 7 13 14 18 23 27 22 20 22 22 24 25 27 26 30 29 28 29 32 35 39 40 40 41 39 37 37 35 32 32 31 30 32 31 31 31 28 25 24
32 31 20 16 21 22 16 13 7 8 7 6 9 14 18 24 24 22 21 21 23 24 25 26 30 30 28 28 30 34 36 40 41 39 40 42 41 37 36 35 33 30 27 26 26 23 22 22 20
36 32 28 26 19 20 21 10 7 8 5 2 4 9 11 19 23 22 21 21 22 23 23 22 25 29 30 31 31 34 34 34 40 40 41 41 43 42 39 37 37 36 32 28 24 21 18 15 12
40 35 30 24 24 18 17 11 13 9 9 3 4 4 8 10 19 19 18 20 21 21 23 24 22 23 28 28 31 33 35 35 36 39 39 39 38 40 40 39 37 37 36 34 31 26 22 17 12
44 43 39 29 21 22 15 22 21 15 17 7 6 1 4 6 11 15 16 17 21 20 21 24 24 22 23 25 26 27 32 34 35 36 37 40 36 37 38 38 37 36 34 33 32 30 28 27 25
52 55 49 37 34 30 29 34 26 22 22 14 6 6 3 4 2 10 16 17 17 18 20 18 22 25 25 23 25 26 27 32 32 32 34 36 39 37 36 37 36 35 35 33 31 30 28 27 26
59 59 59 50 41 43 40 33 27 30 28 21 14 10 10 7 2 2 10 15 15 16 17 18 17 22 25 24 25 26 25 26 30 28 33 33 38 41 36 35 35 34 35 36 33 33 33 31 30
63 63 60 57 56 47 50 46 40 37 27 26 22 18 16 10 5 5 2 7 9 13 16 16 18 19 21 23 24 26 27 26 29 32 31 31 32 34 39 38 34 35 33 32 33 33 34 34 34
68 69 66 62 62 57 54 51 49 45 33 28 27 24 19 15 9 6 4 1 5 8 10 12 15 17 19 19 22 23 25 27 26 29 32 31 31 32 35 36 36 33 33 32 32 32 34 35 35
74 72 72 70 67 62 59 45 53 50 40 33 29 29 23 19 15 10 8 5 1 2 5 9 12 13 15 16 18 20 21 25 28 28 28 30 31 29 29 34 33 34 32 30 30 29 31 33 34
76 74 74 73 68 66 63 56 52 46 42 37 32 32 24 22 17 13 14 7 4 2 5 2 7 11 11 13 15 16 19 19 22 25 25 26 26 27 26 27 28 32 30 30 30 29 28 29 30
80 78 75 76 73 70 66 58 50 45 41 43 40 32 29 30 22 20 16 11 10 8 6 5 1 5 9 10 13 13 12 14 18 19 19 19 24 25 24 26 26 27 29 30 29 29 28 28 27
82 79 77 76 77 74 72 68 63 59 51 45 40 39 35 35 28 26 20 19 18 15 13 10 9 6 6 7 7 7 9 12 14 16 17 19 20 21 24 25 25 26 27 28 28 29 28 28 28
86 83 80 75 77 77 74 65 62 60 61 53 43 47 39 40 34 31 27 27 24 20 18 17 13 13 11 7 6 7 5 7 10 11 14 15 14 15 19 20 22 23 24 25 26 27 28 28 30
87 86 85 82 80 80 74 68 62 60 61 59 52 47 45 49 43 37 30 29 26 26 24 23 18 15 14 11 7 5 6 6 6 7 12 10 11 11 12 15 18 19 20 24 23 23 26 28 26
89 89 89 86 80 80 76 70 67 67 67 65 62 50 50 50 45 39 36 31 31 30 32 24 18 22 16 13 10 7 8 5 6 6 11 13 10 9 11 12 13 15 19 19 21 23 20 23 25
91 89 87 87 83 79 84 79 72 71 67 68 71 67 59 58 55 51 46 42 36 35 35 35 23 24 22 17 14 12 8 5 3 4 4 7 8 11 10 8 7 14 20 18 18 19 19 18 21
92 91 89 87 84 80 84 90 85 76 71 70 71 72 69 62 58 55 52 48 43 37 40 39 31 26 28 25 20 17 14 10 7 7 5 4 1 5 8 6 4 6 12 19 17 14 16 17 19

GFSSGP_250_spd_102.txt.gz
Wind_Speed
8 18 17 19 18 24 34 32 25 30 33 32 27 23 25 24 25 27 22 14 10 11 10 12 12 14 12 14 21 22 25 26 27 32 31 32 32 34 36 36 36 35 33 31 29 29 27 25 21
13 8 12 16 18 23 29 32 26 24 31 32 31 28 27 27 26 26 27 25 21 17 14 9 8 7 8 16 17 19 22 24 25 28 29 27 27 26 26 26 27 28 28 29 28 27 24 21 20
10 6 7 16 10 21 28 31 26 22 29 30 31 31 30 29 27 26 24 24 22 18 15 13 14 12 10 5 2 6 6 10 13 16 18 17 18 19 21 22 23 25 25 25 25 25 25 23 19
8 7 5 8 10 18 23 30 28 23 25 28 28 29 29 27 26 25 23 21 21 21 19 17 15 11 10 8 5 3 4 6 6 9 10 12 12 12 14 16 19 20 19 19 18 18 20 21 18
6 6 5 5 14 15 18 25 28 24 21 26 26 26 26 26 27 26 25 23 25 26 24 19 16 17 16 15 13 7 6 6 4 2 1 3 4 6 8 12 13 18 22 25 27 27 23 23 22
12 5 9 6 8 10 19 23 28 27 23 21 24 25 26 27 28 28 26 25 24 24 26 26 25 24 23 21 14 11 9 9 11 11 9 5 4 6 12 16 20 24 25 21 13 13 14 10 15
11 7 8 1 7 8 17 19 27 30 26 24 21 24 25 26 28 29 27 25 26 27 25 26 28 29 28 23 19 16 11 11 13 12 10 7 9 12 13 12 11 13 10 7 11 11 14 16 18
10 10 9 4 5 8 15 18 21 29 29 26 22 23 25 25 26 28 28 27 26 27 27 27 28 32 32 28 26 18 14 10 9 8 9 11 10 10 10 10 10 12 9 13 19 27 29 28 27
14 14 8 8 7 5 11 16 16 22 31 28 24 22 26 24 22 25 27 28 28 26 28 31 30 35 37 35 34 29 18 14 11 12 14 12 11 11 15 21 20 19 21 30 33 31 33 31 19
19 16 12 11 6 4 6 12 12 18 27 30 25 21 24 24 22 23 26 26 29 29 27 27 31 35 40 38 39 37 32 27 21 18 17 17 19 20 20 26 27 25 28 34 37 35 35 29 25
21 19 21 12 10 12 9 10 11 11 18 23 25 21 23 26 21 24 26 27 28 28 28 27 29 32 35 40 40 40 39 37 32 29 25 26 27 26 26 28 32 32 34 36 36 36 33 27 20
28 24 23 16 21 12 10 8 7 9 13 19 23 26 22 23 23 24 25 25 28 29 28 27 27 31 34 37 41 39 41 41 38 35 34 32 29 28 29 30 34 33 32 32 31 29 29 22 21
24 28 27 27 21 17 15 14 9 8 7 13 19 22 23 22 24 26 24 24 26 29 28 28 29 29 31 35 39 40 41 40 43 42 39 36 34 30 29 30 28 31 32 30 29 25 20 19 18
33 29 27 21 17 23 15 12 15 6 4 8 15 16 23 21 22 26 26 26 24 26 28 28 29 31 33 34 35 38 39 40 40 42 42 41 37 35 32 30 27 25 26 25 23 20 18 15 14
39 31 33 31 28 25 13 13 12 5 2 6 6 11 15 19 19 22 25 25 25 25 24 24 26 29 32 34 34 36 38 42 42 40 41 41 41 40 36 34 32 28 23 19 19 18 15 11 9
36 34 31 26 24 18 16 19 13 9 8 5 1 8 11 14 16 18 22 22 25 26 26 23 22 24 25 31 33 34 35 37 39 40 39 41 42 40 40 38 35 33 31 27 22 17 12 8 4
38 35 33 30 25 22 21 19 16 10 10 5 4 3 6 8 14 17 18 21 22 24 25 26 25 24 24 26 31 30 34 36 38 40 38 37 37 39 39 40 39 37 34 31 29 26 23 20 16
46 39 36 35 28 16 26 32 16 14 13 12 6 5 2 3 7 13 15 18 20 25 22 23 24 24 26 25 27 31 29 31 33 34 37 38 37 38 36 36 38 37 36 34 32 30 28 27 23
53 46 49 40 36 35 28 37 32 27 29 19 13 6 4 3 3 6 10 14 18 21 24 22 22 23 26 27 28 31 33 32 32 34 36 36 35 34 34 34 34 34 35 34 33 32 31 29 28
59 55 55 50 48 38 38 42 30 31 28 25 22 12 8 9 4 3 4 8 12 16 20 22 23 18 20 24 25 25 28 29 29 31 31 35 36 34 33 31 31 31 31 32 32 31 31 30 29
65 68 64 62 54 48 50 36 42 47 33 31 27 21 16 14 11 4 6 5 7 11 15 17 17 21 19 19 24 25 27 29 29 29 29 32 34 35 35 32 30 30 29 29 30 29 31 32 30
71 70 70 66 63 56 56 49 42 42 40 36 27 24 22 18 17 8 8 8 5 6 8 11 16 16 19 16 16 18 20 23 23 24 25 27 28 32 34 35 34 33 29 27 29 28 29 31 31
75 73 75 71 68 66 64 58 57 51 48 43 34 28 27 27 23 16 12 11 9 5 5 3 8 11 12 15 14 14 14 17 19 21 22 22 26 28 30 31 32 34 31 28 28 29 28 29 31
77 77 77 78 76 70 67 66 58 62 55 48 42 33 31 32 27 22 18 15 9 6 3 4 3 5 8 12 10 11 11 13 15 16 18 20 21 23 23 29 29 30 33 31 29 31 29 30 30
81 80 80 82 77 77 71 70 64 59 56 51 45 40 37 37 30 25 21 19 15 11 7 3 1 4 5 7 7 9 8 9 11 12 14 20 19 18 21 23 24 24 26 30 29 29 34 32 30
84 85 84 81 85 79 75 69 64 66 59 54 50 50 42 41 36 32 27 25 17 17 15 10 5 7 8 6 4 2 4 6 8 10 12 14 17 16 17 18 20 21 24 25 25 27 28 30 30
86 84 87 86 83 85 82 79 74 71 68 62 52 50 50 46 43 38 32 30 23 19 21 18 13 10 11 8 7 3 4 3 4 5 8 10 10 15 17 16 17 19 21 22 22 19 24 28 27
86 88 87 86 85 87 85 81 82 79 76 65 60 54 52 49 46 45 40 42 33 26 26 23 17 13 18 12 11 9 7 5 4 3 3 6 7 9 11 15 16 16 19 20 21 21 18 19 23
91 89 88 89 86 86 85 80 80 79 77 72 68 61 56 52 53 49 48 47 42 31 30 27 22 18 18 18 15 15 12 9 8 4 3 2 3 3 7 6 8 9 12 17 18 18 18 20 18
90 91 91 90 87 86 85 84 77 76 76 74 71 70 62 55 58 58 55 52 47 38 35 31 28 28 26 25 24 21 19 16 13 11 10 5 4 2 2 4 2 2 7 6 14 17 15 15 14

GFSSGP_250_spd_105.txt.gz
Wind_Speed
13 11 15 23 20 29 36 29 24 28 29 28 25 25 26 25 24 19 13 9 8 5 4 6 8 8 9 10 11 16 23 16 25 24 28 31 35 39 36 35 39 40 39 39 37 34 30 28 25
10 13 15 17 19 29 33 29 22 25 29 30 28 27 26 25 25 24 21 16 10 4 5 8 11 13 13 18 18 24 26 29 30 33 35 35 38 39 40 37 33 32 32 31 30 30 28 25 22
6 11 15 10 21 24 28 28 21 22 26 29 28 25 25 24 24 23 22 17 15 11 8 8 6 2 2 8 16 23 25 26 27 28 30 29 31 28 27 27 28 29 28 27 27 27 25 24 22
14 11 11 3 20 23 26 30 22 20 22 27 28 25 24 24 24 22 22 19 16 15 12 9 6 6 4 5 6 7 7 12 15 15 18 18 18 19 19 21 24 25 26 26 24 23 19 16 15
8 6 10 4 11 19 24 32 28 21 20 24 27 27 25 24 25 23 21 21 20 18 15 15 13 10 6 5 3 6 6 3 3 2 4 6 8 12 14 17 19 21 22 23 22 22 20 19 19
13 5 8 0 18 15 20 32 32 27 19 20 25 26 27 26 26 24 24 23 20 21 24 23 20 17 13 9 6 6 6 7 8 5 6 4 8 12 16 21 24 25 27 26 26 26 24 20 19
13 7 2 2 12 17 20 27 33 33 23 20 22 24 26 26 26 26 24 25 23 22 26 28 29 24 21 15 10 9 8 8 8 9 7 7 12 13 14 14 14 15 15 13 12 7 7 10 12
14 10 6 1 3 11 20 22 26 33 31 20 21 23 24 24 24 26 25 24 26 27 28 34 32 31 29 22 15 11 7 5 6 7 8 10 10 11 10 10 9 7 7 14 15 19 19 18 20
12 12 7 6 4 7 12 17 19 27 29 23 22 21 24 24 22 24 25 25 22 26 29 31 35 35 39 35 25 15 9 8 9 9 11 11 10 12 14 12 13 21 30 36 34 29 24 22 23
16 11 8 8 5 4 9 14 16 22 25 24 21 23 22 25 23 23 24 24 24 25 29 33 36 36 38 39 36 30 22 15 12 13 15 16 19 21 20 21 25 33 38 35 31 26 20 22 23
20 18 15 14 8 5 10 13 10 15 21 23 20 22 23 25 24 23 23 23 25 24 28 30 34 38 38 39 42 38 32 29 26 24 21 22 24 25 25 28 32 35 32 31 28 25 20 21 21
24 22 21 17 8 10 10 8 8 13 15 19 21 22 22 25 23 24 22 24 27 28 30 31 32 37 38 39 39 41 40 38 34 32 27 24 25 27 31 29 30 32 32 28 26 24 18 16 14
28 25 26 19 15 15 15 7 9 10 8 14 18 20 23 26 24 24 21 23 26 28 31 33 33 35 39 41 40 39 41 41 41 39 35 30 26 25 26 30 29 27 26 24 24 18 20 20 19
34 24 28 24 25 26 17 8 8 10 2 7 13 18 19 24 25 25 23 19 21 25 28 31 32 33 36 38 39 39 38 41 41 40 40 36 32 28 24 24 23 24 22 21 17 16 17 19 16
32 32 32 33 24 18 20 11 12 8 3 4 8 13 16 18 23 24 23 22 19 20 23 25 30 32 32 34 37 38 37 36 38 40 40 38 36 33 31 25 20 17 18 17 13 11 10 10 8
31 30 33 27 23 27 21 16 14 9 7 4 3 11 13 16 19 22 22 22 22 22 22 23 25 30 28 30 34 35 37 35 35 36 36 38 38 36 33 32 31 28 24 20 15 10 8 5 3
36 36 36 29 27 32 22 21 16 9 9 5 4 5 9 13 16 19 23 21 21 21 23 25 24 24 27 25 29 31 33 34 34 34 33 34 36 36 35 34 31 31 28 27 25 21 17 13 10
34 38 35 39 30 27 22 23 14 12 10 6 5 4 5 8 14 18 20 22 20 18 21 26 27 26 28 29 28 30 33 36 34 35 32 31 32 32 33 33 32 31 29 28 27 25 22 19 16
45 27 40 41 29 34 33 30 30 20 16 11 6 7 4 3 7 10 16 20 21 22 18 18 24 25 25 24 25 25 29 32 36 37 36 33 32 31 30 31 32 31 30 29 27 26 24 21 20
61 53 46 38 39 37 35 35 27 31 31 27 19 13 7 5 3 4 8 16 18 19 20 22 18 21 21 23 26 27 27 28 29 32 34 35 33 32 31 30 30 31 31 31 30 28 28 27 26
64 57 52 35 43 45 38 41 32 30 30 29 26 23 13 9 5 4 5 7 14 15 17 19 20 17 18 19 21 22 21 22 24 27 30 34 35 34 33 33 30 31 33 33 32 32 31 30 29
67 60 54 42 50 50 45 36 41 33 32 36 32 26 22 17 11 8 8 7 7 10 13 17 18 17 16 13 18 18 18 18 20 25 27 28 29 32 32 33 32 31 33 32 31 31 31 32 31
69 67 59 59 48 54 53 44 46 49 41 39 40 33 30 23 17 14 12 9 9 8 6 8 14 13 14 13 16 11 13 15 18 20 21 22 26 27 29 32 32 31 34 33 32 30 29 29 31
73 76 77 68 65 65 59 55 46 53 49 47 45 40 37 27 24 19 17 14 10 7 5 4 8 9 10 10 10 10 11 13 16 18 20 20 22 24 24 25 27 30 31 31 33 32 31 30 30
80 80 77 74 73 70 62 61 59 53 58 55 52 47 46 36 31 25 23 22 15 10 7 4 2 4 5 8 6 8 8 11 11 13 18 21 18 21 22 24 24 26 26 26 30 31 31 32 32
85 85 83 79 78 75 74 61 63 61 60 55 51 51 46 41 35 30 26 24 22 15 11 9 1 4 1 4 3 2 5 8 9 10 14 14 15 16 17 23 25 25 25 24 24 29 29 30 32
88 88 88 90 80 81 75 62 64 70 68 65 60 56 50 43 36 32 29 27 22 20 15 15 12 8 8 2 2 5 1 2 3 8 11 2 9 14 15 15 20 24 24 26 28 28 28 29 29
89 92 91 90 91 87 81 77 70 66 69 71 70 63 60 50 42 37 35 35 29 27 21 18 17 14 10 9 6 8 6 5 4 4 4 17 13 5 5 11 12 15 19 21 23 26 30 30 29
90 90 93 94 95 94 90 79 74 72 67 68 64 70 65 55 43 41 43 39 35 33 33 27 24 18 16 12 10 11 11 9 8 6 7 7 5 4 4 7 7 7 10 13 17 19 20 22 27
91 94 95 97 95 96 97 95 88 83 79 70 73 67 64 62 58 53 50 49 44 41 38 35 28 25 21 16 16 14 17 15 14 13 11 10 8 4 5 1 4 2 5 6 12 14 16 17 18

GFSSGP_250_spd_108.txt.gz
Wind_Speed
19 13 22 19 30 29 30 22 23 25 26 26 26 25 27 26 20 15 11 10 7 5 1 2 5 8 12 19 20 17 28 24 24 23 21 22 21 30 37 37 39 41 40 38 38 38 36 34 33
14 13 14 15 25 30 32 23 22 24 27 28 26 23 23 24 22 20 18 12 5 1 4 5 8 13 16 19 26 25 24 20 32 30 30 32 35 36 38 40 43 41 41 39 34 30 29 27 25
15 17 15 14 19 28 33 29 22 21 27 28 26 24 21 23 22 19 18 15 11 7 4 2 3 6 9 16 19 25 23 30 28 28 36 36 34 34 34 36 36 33 32 30 29 26 25 22 20
16 15 11 16 20 22 32 34 27 21 23 27 27 26 23 21 22 22 22 19 15 10 7 6 6 8 11 13 12 12 14 17 21 24 22 22 23 22 22 25 27 28 27 26 26 25 23 16 12
8 8 8 4 19 22 31 35 32 22 21 23 26 26 24 22 22 20 19 20 19 15 15 10 5 3 5 4 2 6 7 8 7 10 10 10 8 12 17 22 24 24 24 22 21 20 17 14 10
12 16 6 10 19 21 27 33 35 26 21 21 23 25 26 22 22 22 22 21 23 23 20 19 10 5 3 4 3 3 2 2 2 1 3 5 10 16 21 24 24 25 26 28 26 22 20 18 17
13 4 5 6 15 18 22 28 32 30 22 19 21 23 24 23 21 22 25 24 23 25 24 24 17 12 7 6 6 7 3 1 3 6 8 10 14 17 19 18 16 15 14 14 12 10 15 17 18
9 4 3 5 9 12 21 25 29 32 25 21 21 22 23 23 22 20 22 25 26 26 26 27 25 25 20 12 8 5 1 3 7 9 10 10 13 14 13 13 10 10 11 10 9 10 12 14 16
11 8 1 4 4 9 15 21 25 29 27 22 20 21 23 23 23 21 21 24 26 27 29 30 32 30 29 26 17 11 9 9 10 13 15 13 14 14 14 18 28 34 33 29 24 21 18 17 21
12 1 6 6 11 9 13 17 20 25 28 21 21 23 23 24 23 21 23 23 24 26 30 29 31 35 33 29 24 20 20 18 20 29 22 18 21 21 24 30 33 32 29 26 23 21 17 18 19
19 11 11 14 12 9 13 17 15 20 24 22 20 23 22 23 24 23 26 26 26 29 31 33 33 33 35 35 33 29 27 27 28 27 11 21 26 35 40 24 27 28 27 25 25 19 19 18 16
26 17 31 30 16 11 12 14 11 17 18 22 19 21 21 22 23 23 25 26 27 29 30 33 35 34 34 35 36 36 35 33 32 27 25 25 34 37 40 14 26 21 22 22 18 15 17 17 14
28 22 28 15 11 9 16 10 8 13 11 16 16 18 20 23 22 21 22 22 25 27 28 30 32 34 34 32 37 37 37 36 25 25 30 28 30 26 22 20 20 21 23 18 20 20 18 12 8
36 32 32 21 16 14 19 17 7 10 5 12 14 15 17 18 23 21 19 18 21 24 25 28 30 32 34 33 32 36 35 35 32 21 27 28 26 23 23 20 18 16 15 11 16 19 18 17 16
35 29 32 28 17 24 23 19 7 6 3 7 11 14 12 15 22 22 22 20 17 19 22 23 25 28 31 33 34 35 35 34 36 35 25 23 26 27 21 17 16 16 9 6 5 4 7 7 7
34 29 31 32 26 20 20 18 12 7 5 2 7 9 11 14 20 19 21 22 22 19 18 21 22 25 28 32 34 35 36 33 33 33 29 28 28 26 25 25 22 19 12 8 6 4 5 2 2
39 33 31 37 33 26 24 22 14 7 6 4 4 6 10 11 17 19 18 20 23 23 22 25 27 26 29 33 37 39 38 37 36 34 35 32 29 28 27 26 26 23 19 19 15 12 11 8 6
40 30 32 37 32 29 30 30 22 10 7 7 4 3 6 10 14 18 19 18 20 22 23 25 27 24 26 32 36 39 40 40 38 36 36 34 33 35 32 29 32 32 26 24 19 18 18 16 16
46 44 23 40 30 30 34 29 20 18 15 11 5 4 1 6 8 12 17 19 20 20 20 20 21 26 28 31 33 35 39 41 42 39 37 36 35 37 35 39 33 17 29 29 27 27 22 23 27
53 47 48 41 41 35 34 31 25 29 21 16 9 4 5 1 3 7 12 16 17 21 20 19 22 22 25 27 30 32 37 37 39 39 39 39 37 37 35 34 32 31 31 32 33 33 32 29 33
55 49 50 48 47 39 39 40 33 38 25 26 24 23 18 8 1 4 4 10 15 18 20 19 17 17 20 24 26 28 27 32 34 34 38 39 38 38 36 34 31 31 32 33 36 36 36 34 33
64 63 57 52 50 48 44 43 41 42 31 32 30 27 20 19 8 4 5 5 9 14 17 17 17 16 15 19 23 23 24 24 30 35 36 35 35 36 34 34 35 35 34 34 36 36 37 38 33
71 75 44 58 48 51 48 48 36 39 36 29 32 30 26 24 19 8 7 6 6 7 10 13 14 15 12 15 18 21 23 23 26 32 32 31 33 34 30 32 35 34 36 39 39 39 39 38 38
78 63 53 57 54 52 51 56 51 41 41 32 41 34 31 29 25 16 12 8 6 7 7 7 9 14 12 11 12 15 14 17 18 15 25 27 30 30 32 34 33 33 34 36 37 40 41 41 42
78 78 65 62 57 51 58 61 56 47 42 40 41 44 36 36 30 24 14 14 12 7 5 6 6 5 9 8 9 11 13 12 7 12 7 12 24 28 30 31 33 35 37 37 37 37 38 41 43
82 86 79 73 58 49 57 61 50 49 48 48 43 40 40 39 36 31 21 17 17 10 6 2 5 3 5 3 1 7 14 12 6 10 6 8 18 17 23 25 27 31 33 37 38 37 36 37 36
89 87 88 80 78 62 63 62 57 53 50 52 54 50 47 41 39 36 32 21 18 20 14 9 6 5 4 5 3 3 7 8 2 6 2 21 5 7 15 16 19 20 23 24 29 33 37 36 35
88 91 91 86 81 69 65 70 63 59 54 57 60 57 50 53 49 44 39 27 20 23 23 16 13 9 8 5 4 7 7 6 4 5 5 2 8 10 10 10 9 14 16 20 24 25 29 31 38
90 93 92 90 88 72 71 71 69 66 62 58 63 66 60 61 56 46 41 32 22 25 25 24 23 19 16 15 6 8 10 13 11 9 8 5 10 6 2 7 4 4 11 16 18 19 21 23 29
91 94 95 95 96 92 79 84 76 67 64 59 67 64 63 56 52 52 49 36 28 25 36 40 33 30 22 19 15 12 11 15 17 15 13 11 10 10 8 5 5 3 1 8 15 14 13 14 18

GFSSGP_250_spd_111.txt.gz
Wind_Speed
16 18 20 20 27 34 34 23 24 24 24 22 20 21 23 21 19 16 14 11 8 6 3 3 6 10 17 16 8 12 18 17 25 26 26 24 21 23 26 26 29 34 40 38 37 40 41 40 38
16 23 22 20 31 34 38 29 24 24 24 23 19 22 22 20 19 20 17 13 9 6 4 5 6 8 11 13 19 21 27 25 20 32 33 34 37 29 32 36 43 39 42 41 39 40 36 33 29
17 18 16 22 29 32 39 34 25 24 25 25 22 22 23 22 24 22 22 17 12 8 6 5 7 10 13 17 22 22 26 30 30 29 27 32 30 37 40 35 34 35 36 37 37 32 28 26 22
17 15 15 18 25 35 39 37 27 25 24 25 26 24 24 21 26 24 15 19 12 9 8 9 12 14 14 15 15 17 18 18 21 23 28 27 29 28 26 25 25 28 29 29 27 25 24 21 18
15 13 10 18 25 30 35 38 32 25 25 26 26 22 24 23 23 22 17 15 17 16 14 9 4 5 9 9 9 8 8 8 12 11 11 14 16 16 18 21 24 26 27 27 25 21 18 15 12
13 9 9 16 19 26 31 37 38 28 23 24 24 23 21 23 24 22 19 21 21 20 19 13 4 1 3 7 5 4 4 2 2 4 8 12 13 17 21 23 23 24 27 29 29 21 16 15 12
11 4 6 6 16 20 26 33 37 29 25 24 23 24 21 20 21 21 21 22 24 24 22 18 11 5 5 6 5 3 1 1 5 7 9 13 17 20 19 15 13 13 14 13 13 18 21 20 17
4 9 8 4 12 15 23 26 33 31 28 23 23 23 22 22 18 20 22 24 25 24 27 25 21 17 9 5 5 3 1 2 6 9 11 15 20 18 18 15 14 14 13 12 8 6 11 16 19
2 4 4 7 8 12 19 26 24 30 25 23 24 25 25 24 22 19 22 26 23 24 27 28 28 24 18 14 12 9 10 13 17 21 18 25 30 24 24 26 25 25 23 20 17 12 8 11 16
13 12 9 8 9 7 12 18 21 25 24 24 24 24 25 25 26 24 24 27 31 31 30 31 32 32 28 21 19 17 19 14 13 10 23 33 38 26 32 34 29 27 27 26 23 21 17 16 19
18 17 18 13 7 4 4 13 17 20 23 23 23 22 23 24 25 25 24 27 28 30 30 30 31 33 32 29 22 21 19 20 18 23 34 29 27 23 30 36 25 26 22 22 21 13 21 15 13
25 22 9 22 15 9 2 6 13 18 19 21 23 21 22 20 23 24 23 24 25 27 30 31 31 32 33 35 29 27 29 31 27 28 29 31 21 22 21 29 18 14 19 19 20 18 13 10 10
31 21 8 17 8 9 2 3 10 14 13 19 19 21 21 21 22 20 22 24 25 26 29 33 32 33 33 36 34 27 32 29 29 21 23 22 14 16 17 26 16 10 18 13 15 14 12 10 10
35 23 17 21 16 13 8 4 9 10 9 14 19 17 18 19 22 23 21 20 22 23 25 31 33 34 33 37 37 39 26 20 23 23 25 22 20 19 17 12 6 10 8 12 17 16 12 8 9
34 25 27 22 22 10 11 11 9 8 6 9 14 16 17 17 20 25 24 22 21 25 26 32 38 40 38 37 37 39 38 29 28 30 30 29 26 23 16 14 8 4 4 7 9 7 6 9 7
37 38 28 29 23 17 13 17 15 2 4 4 9 14 15 15 17 25 29 27 29 29 28 34 39 44 46 40 38 38 38 38 37 37 37 32 29 27 30 26 24 20 16 12 13 9 7 1 2
26 44 39 33 28 16 21 16 14 3 3 4 7 12 14 16 14 19 24 27 28 29 28 32 39 44 45 47 45 42 42 42 40 40 39 34 29 28 30 36 30 32 25 20 18 17 14 10 5
49 42 39 32 32 29 20 22 18 9 4 6 8 8 12 13 16 16 20 23 27 26 28 30 36 39 42 44 46 46 48 46 45 44 40 39 35 34 36 36 35 35 32 29 25 25 25 20 13
54 48 42 38 37 36 32 25 20 20 11 11 10 7 8 8 12 14 18 20 21 24 24 27 31 33 35 39 41 42 46 48 47 47 43 44 42 39 40 39 39 40 37 35 32 31 38 42 37
57 52 46 44 43 41 36 29 31 25 19 15 11 12 5 6 7 8 13 17 18 17 24 25 26 29 30 32 39 39 40 40 43 43 43 45 43 41 42 42 44 39 38 41 38 36 37 40 43
61 54 43 44 46 46 38 38 34 29 27 20 12 7 4 8 2 2 6 13 16 17 17 20 23 26 25 28 31 32 35 40 38 39 42 43 42 43 44 44 45 46 45 43 40 38 36 34 30
64 59 50 42 45 50 38 41 38 37 32 24 17 18 16 9 10 2 2 7 13 13 15 17 19 20 24 25 28 30 31 33 34 37 39 41 41 40 41 42 43 44 49 48 44 37 34 37 38
67 68 64 50 49 56 46 43 46 40 29 26 23 19 25 15 13 7 4 7 6 8 11 14 14 14 17 19 16 20 17 18 29 32 31 36 38 41 43 44 45 44 43 46 48 44 36 32 30
71 74 72 65 56 50 52 50 49 42 38 31 28 25 28 23 19 15 8 10 7 6 7 9 12 14 13 15 14 15 16 16 16 21 21 23 28 34 39 41 44 46 47 44 43 46 41 37 35
77 76 70 75 65 54 58 57 52 44 42 42 39 39 37 28 23 21 14 11 9 6 5 6 7 9 11 10 10 9 9 17 10 8 19 20 25 28 27 30 36 39 42 44 42 39 40 40 37
83 83 75 71 69 67 61 56 59 53 48 43 39 40 35 32 28 24 19 14 13 11 6 5 6 7 8 5 5 6 11 8 7 11 8 9 11 18 22 24 24 29 33 38 41 40 37 37 36
85 80 79 77 68 64 66 52 53 61 49 47 44 43 37 39 34 27 25 25 14 15 13 9 6 3 2 2 1 4 4 2 2 3 3 3 4 14 11 13 16 21 27 29 33 36 36 37 36
88 84 80 78 74 69 68 64 51 57 63 54 49 38 44 42 38 32 30 30 28 21 20 18 15 8 5 1 4 8 4 7 4 7 3 2 10 5 11 5 8 15 19 20 25 26 29 32 34
87 87 86 83 70 71 65 66 61 55 58 60 54 42 44 44 41 37 37 34 29 29 25 20 22 16 12 10 8 9 10 7 11 10 6 2 3 6 5 4 4 5 11 16 18 20 22 24 28
91 93 97 96 81 73 65 68 66 63 59 57 50 44 48 48 48 42 41 38 35 33 32 29 28 27 25 19 13 14 8 7 12 12 14 9 7 8 8 5 2 2 1 7 8 13 13 14 17

GFSSGP_250_spd_114.txt.gz
Wind_Speed
20 24 29 33 35 37 29 23 25 24 23 22 22 21 21 20 17 14 11 8 5 4 5 7 8 8 14 20 18 24 21 20 23 28 26 25 26 22 24 24 30 30 27 34 32 30 34 36 33
17 20 21 29 34 40 31 26 27 27 25 23 21 23 22 22 23 20 14 10 6 2 3 6 9 12 14 19 20 18 17 16 19 19 22 28 30 32 35 33 33 34 38 39 48 41 38 34 30
15 14 16 24 33 38 33 30 26 27 25 21 22 20 20 22 15 14 15 12 8 7 7 8 9 12 13 16 19 20 22 23 28 30 31 30 33 37 36 36 36 42 39 38 38 35 30 25 24
11 12 15 22 30 37 38 33 30 27 27 21 21 21 20 19 18 15 17 15 13 10 8 8 11 12 13 14 15 14 16 19 22 24 26 32 34 37 35 32 32 32 29 28 27 26 23 20 16
13 11 14 18 24 30 38 36 32 29 28 23 20 22 23 20 17 18 19 18 18 17 10 4 4 6 10 10 7 9 10 8 9 13 16 18 19 22 24 26 27 28 28 26 23 21 18 14 14
11 9 10 10 17 28 34 34 35 29 27 27 23 20 19 19 21 20 22 24 26 27 18 7 1 4 5 7 4 2 2 2 4 6 9 13 16 20 24 26 25 25 26 26 25 19 11 11 9
5 7 2 5 16 22 28 32 34 31 28 29 26 23 18 16 22 24 23 25 30 31 28 24 13 5 4 5 5 5 3 3 5 8 10 11 13 14 12 11 10 12 18 14 12 14 16 12 12
5 5 2 3 11 19 23 27 29 34 30 27 25 23 20 18 21 26 26 24 30 32 33 27 20 13 7 5 6 3 2 5 13 14 18 26 22 22 21 19 17 16 8 9 10 13 17 18 16
1 3 3 6 8 15 19 23 26 28 29 27 25 23 23 23 23 26 27 22 27 32 31 31 27 18 13 9 10 7 11 10 18 23 30 28 26 27 23 25 25 31 26 20 16 11 11 13 16
12 9 14 9 2 12 16 20 23 25 28 27 23 21 23 23 23 24 26 29 26 30 29 30 28 23 17 16 18 14 13 14 16 20 25 20 25 27 27 27 24 28 30 26 25 22 19 18 16
15 10 14 6 2 7 10 15 19 22 25 26 24 21 21 22 24 24 26 29 30 32 29 29 29 28 24 23 18 18 17 17 18 17 26 20 18 24 26 20 23 23 21 20 21 24 22 23 21
20 17 18 22 6 2 7 8 17 18 22 23 26 23 19 19 22 24 25 28 32 31 29 31 32 31 25 26 29 28 21 18 17 14 20 19 20 19 23 20 22 22 21 22 16 19 19 21 19
28 25 4 27 17 8 3 6 13 16 17 21 24 24 23 22 18 22 24 31 34 35 32 32 34 33 29 26 21 21 22 18 13 17 15 16 15 15 16 16 18 22 20 17 14 14 16 16 14
35 23 11 12 9 12 7 1 8 14 12 16 20 23 21 23 23 24 28 32 34 40 42 40 39 35 35 33 29 28 28 25 23 18 21 21 20 17 14 13 13 12 11 12 12 11 10 11 14
36 25 16 9 10 12 13 7 3 10 10 12 17 19 24 25 26 30 34 34 36 41 45 50 47 43 39 40 37 37 34 32 32 30 31 31 31 25 23 19 16 19 20 16 10 9 8 10 11
34 31 24 14 27 21 18 9 3 4 6 7 13 18 20 21 24 27 32 33 36 39 45 49 52 51 49 48 45 40 38 33 32 30 29 32 34 30 30 28 22 25 21 19 16 11 7 7 4
43 38 43 35 37 28 23 10 7 3 3 7 11 18 20 19 21 23 28 31 35 37 41 45 46 49 51 51 50 48 44 41 40 39 39 39 40 38 37 35 31 28 21 22 15 8 5 8 8
52 35 52 44 44 32 23 18 13 11 5 9 10 11 15 15 19 19 23 25 30 33 36 38 40 42 45 45 46 45 45 43 43 42 43 46 44 43 39 40 39 34 33 36 39 30 19 13 12
52 53 45 48 37 33 26 28 17 14 6 13 15 11 12 14 15 18 17 21 21 26 31 34 36 36 38 41 41 45 44 43 46 45 46 47 50 47 44 45 43 40 45 44 49 55 57 53 44
57 46 47 49 38 34 32 28 21 19 13 12 16 14 12 11 10 12 16 17 19 22 26 28 29 32 37 38 38 39 41 44 45 45 43 43 45 49 51 46 40 42 40 38 47 49 48 48 45
69 57 45 43 48 39 40 34 26 23 18 18 16 17 9 5 8 8 13 15 17 18 19 22 26 28 31 36 37 35 39 43 43 44 44 47 46 43 47 49 49 42 40 39 33 33 34 33 34
73 72 65 54 49 46 48 42 39 33 24 23 22 18 15 10 5 6 11 12 13 16 16 17 20 24 28 30 33 33 33 36 39 40 43 45 46 47 47 47 48 46 42 34 34 35 30 26 24
75 71 63 61 56 52 47 40 41 38 32 33 29 23 17 14 11 5 7 11 10 11 14 13 13 14 14 15 18 24 25 29 28 31 36 38 40 41 42 43 44 42 40 38 34 30 27 25 23
76 73 65 63 60 58 49 46 47 40 37 34 29 25 22 17 13 10 5 9 8 8 10 12 11 11 9 15 14 15 17 24 26 26 31 32 35 35 36 37 40 41 40 38 36 35 27 25 23
77 74 69 66 59 56 53 53 50 48 43 41 38 32 29 27 22 12 11 10 8 7 8 7 8 9 9 10 9 9 13 12 18 18 21 21 24 27 27 29 36 37 39 38 36 35 32 25 24
82 80 75 72 60 52 56 57 57 50 46 44 36 37 28 30 26 20 16 15 13 6 7 5 7 8 7 7 4 8 8 9 11 9 10 14 19 18 19 21 27 31 32 38 38 37 32 31 28
87 87 83 79 73 57 58 60 64 58 53 49 39 39 39 37 36 29 24 19 17 15 10 7 4 2 3 3 3 5 2 3 5 3 5 5 4 12 14 16 16 21 26 29 33 32 36 36 33
87 86 83 81 79 73 64 65 66 66 57 50 44 46 46 38 37 30 30 27 22 20 16 14 10 6 3 2 1 5 5 7 3 1 0 6 6 7 14 9 11 15 18 20 22 26 28 32 32
86 86 86 85 83 82 72 66 66 62 63 58 51 47 45 39 36 38 36 31 26 25 26 22 15 17 13 12 6 6 8 8 8 6 5 7 7 4 7 7 4 4 9 11 12 14 19 23 25
85 91 90 88 88 86 80 73 67 64 64 60 58 54 51 47 44 37 41 36 35 31 27 24 19 20 22 20 14 10 10 9 9 7 6 6 7 7 7 5 4 2 3 6 5 7 8 12 16

GFSSGP_250_spd_117.txt.gz
Wind_Speed
15 19 26 37 38 30 31 28 24 20 16 20 21 22 21 18 12 9 6 5 6 7 13 17 17 18 24 25 23 23 17 26 26 29 27 29 31 33 33 30 29 25 25 29 31 30 30 34 29
13 18 24 31 38 34 32 27 25 19 19 19 19 18 16 17 17 13 11 6 1 4 9 12 14 13 18 28 32 26 30 26 27 33 30 28 29 31 28 30 35 35 38 34 36 35 36 29 32
14 15 19 29 33 34 32 26 27 20 18 18 17 16 17 14 12 15 13 10 8 5 6 11 15 17 16 17 27 28 23 26 23 22 24 26 30 31 33 35 39 42 40 37 38 37 37 31 28
10 10 17 24 29 32 34 29 28 24 17 18 18 19 20 18 19 20 19 19 16 10 8 8 12 15 15 15 18 20 20 22 24 22 22 28 31 33 34 36 38 39 39 34 32 27 22 18 15
8 9 12 14 26 31 30 29 31 27 22 18 18 20 21 23 23 21 22 22 21 15 5 4 7 8 10 11 10 10 10 11 11 12 15 16 20 22 25 27 28 29 29 26 23 20 19 13 10
8 10 9 13 22 27 26 29 30 28 25 21 20 22 22 25 25 22 27 27 26 24 17 4 5 5 4 6 4 2 2 3 3 6 10 14 17 18 19 21 24 26 26 25 22 18 14 11 9
4 5 3 9 19 24 26 26 28 33 27 24 23 23 21 27 27 23 24 27 29 28 22 15 10 8 7 6 6 7 5 3 1 5 4 4 6 5 5 4 4 8 14 15 14 17 16 13 12
6 2 2 8 16 22 26 27 29 32 31 26 25 24 23 26 27 26 25 29 29 26 25 19 16 13 12 10 8 6 9 19 16 16 17 17 18 18 19 17 16 17 12 5 8 16 21 19 16
3 4 0 7 11 19 24 26 27 29 31 28 25 25 24 24 27 28 28 28 27 28 25 22 19 15 12 13 15 16 21 20 14 17 19 20 20 24 23 26 30 29 23 15 10 11 15 17 16
12 6 3 6 7 18 22 22 23 26 29 28 26 23 25 26 26 29 32 27 28 29 28 27 24 24 22 20 17 17 18 18 17 15 15 15 17 19 21 22 24 23 26 27 25 18 13 14 15
18 13 10 3 12 12 15 19 18 22 27 28 25 21 21 24 27 30 30 27 28 30 27 26 29 25 23 22 17 17 10 15 17 17 15 12 17 21 21 21 23 22 25 26 28 27 25 22 20
15 10 8 7 9 7 8 13 15 19 23 26 26 27 24 23 26 32 34 32 32 28 30 24 26 30 30 27 20 14 13 17 17 13 15 15 13 17 19 21 20 20 20 21 24 23 22 22 21
22 16 9 15 12 4 6 11 12 17 20 24 26 27 26 31 32 33 39 37 32 33 33 29 27 24 21 23 19 17 17 18 20 20 17 17 11 9 12 14 15 17 17 17 20 22 21 18 16
28 19 12 13 23 9 4 5 9 13 17 20 24 27 29 32 36 36 41 45 42 40 39 34 30 23 26 30 27 26 27 23 24 26 24 24 19 19 21 18 15 10 11 14 14 15 16 15 18
35 25 16 10 17 26 11 3 4 10 13 16 20 23 26 28 34 36 39 43 47 47 46 41 37 36 31 34 32 29 27 25 27 30 28 27 27 24 21 21 24 19 14 12 15 13 12 13 17
39 26 17 13 16 20 9 6 2 3 9 16 18 21 23 26 29 34 39 44 44 46 48 47 47 44 42 41 41 41 43 37 38 34 34 33 33 32 31 30 27 20 14 14 14 13 14 13 11
42 34 30 19 29 21 18 9 5 6 7 12 17 19 19 25 27 29 34 40 40 39 42 43 46 44 43 42 42 43 44 43 43 42 41 39 39 37 40 40 40 31 21 17 15 17 19 15 14
49 43 38 27 29 30 28 19 13 10 11 13 12 14 17 16 22 24 26 34 34 33 35 39 43 44 42 42 42 44 43 45 47 46 44 44 44 38 41 47 54 54 51 44 37 32 29 27 32
56 53 51 39 41 31 33 27 19 15 12 15 14 15 15 15 16 22 23 26 29 30 33 38 40 40 41 43 44 45 42 43 43 46 49 46 43 40 42 43 50 55 56 55 51 53 48 43 46
61 54 60 48 33 37 39 32 25 19 16 16 18 15 14 14 14 17 23 23 26 24 29 33 33 38 39 40 43 44 48 47 49 52 49 47 41 42 42 40 40 39 42 42 41 42 40 43 40
66 62 60 60 47 40 41 34 27 25 17 19 17 17 12 13 12 15 17 20 22 24 24 28 31 32 33 38 40 41 43 44 44 43 42 41 44 41 38 34 34 34 33 33 32 35 41 43 39
70 65 60 61 55 48 44 39 31 30 23 20 20 16 14 14 11 11 14 16 18 21 22 23 27 29 30 31 33 37 37 40 42 44 43 40 38 37 39 38 34 30 29 30 30 31 32 33 33
75 69 69 56 56 53 50 45 40 34 27 27 24 20 14 15 13 5 9 14 14 17 19 20 18 16 18 25 25 28 29 30 34 35 36 38 38 40 39 38 36 35 34 34 34 35 31 22 28
77 73 73 71 62 60 60 51 45 41 36 30 28 25 20 16 12 7 2 6 8 12 11 11 11 12 13 16 20 20 22 22 26 28 30 32 32 36 39 39 36 34 33 34 36 35 33 31 32
81 78 72 64 65 61 62 58 54 48 42 37 34 30 26 20 15 8 6 7 9 8 9 10 8 10 12 9 11 13 14 14 16 19 21 22 26 25 31 34 36 37 35 31 32 31 30 29 31
85 85 81 78 70 64 62 60 59 54 49 42 41 39 31 30 23 18 14 13 8 9 8 7 8 8 8 7 9 8 9 9 9 10 11 12 15 21 19 25 30 31 34 34 33 36 33 29 26
84 89 88 87 82 70 70 65 60 60 52 46 43 43 36 33 28 25 22 18 15 12 8 9 9 5 6 7 8 7 3 4 2 3 8 11 6 10 14 16 18 22 26 29 29 31 32 33 33
79 90 92 89 81 74 73 70 66 62 55 47 48 47 44 37 32 32 28 23 20 16 15 12 9 6 4 3 5 9 4 1 1 3 3 8 9 8 9 8 12 13 14 18 21 23 26 28 27
81 85 92 91 80 77 76 75 73 65 58 52 51 51 47 43 41 35 34 27 25 21 19 16 15 9 12 9 7 6 7 7 5 3 3 4 5 5 7 5 2 4 8 10 11 13 16 18 19
87 84 90 93 82 76 69 75 72 67 62 57 55 53 51 47 41 38 36 33 32 29 25 22 20 19 14 17 18 12 11 8 7 5 3 2 3 2 2 4 3 3 5 3 4 7 7 10 11

GFSSGP_250_spd_120.txt.gz
Wind_Speed
11 22 29 32 32 28 29 28 24 23 20 20 18 17 18 14 9 6 3 6 11 18 24 21 22 24 27 23 28 22 24 24 26 30 27 26 26 27 29 31 31 29 28 23 24 25 26 29 29
10 18 25 30 32 31 28 28 22 19 19 18 19 17 17 14 13 10 5 1 7 14 25 22 23 21 23 28 26 27 21 25 26 27 30 34 37 34 34 34 33 32 30 31 33 33 35 34 33
8 15 20 26 31 32 29 28 24 16 17 18 19 20 17 14 15 15 12 7 4 10 16 20 23 23 23 25 29 28 30 28 26 26 30 34 40 38 36 35 35 36 37 36 37 39 35 34 34
7 14 18 22 28 30 31 29 26 23 20 21 22 24 22 18 16 17 14 9 3 9 16 17 19 20 18 20 26 30 32 30 30 29 30 31 31 37 39 40 41 42 39 37 37 35 33 33 31
5 10 13 20 24 26 30 28 24 23 24 23 23 24 26 20 18 21 19 17 11 5 13 17 17 20 20 18 18 20 24 32 30 25 25 24 25 27 29 31 31 33 33 33 31 29 23 21 21
3 6 11 15 21 25 29 30 25 24 25 23 22 23 26 25 23 23 23 21 21 14 13 14 14 13 15 17 15 14 13 12 10 11 12 15 19 23 24 27 30 33 32 29 27 24 21 17 16
2 6 7 12 17 25 28 29 24 21 24 24 22 24 26 26 25 24 24 24 22 20 18 16 14 12 12 10 7 5 3 3 5 6 5 1 2 6 7 9 14 19 19 16 15 15 14 14 12
7 2 8 9 14 22 24 26 25 20 25 24 23 25 24 24 27 25 25 24 22 21 22 23 17 14 13 11 8 4 4 7 10 10 12 12 10 13 14 13 14 9 3 6 10 13 16 16 13
5 3 8 7 14 21 20 23 26 23 27 26 23 25 26 26 27 24 26 27 24 22 23 21 17 16 15 13 10 11 14 11 11 13 13 13 14 16 14 16 21 20 14 12 12 15 16 16 15
8 7 4 7 9 15 16 22 25 26 27 29 27 27 27 28 27 26 26 26 25 27 27 27 26 23 21 14 18 16 11 13 10 13 12 16 18 19 23 21 26 27 21 18 17 17 17 16 13
18 15 8 6 7 13 13 22 23 28 27 30 28 28 27 29 28 27 26 27 26 27 29 29 27 24 20 16 14 15 14 13 12 14 14 14 15 19 19 22 24 28 31 32 27 22 20 18 14
21 16 11 9 8 7 12 18 21 26 28 29 30 33 32 30 32 28 29 29 29 28 32 27 23 23 21 19 15 18 20 18 15 14 15 11 9 11 17 21 20 24 30 34 33 31 28 25 23
25 17 14 9 5 4 7 14 18 21 26 30 29 32 35 36 35 33 31 30 33 28 25 25 29 29 27 23 25 22 20 19 18 19 17 16 15 16 15 14 20 22 23 26 27 27 27 29 28
26 17 17 15 10 9 5 10 14 18 21 28 27 28 31 31 37 36 33 34 36 36 36 34 35 30 28 28 26 23 25 26 20 23 25 22 22 22 19 18 18 23 22 21 23 23 25 27 27
31 24 20 22 22 16 7 3 8 14 19 24 24 26 29 32 36 40 41 41 40 41 40 38 37 38 37 32 32 28 25 26 28 31 34 31 25 20 18 19 19 19 20 23 22 24 24 26 23
36 28 24 22 20 20 19 8 5 12 14 23 22 23 26 31 32 37 39 44 44 43 41 40 39 39 43 43 40 39 38 36 38 42 42 40 38 33 23 18 21 22 20 21 23 25 25 25 29
42 39 24 17 18 16 17 8 5 13 12 21 22 21 24 25 30 29 32 36 38 39 38 38 39 38 41 47 47 42 42 44 43 42 45 47 51 50 42 37 35 33 31 34 38 37 37 39 39
48 43 31 20 19 25 23 16 10 12 8 17 20 19 19 21 25 26 27 32 38 39 39 39 39 39 42 48 46 48 50 50 47 46 43 46 50 58 63 62 57 49 46 54 53 54 55 49 42
55 46 38 32 34 28 27 20 14 11 8 10 19 20 17 17 21 24 26 29 33 35 37 39 43 47 47 48 49 50 44 39 39 39 40 40 43 52 55 55 53 56 58 53 45 49 46 39 36
59 55 43 36 39 38 28 33 26 15 12 14 18 19 17 18 21 18 20 24 25 29 35 39 41 43 44 45 45 45 46 41 43 38 35 35 32 39 41 41 48 49 47 48 44 44 41 39 36
65 60 54 47 44 41 39 34 25 22 13 18 20 19 19 16 18 18 18 22 25 26 29 34 36 38 41 38 44 44 46 48 43 39 38 35 32 32 37 38 37 39 39 41 39 36 35 33 31
69 68 60 53 51 47 39 33 33 27 19 24 22 20 20 18 15 18 16 19 21 21 24 28 28 31 34 37 38 37 38 40 42 41 41 38 36 41 39 34 34 32 33 33 32 29 29 27 28
73 71 69 58 56 46 42 39 41 28 25 28 26 21 20 20 16 15 15 15 18 20 23 24 20 20 24 26 30 31 32 34 36 37 39 40 37 36 36 40 38 36 31 26 22 26 28 29 28
76 73 74 69 61 54 48 46 46 37 35 29 28 26 22 18 18 15 12 11 12 16 19 14 14 18 18 20 22 28 28 29 30 32 34 33 37 37 39 39 36 34 34 34 37 32 30 32 33
80 80 78 76 72 61 57 51 47 44 39 35 33 30 25 22 19 14 12 12 10 9 8 7 8 14 15 11 13 14 15 20 22 23 25 28 30 33 34 37 39 38 39 37 33 31 30 29 29
84 85 83 79 76 75 68 59 52 53 47 41 37 34 31 26 20 19 16 14 11 11 9 7 11 10 8 8 12 12 11 9 11 16 16 17 19 24 27 28 31 35 35 36 37 37 33 27 23
81 83 85 82 79 71 70 66 62 56 54 49 42 37 35 32 28 23 22 21 16 12 10 11 10 11 7 6 8 8 8 7 7 10 16 15 13 13 16 19 21 25 28 28 29 30 32 32 32
77 75 86 86 84 79 72 68 66 63 57 56 54 44 41 37 33 29 27 24 22 19 14 12 13 8 6 6 5 6 4 4 6 6 9 12 12 11 8 11 12 12 13 17 20 22 22 24 25
83 81 85 88 87 84 81 70 69 65 63 61 58 50 46 46 40 35 33 29 24 23 21 18 16 9 6 6 4 3 4 4 2 4 5 7 8 8 8 5 2 5 6 7 11 11 13 13 14
89 85 81 89 88 89 80 74 71 71 68 66 59 54 48 50 48 40 42 33 30 28 25 24 21 18 16 11 9 11 8 8 7 4 4 7 9 8 6 4 2 2 2 2 3 4 5 7 7